Wetterdaten: Samstag, 01.07.2017
Datum Zeit Temp. A. Pool Temp. Feuchte A. Luftdruck Regen Wind Richtung Richtung Sonnenschein ET UV Solar Taupunkt Windchill Windben Empfang
01.07.2017 00:00 13,4 C 23,3 C 83 % 1007,3 hPa 0,0 l/m 5,2 km/h (1 Bft) O-NO 61 0 min 0,000 mm 0,0 UV-I 0 W/m 10,6 C 13,4 C 6,4 km/h (2 Bft) 95,74 %
01.07.2017 00:02 13,3 C 23,3 C 84 % 1007,3 hPa 0,0 l/m 3,2 km/h (1 Bft) O-NO 61 0 min 0,000 mm 0,0 UV-I 0 W/m 10,7 C 13,3 C 4,8 km/h (1 Bft) 95,65 %
01.07.2017 00:04 13,2 C 23,3 C 85 % 1007,4 hPa 0,0 l/m 0,9 km/h (0 Bft) O-NO 61 0 min 0,000 mm 0,0 UV-I 0 W/m 10,7 C 13,2 C 3,2 km/h (1 Bft) 100,00 %
01.07.2017 00:06 13,1 C 23,3 C 86 % 1007,3 hPa 0,0 l/m 0,0 km/h (0 Bft) O-NO 61 0 min 0,000 mm 0,0 UV-I 0 W/m 10,8 C 13,1 C 0,0 km/h (0 Bft) 96,00 %
01.07.2017 00:08 13,1 C 23,3 C 87 % 1007,3 hPa 0,0 l/m 0,0 km/h (0 Bft) O-NO 61 0 min 0,000 mm 0,0 UV-I 0 W/m 11,0 C 13,1 C 0,0 km/h (0 Bft) 96,00 %
01.07.2017 00:10 13,1 C 23,3 C 87 % 1007,3 hPa 0,0 l/m 0,5 km/h (0 Bft) O-NO 61 0 min 0,000 mm 0,0 UV-I 0 W/m 11,0 C 13,1 C 1,6 km/h (1 Bft) 94,74 %
01.07.2017 00:12 13,1 C 23,3 C 87 % 1007,3 hPa 0,0 l/m 3,3 km/h (1 Bft) O-NO 62 0 min 0,000 mm 0,0 UV-I 0 W/m 11,0 C 13,1 C 4,8 km/h (1 Bft) 96,23 %
01.07.2017 00:14 13,0 C 23,3 C 87 % 1007,5 hPa 0,0 l/m 4,1 km/h (1 Bft) O-NO 63 0 min 0,000 mm 0,0 UV-I 0 W/m 10,9 C 13,0 C 4,8 km/h (1 Bft) 97,87 %
01.07.2017 00:16 12,9 C 23,3 C 87 % 1007,5 hPa 0,0 l/m 2,6 km/h (1 Bft) O-NO 63 0 min 0,000 mm 0,0 UV-I 0 W/m 10,8 C 12,9 C 4,8 km/h (1 Bft) 93,62 %
01.07.2017 00:18 12,9 C 23,3 C 87 % 1007,5 hPa 0,0 l/m 0,3 km/h (0 Bft) O-NO 63 0 min 0,000 mm 0,0 UV-I 0 W/m 10,8 C 12,9 C 1,6 km/h (1 Bft) 97,87 %
01.07.2017 00:20 12,8 C 23,3 C 87 % 1007,5 hPa 0,0 l/m 0,0 km/h (0 Bft) O-NO 63 0 min 0,000 mm 0,0 UV-I 0 W/m 10,7 C 12,8 C 1,6 km/h (1 Bft) 93,62 %
01.07.2017 00:22 12,8 C 23,3 C 88 % 1007,5 hPa 0,0 l/m 0,9 km/h (0 Bft) O-NO 63 0 min 0,000 mm 0,0 UV-I 0 W/m 10,9 C 12,8 C 3,2 km/h (1 Bft) 94,00 %
01.07.2017 00:24 12,8 C 23,3 C 88 % 1007,5 hPa 0,0 l/m 2,0 km/h (1 Bft) O-NO 63 0 min 0,000 mm 0,0 UV-I 0 W/m 10,9 C 12,8 C 3,2 km/h (1 Bft) 95,12 %
01.07.2017 00:26 12,8 C 23,3 C 88 % 1007,4 hPa 0,0 l/m 2,3 km/h (1 Bft) O-NO 63 0 min 0,000 mm 0,0 UV-I 0 W/m 10,9 C 12,8 C 3,2 km/h (1 Bft) 94,00 %
01.07.2017 00:28 12,7 C 23,3 C 88 % 1007,3 hPa 0,0 l/m 0,4 km/h (0 Bft) O-NO 63 0 min 0,000 mm 0,0 UV-I 0 W/m 10,8 C 12,7 C 1,6 km/h (1 Bft) 97,87 %
01.07.2017 00:30 12,7 C 23,3 C 89 % 1007,3 hPa 0,0 l/m 0,0 km/h (0 Bft) O-NO 63 0 min 0,000 mm 0,0 UV-I 0 W/m 10,9 C 12,7 C 0,0 km/h (0 Bft) 95,74 %
01.07.2017 00:32 12,7 C 23,3 C 89 % 1007,3 hPa 0,0 l/m 0,0 km/h (0 Bft) O-NO 63 0 min 0,000 mm 0,0 UV-I 0 W/m 10,9 C 12,7 C 0,0 km/h (0 Bft) 93,62 %
01.07.2017 00:34 12,7 C 23,3 C 89 % 1007,3 hPa 0,0 l/m 2,6 km/h (1 Bft) O-NO 63 0 min 0,000 mm 0,0 UV-I 0 W/m 10,9 C 12,7 C 3,2 km/h (1 Bft) 97,37 %
01.07.2017 00:36 12,7 C 23,3 C 89 % 1007,3 hPa 0,0 l/m 1,6 km/h (1 Bft) O-NO 63 0 min 0,000 mm 0,0 UV-I 0 W/m 10,9 C 12,7 C 3,2 km/h (1 Bft) 96,00 %
01.07.2017 00:38 12,7 C 23,3 C 89 % 1007,4 hPa 0,0 l/m 0,4 km/h (0 Bft) O-NO 63 0 min 0,000 mm 0,0 UV-I 0 W/m 10,9 C 12,7 C 1,6 km/h (1 Bft) 98,11 %
01.07.2017 00:40 12,7 C 23,3 C 90 % 1007,5 hPa 0,0 l/m 0,0 km/h (0 Bft) O-NO 63 0 min 0,000 mm 0,0 UV-I 0 W/m 11,1 C 12,7 C 1,6 km/h (1 Bft) 97,22 %
01.07.2017 00:42 12,7 C 23,3 C 90 % 1007,5 hPa 0,0 l/m 1,9 km/h (1 Bft) O-NO 63 0 min 0,000 mm 0,0 UV-I 0 W/m 11,1 C 12,7 C 3,2 km/h (1 Bft) 98,08 %
01.07.2017 00:44 12,7 C 23,3 C 90 % 1007,5 hPa 0,0 l/m 0,5 km/h (0 Bft) O-NO 63 0 min 0,000 mm 0,0 UV-I 0 W/m 11,1 C 12,7 C 3,2 km/h (1 Bft) 96,23 %
01.07.2017 00:46 12,7 C 23,3 C 90 % 1007,5 hPa 0,0 l/m 0,4 km/h (0 Bft) O-NO 63 0 min 0,000 mm 0,0 UV-I 0 W/m 11,1 C 12,7 C 3,2 km/h (1 Bft) 100,00 %
01.07.2017 00:48 12,7 C 23,3 C 90 % 1007,5 hPa 0,0 l/m 1,4 km/h (1 Bft) O-NO 63 0 min 0,000 mm 0,0 UV-I 0 W/m 11,1 C 12,7 C 3,2 km/h (1 Bft) 100,00 %
01.07.2017 00:50 12,7 C 23,3 C 90 % 1007,4 hPa 0,0 l/m 1,1 km/h (1 Bft) O-NO 63 0 min 0,000 mm 0,0 UV-I 0 W/m 11,1 C 12,7 C 3,2 km/h (1 Bft) 100,00 %
01.07.2017 00:52 12,7 C 23,3 C 90 % 1007,4 hPa 0,0 l/m 2,3 km/h (1 Bft) O-NO 63 0 min 0,000 mm 0,0 UV-I 0 W/m 11,1 C 12,7 C 3,2 km/h (1 Bft) 100,00 %
01.07.2017 00:54 12,7 C 23,3 C 90 % 1007,4 hPa 0,0 l/m 0,0 km/h (0 Bft) O-NO 63 0 min 0,000 mm 0,0 UV-I 0 W/m 11,1 C 12,7 C 1,6 km/h (1 Bft) 100,00 %
01.07.2017 00:56 12,7 C 23,3 C 90 % 1007,5 hPa 0,0 l/m 0,0 km/h (0 Bft) O-NO 63 0 min 0,000 mm 0,0 UV-I 0 W/m 11,1 C 12,7 C 0,0 km/h (0 Bft) 96,00 %
01.07.2017 00:58 12,7 C 23,3 C 89 % 1007,3 hPa 0,0 l/m 0,0 km/h (0 Bft) O-NO 63 0 min 0,000 mm 0,0 UV-I 0 W/m 10,9 C 12,7 C 0,0 km/h (0 Bft) 98,00 %
01.07.2017 01:00 12,6 C 23,3 C 89 % 1007,4 hPa 0,0 l/m 0,1 km/h (0 Bft) O-NO 63 0 min 0,000 mm 0,0 UV-I 0 W/m 10,8 C 12,6 C 1,6 km/h (1 Bft) 100,00 %
01.07.2017 01:02 12,6 C 23,3 C 89 % 1007,3 hPa 0,0 l/m 2,4 km/h (1 Bft) O-NO 63 0 min 0,000 mm 0,0 UV-I 0 W/m 10,8 C 12,6 C 3,2 km/h (1 Bft) 97,14 %
01.07.2017 01:04 12,7 C 23,3 C 89 % 1007,4 hPa 0,0 l/m 3,3 km/h (1 Bft) O-NO 63 0 min 0,000 mm 0,0 UV-I 0 W/m 10,9 C 12,7 C 4,8 km/h (1 Bft) 100,00 %
01.07.2017 01:06 12,6 C 23,3 C 89 % 1007,3 hPa 0,0 l/m 3,8 km/h (1 Bft) O-NO 63 0 min 0,000 mm 0,0 UV-I 0 W/m 10,8 C 12,6 C 4,8 km/h (1 Bft) 96,23 %
01.07.2017 01:08 12,6 C 23,3 C 89 % 1007,3 hPa 0,0 l/m 4,8 km/h (1 Bft) O-NO 63 0 min 0,000 mm 0,0 UV-I 0 W/m 10,8 C 12,6 C 4,8 km/h (1 Bft) 100,00 %
01.07.2017 01:10 12,6 C 23,3 C 89 % 1007,4 hPa 0,0 l/m 3,6 km/h (1 Bft) O-NO 63 0 min 0,000 mm 0,0 UV-I 0 W/m 10,8 C 12,6 C 4,8 km/h (1 Bft) 96,00 %
01.07.2017 01:12 12,6 C 23,3 C 89 % 1007,4 hPa 0,0 l/m 2,2 km/h (1 Bft) O-NO 63 0 min 0,000 mm 0,0 UV-I 0 W/m 10,8 C 12,6 C 3,2 km/h (1 Bft) 97,87 %
01.07.2017 01:14 12,6 C 23,3 C 89 % 1007,4 hPa 0,0 l/m 0,1 km/h (0 Bft) O-NO 63 0 min 0,000 mm 0,0 UV-I 0 W/m 10,8 C 12,6 C 1,6 km/h (1 Bft) 100,00 %
01.07.2017 01:16 12,6 C 23,3 C 89 % 1007,4 hPa 0,0 l/m 0,6 km/h (0 Bft) O-NO 63 0 min 0,000 mm 0,0 UV-I 0 W/m 10,8 C 12,6 C 1,6 km/h (1 Bft) 97,87 %
01.07.2017 01:18 12,6 C 23,3 C 89 % 1007,4 hPa 0,0 l/m 0,1 km/h (0 Bft) O-NO 63 0 min 0,000 mm 0,0 UV-I 0 W/m 10,8 C 12,6 C 1,6 km/h (1 Bft) 100,00 %
01.07.2017 01:20 12,6 C 23,3 C 89 % 1007,4 hPa 0,0 l/m 0,2 km/h (0 Bft) O-NO 63 0 min 0,000 mm 0,0 UV-I 0 W/m 10,8 C 12,6 C 1,6 km/h (1 Bft) 98,00 %
01.07.2017 01:22 12,7 C 23,3 C 89 % 1007,5 hPa 0,0 l/m 0,0 km/h (0 Bft) O-NO 63 0 min 0,000 mm 0,0 UV-I 0 W/m 10,9 C 12,7 C 0,0 km/h (0 Bft) 97,92 %
01.07.2017 01:24 12,7 C 23,3 C 89 % 1007,5 hPa 0,0 l/m 0,7 km/h (0 Bft) O-NO 63 0 min 0,000 mm 0,0 UV-I 0 W/m 10,9 C 12,7 C 3,2 km/h (1 Bft) 100,00 %
01.07.2017 01:26 12,6 C 23,3 C 89 % 1007,5 hPa 0,0 l/m 2,4 km/h (1 Bft) O-NO 63 0 min 0,000 mm 0,0 UV-I 0 W/m 10,8 C 12,6 C 3,2 km/h (1 Bft) 96,23 %
01.07.2017 01:28 12,6 C 23,3 C 89 % 1007,5 hPa 0,0 l/m 2,1 km/h (1 Bft) O-NO 63 0 min 0,000 mm 0,0 UV-I 0 W/m 10,8 C 12,6 C 3,2 km/h (1 Bft) 97,56 %
01.07.2017 01:30 12,4 C 23,3 C 89 % 1007,5 hPa 0,0 l/m 1,9 km/h (1 Bft) O-NO 63 0 min 0,000 mm 0,0 UV-I 0 W/m 10,6 C 12,4 C 3,2 km/h (1 Bft) 94,00 %
01.07.2017 01:32 12,4 C 23,3 C 89 % 1007,6 hPa 0,0 l/m 0,8 km/h (0 Bft) O-NO 63 0 min 0,000 mm 0,0 UV-I 0 W/m 10,6 C 12,4 C 3,2 km/h (1 Bft) 97,87 %
01.07.2017 01:34 12,3 C 23,3 C 90 % 1007,5 hPa 0,0 l/m 0,8 km/h (0 Bft) O-NO 63 0 min 0,000 mm 0,0 UV-I 0 W/m 10,7 C 12,3 C 1,6 km/h (1 Bft) 97,37 %
01.07.2017 01:36 12,3 C 23,3 C 90 % 1007,5 hPa 0,0 l/m 1,5 km/h (1 Bft) O-NO 63 0 min 0,000 mm 0,0 UV-I 0 W/m 10,7 C 12,3 C 3,2 km/h (1 Bft) 94,34 %
01.07.2017 01:38 12,2 C 23,3 C 90 % 1007,6 hPa 0,0 l/m 2,1 km/h (1 Bft) O-NO 63 0 min 0,000 mm 0,0 UV-I 0 W/m 10,6 C 12,2 C 4,8 km/h (1 Bft) 98,21 %
01.07.2017 01:40 12,3 C 23,3 C 90 % 1007,6 hPa 0,0 l/m 2,5 km/h (1 Bft) O-NO 63 0 min 0,000 mm 0,0 UV-I 0 W/m 10,7 C 12,3 C 4,8 km/h (1 Bft) 95,12 %
01.07.2017 01:42 12,3 C 23,3 C 90 % 1007,5 hPa 0,0 l/m 3,0 km/h (1 Bft) O-NO 63 0 min 0,000 mm 0,0 UV-I 0 W/m 10,7 C 12,3 C 4,8 km/h (1 Bft) 95,74 %
01.07.2017 01:44 12,3 C 23,3 C 90 % 1007,5 hPa 0,0 l/m 2,0 km/h (1 Bft) O-NO 63 0 min 0,000 mm 0,0 UV-I 0 W/m 10,7 C 12,3 C 3,2 km/h (1 Bft) 98,00 %
01.07.2017 01:46 12,3 C 23,3 C 90 % 1007,5 hPa 0,0 l/m 1,7 km/h (1 Bft) O-NO 65 0 min 0,000 mm 0,0 UV-I 0 W/m 10,7 C 12,3 C 4,8 km/h (1 Bft) 95,45 %
01.07.2017 01:48 12,3 C 23,3 C 90 % 1007,5 hPa 0,0 l/m 1,3 km/h (1 Bft) O-NO 65 0 min 0,000 mm 0,0 UV-I 0 W/m 10,7 C 12,3 C 3,2 km/h (1 Bft) 96,00 %
01.07.2017 01:50 12,3 C 23,3 C 90 % 1007,5 hPa 0,0 l/m 2,1 km/h (1 Bft) O-SO 119 0 min 0,000 mm 0,0 UV-I 0 W/m 10,7 C 12,3 C 4,8 km/h (1 Bft) 96,00 %
01.07.2017 01:52 12,4 C 23,3 C 90 % 1007,5 hPa 0,0 l/m 2,5 km/h (1 Bft) S-SO 151 0 min 0,000 mm 0,0 UV-I 0 W/m 10,8 C 12,4 C 3,2 km/h (1 Bft) 97,37 %
01.07.2017 01:54 12,4 C 23,3 C 89 % 1007,5 hPa 0,0 l/m 2,7 km/h (1 Bft) S-SO 154 0 min 0,000 mm 0,0 UV-I 0 W/m 10,6 C 12,4 C 4,8 km/h (1 Bft) 95,74 %
01.07.2017 01:56 12,4 C 23,3 C 89 % 1007,5 hPa 0,0 l/m 4,6 km/h (1 Bft) S-SO 167 0 min 0,000 mm 0,0 UV-I 0 W/m 10,6 C 12,4 C 8,0 km/h (2 Bft) 93,62 %
01.07.2017 01:58 12,6 C 23,3 C 89 % 1007,5 hPa 0,0 l/m 3,0 km/h (1 Bft) S-SO 167 0 min 0,000 mm 0,0 UV-I 0 W/m 10,8 C 12,6 C 6,4 km/h (2 Bft) 98,00 %
01.07.2017 02:00 12,6 C 23,3 C 88 % 1007,5 hPa 0,0 l/m 4,0 km/h (1 Bft) S-SO 167 0 min 0,000 mm 0,0 UV-I 0 W/m 10,7 C 12,6 C 6,4 km/h (2 Bft) 95,24 %
01.07.2017 02:02 12,6 C 23,3 C 88 % 1007,5 hPa 0,0 l/m 3,5 km/h (1 Bft) S-SO 167 0 min 0,000 mm 0,0 UV-I 0 W/m 10,7 C 12,6 C 8,0 km/h (2 Bft) 94,23 %
01.07.2017 02:04 12,7 C 23,3 C 88 % 1007,5 hPa 0,0 l/m 3,7 km/h (1 Bft) S-SO 168 0 min 0,000 mm 0,0 UV-I 0 W/m 10,8 C 12,7 C 8,0 km/h (2 Bft) 97,62 %
01.07.2017 02:06 12,7 C 23,3 C 87 % 1007,4 hPa 0,0 l/m 3,4 km/h (1 Bft) S 170 0 min 0,000 mm 0,0 UV-I 0 W/m 10,6 C 12,7 C 6,4 km/h (2 Bft) 92,68 %
01.07.2017 02:08 12,8 C 23,3 C 87 % 1007,4 hPa 0,0 l/m 4,0 km/h (1 Bft) S 174 0 min 0,000 mm 0,0 UV-I 0 W/m 10,7 C 12,8 C 6,4 km/h (2 Bft) 94,64 %
01.07.2017 02:10 12,8 C 23,3 C 87 % 1007,4 hPa 0,0 l/m 4,5 km/h (1 Bft) S 184 0 min 0,000 mm 0,0 UV-I 0 W/m 10,7 C 12,8 C 8,0 km/h (2 Bft) 92,00 %
01.07.2017 02:12 12,9 C 23,3 C 87 % 1007,4 hPa 0,0 l/m 4,4 km/h (1 Bft) S-SW 194 0 min 0,000 mm 0,0 UV-I 0 W/m 10,8 C 12,9 C 6,4 km/h (2 Bft) 93,33 %
01.07.2017 02:14 12,9 C 23,3 C 87 % 1007,5 hPa 0,0 l/m 5,0 km/h (1 Bft) S-SW 209 0 min 0,000 mm 0,0 UV-I 0 W/m 10,8 C 12,9 C 6,4 km/h (2 Bft) 93,75 %
01.07.2017 02:16 13,0 C 23,3 C 86 % 1007,5 hPa 0,0 l/m 6,5 km/h (2 Bft) SW 219 0 min 0,000 mm 0,0 UV-I 0 W/m 10,7 C 13,0 C 9,7 km/h (2 Bft) 94,00 %
01.07.2017 02:18 13,0 C 23,3 C 86 % 1007,5 hPa 0,0 l/m 5,6 km/h (1 Bft) SW 215 0 min 0,000 mm 0,0 UV-I 0 W/m 10,7 C 13,0 C 8,0 km/h (2 Bft) 95,12 %
01.07.2017 02:20 13,0 C 23,3 C 86 % 1007,5 hPa 0,0 l/m 6,2 km/h (2 Bft) SW 225 0 min 0,000 mm 0,0 UV-I 0 W/m 10,7 C 13,0 C 9,7 km/h (2 Bft) 94,00 %
01.07.2017 02:22 12,9 C 23,3 C 87 % 1007,5 hPa 0,0 l/m 4,7 km/h (1 Bft) SW 225 0 min 0,000 mm 0,0 UV-I 0 W/m 10,8 C 12,9 C 6,4 km/h (2 Bft) 95,74 %
01.07.2017 02:24 12,9 C 23,3 C 86 % 1007,5 hPa 0,0 l/m 2,2 km/h (1 Bft) SW 225 0 min 0,000 mm 0,0 UV-I 0 W/m 10,6 C 12,9 C 4,8 km/h (1 Bft) 100,00 %
01.07.2017 02:26 12,8 C 23,3 C 87 % 1007,5 hPa 0,0 l/m 6,2 km/h (2 Bft) S-SW 213 0 min 0,000 mm 0,0 UV-I 0 W/m 10,7 C 12,8 C 9,7 km/h (2 Bft) 96,43 %
01.07.2017 02:28 12,7 C 23,3 C 87 % 1007,5 hPa 0,0 l/m 5,0 km/h (1 Bft) S-SW 209 0 min 0,000 mm 0,0 UV-I 0 W/m 10,6 C 12,7 C 8,0 km/h (2 Bft) 97,87 %
01.07.2017 02:30 12,7 C 23,3 C 87 % 1007,5 hPa 0,0 l/m 2,3 km/h (1 Bft) S-SW 209 0 min 0,000 mm 0,0 UV-I 0 W/m 10,6 C 12,7 C 4,8 km/h (1 Bft) 98,00 %
01.07.2017 02:32 12,7 C 23,3 C 88 % 1007,5 hPa 0,0 l/m 2,6 km/h (1 Bft) S-SW 209 0 min 0,000 mm 0,0 UV-I 0 W/m 10,8 C 12,7 C 4,8 km/h (1 Bft) 98,00 %
01.07.2017 02:34 12,7 C 23,3 C 88 % 1007,5 hPa 0,0 l/m 2,8 km/h (1 Bft) S-SW 209 0 min 0,000 mm 0,0 UV-I 0 W/m 10,8 C 12,7 C 4,8 km/h (1 Bft) 92,00 %
01.07.2017 02:36 12,7 C 23,3 C 88 % 1007,5 hPa 0,0 l/m 2,8 km/h (1 Bft) S-SW 209 0 min 0,000 mm 0,0 UV-I 0 W/m 10,8 C 12,7 C 4,8 km/h (1 Bft) 96,43 %
01.07.2017 02:38 12,7 C 23,3 C 88 % 1007,5 hPa 0,0 l/m 3,9 km/h (1 Bft) S-SW 209 0 min 0,000 mm 0,0 UV-I 0 W/m 10,8 C 12,7 C 4,8 km/h (1 Bft) 98,00 %
01.07.2017 02:40 12,7 C 23,3 C 88 % 1007,5 hPa 0,0 l/m 3,9 km/h (1 Bft) S-SW 209 0 min 0,000 mm 0,0 UV-I 0 W/m 10,8 C 12,7 C 6,4 km/h (2 Bft) 97,87 %
01.07.2017 02:42 12,8 C 23,3 C 88 % 1007,5 hPa 0,0 l/m 4,3 km/h (1 Bft) S-SW 209 0 min 0,000 mm 0,0 UV-I 0 W/m 10,9 C 12,8 C 6,4 km/h (2 Bft) 97,87 %
01.07.2017 02:44 12,8 C 23,3 C 88 % 1007,5 hPa 0,0 l/m 4,7 km/h (1 Bft) S-SW 209 0 min 0,000 mm 0,0 UV-I 0 W/m 10,9 C 12,8 C 6,4 km/h (2 Bft) 96,23 %
01.07.2017 02:46 12,8 C 23,3 C 87 % 1007,5 hPa 0,0 l/m 6,5 km/h (2 Bft) SW 230 0 min 0,000 mm 0,0 UV-I 0 W/m 10,7 C 12,8 C 8,0 km/h (2 Bft) 100,00 %
01.07.2017 02:48 12,8 C 23,3 C 87 % 1007,6 hPa 0,0 l/m 5,6 km/h (1 Bft) SW 230 0 min 0,000 mm 0,0 UV-I 0 W/m 10,7 C 12,8 C 8,0 km/h (2 Bft) 95,38 %
01.07.2017 02:50 12,8 C 23,3 C 87 % 1007,6 hPa 0,0 l/m 5,1 km/h (1 Bft) SW 230 0 min 0,000 mm 0,0 UV-I 0 W/m 10,7 C 12,8 C 6,4 km/h (2 Bft) 100,00 %
01.07.2017 02:53 12,8 C 23,3 C 88 % 1007,6 hPa 0,0 l/m 4,6 km/h (1 Bft) SW 229 0 min 0,000 mm 0,0 UV-I 0 W/m 10,9 C 12,8 C 6,4 km/h (2 Bft) 98,63 %
01.07.2017 02:54 12,8 C 23,3 C 87 % 1007,6 hPa 0,0 l/m 3,1 km/h (1 Bft) SW 229 0 min 0,000 mm 0,0 UV-I 0 W/m 10,7 C 12,8 C 4,8 km/h (1 Bft) 100,00 %
01.07.2017 02:56 12,8 C 23,3 C 87 % 1007,7 hPa 0,0 l/m 3,3 km/h (1 Bft) SW 229 0 min 0,000 mm 0,0 UV-I 0 W/m 10,7 C 12,8 C 6,4 km/h (2 Bft) 100,00 %
01.07.2017 02:58 12,8 C 23,3 C 87 % 1007,7 hPa 0,0 l/m 2,5 km/h (1 Bft) SW 229 0 min 0,000 mm 0,0 UV-I 0 W/m 10,7 C 12,8 C 3,2 km/h (1 Bft) 95,74 %
01.07.2017 03:00 12,8 C 23,3 C 87 % 1007,7 hPa 0,0 l/m 4,9 km/h (1 Bft) SW 225 0 min 0,000 mm 0,0 UV-I 0 W/m 10,7 C 12,8 C 9,7 km/h (2 Bft) 100,00 %
01.07.2017 03:02 12,8 C 22,8 C 88 % 1007,8 hPa 0,0 l/m 5,2 km/h (1 Bft) SW 227 0 min 0,000 mm 0,0 UV-I 0 W/m 10,9 C 12,8 C 8,0 km/h (2 Bft) 96,00 %
01.07.2017 03:04 12,8 C 22,8 C 88 % 1007,8 hPa 0,0 l/m 4,5 km/h (1 Bft) SW 227 0 min 0,000 mm 0,0 UV-I 0 W/m 10,9 C 12,8 C 6,4 km/h (2 Bft) 100,00 %
01.07.2017 03:06 12,8 C 22,8 C 88 % 1007,9 hPa 0,0 l/m 4,8 km/h (1 Bft) SW 225 0 min 0,000 mm 0,0 UV-I 0 W/m 10,9 C 12,8 C 6,4 km/h (2 Bft) 98,11 %
01.07.2017 03:08 12,7 C 22,8 C 88 % 1007,9 hPa 0,0 l/m 3,3 km/h (1 Bft) SW 225 0 min 0,000 mm 0,0 UV-I 0 W/m 10,8 C 12,7 C 4,8 km/h (1 Bft) 97,87 %
01.07.2017 03:10 12,7 C 22,8 C 88 % 1007,9 hPa 0,0 l/m 4,2 km/h (1 Bft) SW 225 0 min 0,000 mm 0,0 UV-I 0 W/m 10,8 C 12,7 C 6,4 km/h (2 Bft) 100,00 %
01.07.2017 03:12 12,7 C 22,8 C 88 % 1007,8 hPa 0,0 l/m 3,3 km/h (1 Bft) SW 225 0 min 0,000 mm 0,0 UV-I 0 W/m 10,8 C 12,7 C 4,8 km/h (1 Bft) 97,37 %
01.07.2017 03:14 12,7 C 22,8 C 88 % 1007,9 hPa 0,0 l/m 3,6 km/h (1 Bft) SW 225 0 min 0,000 mm 0,0 UV-I 0 W/m 10,8 C 12,7 C 6,4 km/h (2 Bft) 97,87 %
01.07.2017 03:16 12,7 C 22,8 C 88 % 1007,8 hPa 0,0 l/m 5,7 km/h (1 Bft) S-SW 196 0 min 0,000 mm 0,0 UV-I 0 W/m 10,8 C 12,7 C 8,0 km/h (2 Bft) 98,00 %
01.07.2017 03:18 12,7 C 22,8 C 88 % 1007,7 hPa 0,0 l/m 5,3 km/h (1 Bft) S-SW 195 0 min 0,000 mm 0,0 UV-I 0 W/m 10,8 C 12,7 C 8,0 km/h (2 Bft) 100,00 %
01.07.2017 03:20 12,7 C 22,8 C 88 % 1007,7 hPa 0,0 l/m 6,5 km/h (2 Bft) SW 215 0 min 0,000 mm 0,0 UV-I 0 W/m 10,8 C 12,7 C 9,7 km/h (2 Bft) 98,18 %
01.07.2017 03:22 12,7 C 22,8 C 88 % 1007,8 hPa 0,0 l/m 8,2 km/h (2 Bft) S-SW 202 0 min 0,000 mm 0,0 UV-I 0 W/m 10,8 C 11,6 C 11,3 km/h (2 Bft) 94,87 %
01.07.2017 03:24 12,7 C 22,8 C 88 % 1007,7 hPa 0,0 l/m 7,0 km/h (2 Bft) SW 219 0 min 0,000 mm 0,0 UV-I 0 W/m 10,8 C 12,3 C 9,7 km/h (2 Bft) 100,00 %
01.07.2017 03:26 12,8 C 22,8 C 88 % 1007,7 hPa 0,0 l/m 5,8 km/h (2 Bft) SW 220 0 min 0,000 mm 0,0 UV-I 0 W/m 10,9 C 12,8 C 9,7 km/h (2 Bft) 98,11 %
01.07.2017 03:28 12,7 C 22,8 C 88 % 1007,8 hPa 0,0 l/m 5,1 km/h (1 Bft) SW 218 0 min 0,000 mm 0,0 UV-I 0 W/m 10,8 C 12,7 C 9,7 km/h (2 Bft) 100,00 %
01.07.2017 03:30 12,7 C 22,8 C 88 % 1007,8 hPa 0,0 l/m 5,6 km/h (1 Bft) SW 216 0 min 0,000 mm 0,0 UV-I 0 W/m 10,8 C 12,7 C 9,7 km/h (2 Bft) 98,00 %
01.07.2017 03:32 12,7 C 22,8 C 88 % 1007,8 hPa 0,0 l/m 4,9 km/h (1 Bft) S-SW 204 0 min 0,000 mm 0,0 UV-I 0 W/m 10,8 C 12,7 C 9,7 km/h (2 Bft) 97,37 %
01.07.2017 03:34 12,7 C 22,8 C 88 % 1007,9 hPa 0,0 l/m 4,5 km/h (1 Bft) S-SW 204 0 min 0,000 mm 0,0 UV-I 0 W/m 10,8 C 12,7 C 6,4 km/h (2 Bft) 95,74 %
01.07.2017 03:36 12,7 C 22,8 C 88 % 1007,9 hPa 0,0 l/m 5,1 km/h (1 Bft) S-SW 205 0 min 0,000 mm 0,0 UV-I 0 W/m 10,8 C 12,7 C 8,0 km/h (2 Bft) 100,00 %
01.07.2017 03:38 12,7 C 22,8 C 88 % 1008,0 hPa 0,0 l/m 6,2 km/h (2 Bft) S-SW 205 0 min 0,000 mm 0,0 UV-I 0 W/m 10,8 C 12,7 C 8,0 km/h (2 Bft) 97,56 %
01.07.2017 03:40 12,7 C 22,8 C 88 % 1007,9 hPa 0,0 l/m 5,6 km/h (1 Bft) S-SW 204 0 min 0,000 mm 0,0 UV-I 0 W/m 10,8 C 12,7 C 9,7 km/h (2 Bft) 98,00 %
01.07.2017 03:42 12,7 C 22,8 C 88 % 1008,0 hPa 0,0 l/m 6,7 km/h (2 Bft) S-SW 199 0 min 0,000 mm 0,0 UV-I 0 W/m 10,8 C 12,5 C 9,7 km/h (2 Bft) 98,04 %
01.07.2017 03:44 12,7 C 22,8 C 88 % 1007,9 hPa 0,0 l/m 5,2 km/h (1 Bft) S-SW 198 0 min 0,000 mm 0,0 UV-I 0 W/m 10,8 C 12,7 C 8,0 km/h (2 Bft) 97,37 %
01.07.2017 03:46 12,7 C 22,8 C 89 % 1007,9 hPa 0,0 l/m 4,0 km/h (1 Bft) S-SW 203 0 min 0,000 mm 0,0 UV-I 0 W/m 10,9 C 12,7 C 8,0 km/h (2 Bft) 100,00 %
01.07.2017 03:48 12,7 C 22,8 C 89 % 1007,9 hPa 0,0 l/m 4,2 km/h (1 Bft) S-SW 203 0 min 0,000 mm 0,0 UV-I 0 W/m 10,9 C 12,7 C 6,4 km/h (2 Bft) 97,87 %
01.07.2017 03:50 12,7 C 22,8 C 89 % 1007,9 hPa 0,0 l/m 4,7 km/h (1 Bft) S-SW 203 0 min 0,000 mm 0,0 UV-I 0 W/m 10,9 C 12,7 C 6,4 km/h (2 Bft) 100,00 %
01.07.2017 03:52 12,7 C 22,8 C 89 % 1007,9 hPa 0,0 l/m 3,9 km/h (1 Bft) S-SW 205 0 min 0,000 mm 0,0 UV-I 0 W/m 10,9 C 12,7 C 6,4 km/h (2 Bft) 95,74 %
01.07.2017 03:54 12,7 C 22,8 C 89 % 1007,9 hPa 0,0 l/m 4,4 km/h (1 Bft) S-SW 205 0 min 0,000 mm 0,0 UV-I 0 W/m 10,9 C 12,7 C 8,0 km/h (2 Bft) 100,00 %
01.07.2017 03:56 12,7 C 22,8 C 89 % 1008,0 hPa 0,0 l/m 5,3 km/h (1 Bft) S-SW 205 0 min 0,000 mm 0,0 UV-I 0 W/m 10,9 C 12,7 C 9,7 km/h (2 Bft) 96,00 %
01.07.2017 03:58 12,7 C 22,8 C 89 % 1008,0 hPa 0,0 l/m 6,0 km/h (2 Bft) S-SW 205 0 min 0,000 mm 0,0 UV-I 0 W/m 10,9 C 12,7 C 8,0 km/h (2 Bft) 98,11 %
01.07.2017 04:00 12,7 C 22,8 C 89 % 1008,0 hPa 0,0 l/m 6,6 km/h (2 Bft) S-SW 208 0 min 0,000 mm 0,0 UV-I 0 W/m 10,9 C 12,6 C 9,7 km/h (2 Bft) 100,00 %
01.07.2017 04:05 12,6 C 22,8 C 88 % 1008,0 hPa 0,0 l/m 8,3 km/h (2 Bft) S-SW 213 0 min 0,000 mm 0,0 UV-I 0 W/m 10,7 C 11,4 C 12,9 km/h (3 Bft) 98,70 %
01.07.2017 04:06 12,6 C 22,8 C 88 % 1008,0 hPa 0,0 l/m 6,3 km/h (2 Bft) SW 232 0 min 0,000 mm 0,0 UV-I 0 W/m 10,7 C 12,6 C 9,7 km/h (2 Bft) 100,00 %
01.07.2017 04:08 12,7 C 22,8 C 88 % 1008,0 hPa 0,0 l/m 8,0 km/h (2 Bft) S-SW 202 0 min 0,000 mm 0,0 UV-I 0 W/m 10,8 C 11,7 C 11,3 km/h (2 Bft) 94,34 %
01.07.2017 04:10 12,6 C 22,8 C 88 % 1008,0 hPa 0,0 l/m 7,3 km/h (2 Bft) S 185 0 min 0,000 mm 0,0 UV-I 0 W/m 10,7 C 12,0 C 11,3 km/h (2 Bft) 97,37 %
01.07.2017 04:12 12,7 C 22,8 C 88 % 1008,0 hPa 0,0 l/m 7,4 km/h (2 Bft) S-SW 207 0 min 0,000 mm 0,0 UV-I 0 W/m 10,8 C 12,1 C 9,7 km/h (2 Bft) 98,11 %
01.07.2017 04:14 12,7 C 22,8 C 88 % 1008,0 hPa 0,0 l/m 5,6 km/h (1 Bft) S 169 0 min 0,000 mm 0,0 UV-I 0 W/m 10,8 C 12,7 C 11,3 km/h (2 Bft) 97,56 %
01.07.2017 04:16 12,7 C 22,8 C 89 % 1008,0 hPa 0,0 l/m 6,4 km/h (2 Bft) S-SW 202 0 min 0,000 mm 0,0 UV-I 0 W/m 10,9 C 12,7 C 9,7 km/h (2 Bft) 96,00 %
01.07.2017 04:18 12,7 C 22,8 C 89 % 1008,0 hPa 0,0 l/m 6,6 km/h (2 Bft) S-SW 208 0 min 0,000 mm 0,0 UV-I 0 W/m 10,9 C 12,6 C 11,3 km/h (2 Bft) 96,23 %
01.07.2017 04:20 12,7 C 22,8 C 89 % 1008,1 hPa 0,0 l/m 5,7 km/h (1 Bft) S-SW 200 0 min 0,000 mm 0,0 UV-I 0 W/m 10,9 C 12,7 C 12,9 km/h (3 Bft) 95,12 %
01.07.2017 04:22 12,7 C 22,8 C 89 % 1008,1 hPa 0,0 l/m 6,9 km/h (2 Bft) S-SW 203 0 min 0,000 mm 0,0 UV-I 0 W/m 10,9 C 12,4 C 9,7 km/h (2 Bft) 93,62 %
01.07.2017 04:24 12,7 C 22,8 C 89 % 1008,1 hPa 0,0 l/m 5,6 km/h (1 Bft) S-SW 213 0 min 0,000 mm 0,0 UV-I 0 W/m 10,9 C 12,7 C 9,7 km/h (2 Bft) 94,34 %
01.07.2017 04:26 12,7 C 22,8 C 89 % 1008,1 hPa 0,0 l/m 5,8 km/h (2 Bft) S-SW 198 0 min 0,000 mm 0,0 UV-I 0 W/m 10,9 C 12,7 C 9,7 km/h (2 Bft) 96,00 %
01.07.2017 04:28 12,7 C 22,8 C 89 % 1008,1 hPa 0,0 l/m 6,7 km/h (2 Bft) S-SW 211 0 min 0,000 mm 0,0 UV-I 0 W/m 10,9 C 12,5 C 12,9 km/h (3 Bft) 92,68 %
01.07.2017 04:30 12,7 C 22,8 C 88 % 1008,1 hPa 0,0 l/m 7,1 km/h (2 Bft) S-SW 207 0 min 0,000 mm 0,0 UV-I 0 W/m 10,8 C 12,3 C 11,3 km/h (2 Bft) 97,56 %
01.07.2017 04:32 12,7 C 22,8 C 89 % 1008,1 hPa 0,0 l/m 6,8 km/h (2 Bft) SW 219 0 min 0,000 mm 0,0 UV-I 0 W/m 10,9 C 12,5 C 11,3 km/h (2 Bft) 96,00 %
01.07.2017 04:34 12,7 C 22,8 C 89 % 1008,2 hPa 0,0 l/m 5,2 km/h (1 Bft) S-SW 213 0 min 0,000 mm 0,0 UV-I 0 W/m 10,9 C 12,7 C 8,0 km/h (2 Bft) 94,00 %
01.07.2017 04:36 12,7 C 22,8 C 88 % 1008,2 hPa 0,0 l/m 7,9 km/h (2 Bft) S-SW 211 0 min 0,000 mm 0,0 UV-I 0 W/m 10,8 C 11,7 C 12,9 km/h (3 Bft) 98,00 %
01.07.2017 04:38 12,7 C 22,8 C 88 % 1008,2 hPa 0,0 l/m 9,0 km/h (2 Bft) SW 221 0 min 0,000 mm 0,0 UV-I 0 W/m 10,8 C 11,1 C 12,9 km/h (3 Bft) 94,87 %
01.07.2017 04:40 12,8 C 22,8 C 88 % 1008,3 hPa 0,0 l/m 6,7 km/h (2 Bft) SW 214 0 min 0,000 mm 0,0 UV-I 0 W/m 10,9 C 12,6 C 11,3 km/h (2 Bft) 100,00 %
01.07.2017 04:42 12,8 C 22,8 C 88 % 1008,3 hPa 0,0 l/m 7,6 km/h (2 Bft) S-SW 207 0 min 0,000 mm 0,0 UV-I 0 W/m 10,9 C 12,0 C 12,9 km/h (3 Bft) 97,56 %
01.07.2017 04:44 12,8 C 22,8 C 88 % 1008,3 hPa 0,0 l/m 8,1 km/h (2 Bft) SW 229 0 min 0,000 mm 0,0 UV-I 0 W/m 10,9 C 11,7 C 12,9 km/h (3 Bft) 97,87 %
01.07.2017 04:46 12,8 C 22,8 C 88 % 1008,3 hPa 0,0 l/m 7,9 km/h (2 Bft) SW 235 0 min 0,000 mm 0,0 UV-I 0 W/m 10,9 C 11,9 C 11,3 km/h (2 Bft) 98,21 %
01.07.2017 04:48 12,8 C 22,8 C 88 % 1008,4 hPa 0,0 l/m 7,2 km/h (2 Bft) SW 228 0 min 0,000 mm 0,0 UV-I 0 W/m 10,9 C 12,3 C 11,3 km/h (2 Bft) 100,00 %
01.07.2017 04:50 12,7 C 22,8 C 88 % 1008,4 hPa 0,0 l/m 8,4 km/h (2 Bft) SW 220 0 min 0,000 mm 0,0 UV-I 0 W/m 10,8 C 11,5 C 12,9 km/h (3 Bft) 94,74 %
01.07.2017 04:52 12,7 C 22,8 C 89 % 1008,4 hPa 0,0 l/m 7,5 km/h (2 Bft) W-SW 245 0 min 0,000 mm 0,0 UV-I 0 W/m 10,9 C 12,0 C 11,3 km/h (2 Bft) 96,43 %
01.07.2017 04:54 12,7 C 22,8 C 89 % 1008,4 hPa 0,0 l/m 8,4 km/h (2 Bft) SW 229 0 min 0,000 mm 0,0 UV-I 0 W/m 10,9 C 11,5 C 12,9 km/h (3 Bft) 96,23 %
01.07.2017 04:56 12,7 C 22,8 C 89 % 1008,4 hPa 0,0 l/m 8,1 km/h (2 Bft) SW 227 0 min 0,000 mm 0,0 UV-I 0 W/m 10,9 C 11,6 C 12,9 km/h (3 Bft) 95,45 %
01.07.2017 04:58 12,7 C 22,8 C 88 % 1008,4 hPa 0,0 l/m 8,4 km/h (2 Bft) SW 234 0 min 0,000 mm 0,0 UV-I 2 W/m 10,8 C 11,5 C 11,3 km/h (2 Bft) 97,56 %
01.07.2017 05:00 12,7 C 22,8 C 89 % 1008,5 hPa 0,0 l/m 7,9 km/h (2 Bft) SW 234 0 min 0,025 mm 0,0 UV-I 5 W/m 10,9 C 11,7 C 11,3 km/h (2 Bft) 93,18 %
01.07.2017 05:02 12,7 C 22,8 C 89 % 1008,4 hPa 0,0 l/m 9,9 km/h (2 Bft) SW 232 0 min 0,000 mm 0,0 UV-I 5 W/m 10,9 C 10,6 C 16,1 km/h (3 Bft) 98,00 %
01.07.2017 05:04 12,7 C 22,8 C 89 % 1008,5 hPa 0,0 l/m 8,3 km/h (2 Bft) SW 229 0 min 0,000 mm 0,0 UV-I 5 W/m 10,9 C 11,5 C 12,9 km/h (3 Bft) 91,49 %
01.07.2017 05:06 12,7 C 22,8 C 89 % 1008,5 hPa 0,0 l/m 10,0 km/h (2 Bft) S-SW 210 0 min 0,000 mm 0,0 UV-I 5 W/m 10,9 C 10,6 C 14,5 km/h (3 Bft) 95,74 %
01.07.2017 05:08 12,7 C 22,8 C 89 % 1008,5 hPa 0,0 l/m 9,2 km/h (2 Bft) S-SW 211 0 min 0,000 mm 0,0 UV-I 6 W/m 10,9 C 11,0 C 14,5 km/h (3 Bft) 96,00 %
01.07.2017 05:10 12,8 C 22,8 C 89 % 1008,6 hPa 0,0 l/m 9,1 km/h (2 Bft) W-SW 239 0 min 0,000 mm 0,0 UV-I 7 W/m 11,0 C 11,2 C 14,5 km/h (3 Bft) 94,00 %
01.07.2017 05:12 12,8 C 22,8 C 88 % 1008,6 hPa 0,0 l/m 9,0 km/h (2 Bft) SW 219 0 min 0,000 mm 0,0 UV-I 7 W/m 10,9 C 11,2 C 14,5 km/h (3 Bft) 97,37 %
01.07.2017 05:14 12,8 C 22,8 C 88 % 1008,6 hPa 0,0 l/m 7,4 km/h (2 Bft) SW 229 0 min 0,000 mm 0,0 UV-I 8 W/m 10,9 C 12,2 C 9,7 km/h (2 Bft) 93,33 %
01.07.2017 05:16 12,8 C 22,8 C 88 % 1008,6 hPa 0,0 l/m 9,3 km/h (2 Bft) SW 219 0 min 0,000 mm 0,0 UV-I 9 W/m 10,9 C 11,1 C 14,5 km/h (3 Bft) 98,08 %
01.07.2017 05:18 12,8 C 22,8 C 88 % 1008,6 hPa 0,0 l/m 9,7 km/h (2 Bft) SW 226 0 min 0,000 mm 0,0 UV-I 10 W/m 10,9 C 10,8 C 14,5 km/h (3 Bft) 93,33 %
01.07.2017 05:20 12,8 C 22,8 C 88 % 1008,6 hPa 0,0 l/m 10,6 km/h (2 Bft) W-SW 249 2 min 0,000 mm 0,0 UV-I 11 W/m 10,9 C 10,4 C 16,1 km/h (3 Bft) 96,77 %
01.07.2017 05:22 12,8 C 22,8 C 88 % 1008,7 hPa 0,0 l/m 10,7 km/h (2 Bft) SW 236 2 min 0,000 mm 0,0 UV-I 12 W/m 10,9 C 10,3 C 17,7 km/h (3 Bft) 97,87 %
01.07.2017 05:24 12,8 C 22,8 C 88 % 1008,7 hPa 0,0 l/m 9,9 km/h (2 Bft) SW 232 0 min 0,000 mm 0,0 UV-I 12 W/m 10,9 C 10,7 C 14,5 km/h (3 Bft) 94,34 %
01.07.2017 05:26 12,9 C 22,8 C 88 % 1008,7 hPa 0,0 l/m 12,0 km/h (2 Bft) SW 224 0 min 0,000 mm 0,0 UV-I 14 W/m 11,0 C 9,9 C 16,1 km/h (3 Bft) 97,56 %
01.07.2017 05:28 12,9 C 22,8 C 88 % 1008,7 hPa 0,0 l/m 9,7 km/h (2 Bft) SW 214 0 min 0,000 mm 0,0 UV-I 14 W/m 11,0 C 11,0 C 17,7 km/h (3 Bft) 98,11 %
01.07.2017 05:30 12,9 C 22,8 C 88 % 1008,7 hPa 0,0 l/m 9,7 km/h (2 Bft) SW 226 0 min 0,000 mm 0,0 UV-I 15 W/m 11,0 C 11,0 C 16,1 km/h (3 Bft) 94,74 %
01.07.2017 05:32 12,9 C 22,8 C 88 % 1008,8 hPa 0,0 l/m 10,2 km/h (2 Bft) SW 224 0 min 0,000 mm 0,0 UV-I 16 W/m 11,0 C 10,7 C 14,5 km/h (3 Bft) 96,23 %
01.07.2017 05:34 12,9 C 22,8 C 88 % 1008,7 hPa 0,0 l/m 11,7 km/h (2 Bft) S-SW 211 0 min 0,000 mm 0,0 UV-I 18 W/m 11,0 C 10,0 C 16,1 km/h (3 Bft) 93,62 %
01.07.2017 05:36 13,0 C 22,8 C 88 % 1008,8 hPa 0,0 l/m 10,1 km/h (2 Bft) W-SW 255 0 min 0,000 mm 0,0 UV-I 18 W/m 11,1 C 10,9 C 14,5 km/h (3 Bft) 98,00 %
01.07.2017 05:38 13,0 C 22,8 C 88 % 1008,8 hPa 0,0 l/m 12,4 km/h (3 Bft) W-SW 237 0 min 0,000 mm 0,0 UV-I 18 W/m 11,1 C 9,8 C 17,7 km/h (3 Bft) 95,12 %
01.07.2017 05:40 13,1 C 22,8 C 88 % 1008,8 hPa 0,0 l/m 13,1 km/h (3 Bft) SW 223 0 min 0,000 mm 0,0 UV-I 18 W/m 11,2 C 9,6 C 17,7 km/h (3 Bft) 97,87 %
01.07.2017 05:42 13,1 C 22,8 C 88 % 1008,8 hPa 0,0 l/m 11,2 km/h (2 Bft) S-SW 213 0 min 0,000 mm 0,0 UV-I 19 W/m 11,2 C 10,4 C 14,5 km/h (3 Bft) 96,00 %
01.07.2017 05:44 13,1 C 22,8 C 88 % 1008,8 hPa 0,0 l/m 11,1 km/h (2 Bft) W-SW 238 0 min 0,000 mm 0,0 UV-I 20 W/m 11,2 C 10,5 C 19,3 km/h (3 Bft) 96,00 %
01.07.2017 05:46 13,2 C 22,8 C 88 % 1008,8 hPa 0,0 l/m 12,4 km/h (3 Bft) W-SW 251 0 min 0,000 mm 0,0 UV-I 22 W/m 11,3 C 10,0 C 17,7 km/h (3 Bft) 95,74 %
01.07.2017 05:48 13,2 C 22,8 C 88 % 1008,9 hPa 0,0 l/m 11,7 km/h (2 Bft) S-SW 202 0 min 0,000 mm 0,0 UV-I 24 W/m 11,3 C 10,3 C 17,7 km/h (3 Bft) 100,00 %
01.07.2017 05:50 13,2 C 22,8 C 88 % 1008,9 hPa 0,0 l/m 12,1 km/h (2 Bft) SW 236 0 min 0,000 mm 0,0 UV-I 26 W/m 11,3 C 10,2 C 16,1 km/h (3 Bft) 95,74 %
01.07.2017 05:52 13,2 C 22,8 C 88 % 1008,9 hPa 0,0 l/m 11,8 km/h (2 Bft) SW 227 0 min 0,000 mm 0,0 UV-I 31 W/m 11,3 C 10,3 C 16,1 km/h (3 Bft) 94,34 %
01.07.2017 05:54 13,3 C 22,8 C 87 % 1009,0 hPa 0,0 l/m 10,5 km/h (2 Bft) SW 214 0 min 0,000 mm 0,0 UV-I 35 W/m 11,2 C 11,0 C 14,5 km/h (3 Bft) 95,12 %
01.07.2017 05:56 13,3 C 22,8 C 87 % 1009,0 hPa 0,0 l/m 12,2 km/h (2 Bft) W-SW 246 0 min 0,000 mm 0,0 UV-I 39 W/m 11,2 C 10,2 C 17,7 km/h (3 Bft) 97,78 %
01.07.2017 05:58 13,3 C 22,8 C 87 % 1009,0 hPa 0,0 l/m 9,1 km/h (2 Bft) W-SW 252 0 min 0,000 mm 0,0 UV-I 42 W/m 11,2 C 11,7 C 12,9 km/h (3 Bft) 98,11 %
01.07.2017 06:00 13,4 C 22,8 C 87 % 1009,0 hPa 0,0 l/m 11,0 km/h (2 Bft) SW 234 0 min 0,000 mm 0,0 UV-I 44 W/m 11,3 C 10,9 C 16,1 km/h (3 Bft) 100,00 %
01.07.2017 06:02 13,5 C 22,8 C 87 % 1009,1 hPa 0,0 l/m 11,2 km/h (2 Bft) SW 219 0 min 0,026 mm 0,0 UV-I 44 W/m 11,4 C 10,9 C 16,1 km/h (3 Bft) 98,21 %
01.07.2017 06:04 13,6 C 22,8 C 86 % 1009,1 hPa 0,0 l/m 13,3 km/h (3 Bft) W-SW 249 0 min 0,000 mm 0,0 UV-I 44 W/m 11,3 C 10,1 C 19,3 km/h (3 Bft) 100,00 %
01.07.2017 06:06 13,6 C 22,8 C 86 % 1009,2 hPa 0,0 l/m 13,6 km/h (3 Bft) SW 231 0 min 0,000 mm 0,0 UV-I 44 W/m 11,3 C 10,0 C 19,3 km/h (3 Bft) 97,56 %
01.07.2017 06:08 13,7 C 22,8 C 86 % 1009,3 hPa 0,0 l/m 15,5 km/h (3 Bft) W-SW 240 0 min 0,000 mm 0,0 UV-I 44 W/m 11,4 C 9,4 C 22,5 km/h (4 Bft) 94,34 %
01.07.2017 06:10 13,7 C 22,8 C 85 % 1009,2 hPa 0,0 l/m 15,9 km/h (3 Bft) W-SW 256 0 min 0,000 mm 0,0 UV-I 42 W/m 11,2 C 9,3 C 22,5 km/h (4 Bft) 97,37 %
01.07.2017 06:12 13,8 C 22,8 C 85 % 1009,2 hPa 0,0 l/m 15,2 km/h (3 Bft) SW 228 0 min 0,000 mm 0,0 UV-I 40 W/m 11,3 C 9,7 C 20,9 km/h (4 Bft) 94,34 %
01.07.2017 06:14 13,8 C 22,8 C 85 % 1009,3 hPa 0,0 l/m 13,7 km/h (3 Bft) W 261 0 min 0,000 mm 0,0 UV-I 38 W/m 11,3 C 10,2 C 20,9 km/h (4 Bft) 98,00 %
01.07.2017 06:16 13,9 C 22,8 C 84 % 1009,3 hPa 0,0 l/m 13,4 km/h (3 Bft) SW 223 0 min 0,000 mm 0,0 UV-I 37 W/m 11,2 C 10,4 C 19,3 km/h (3 Bft) 94,74 %
01.07.2017 06:18 13,9 C 22,8 C 84 % 1009,3 hPa 0,0 l/m 12,2 km/h (2 Bft) W-SW 254 0 min 0,000 mm 0,0 UV-I 36 W/m 11,2 C 10,9 C 17,7 km/h (3 Bft) 98,11 %
01.07.2017 06:20 14,0 C 22,8 C 84 % 1009,4 hPa 0,0 l/m 12,8 km/h (3 Bft) SW 236 0 min 0,000 mm 0,0 UV-I 35 W/m 11,3 C 10,8 C 20,9 km/h (4 Bft) 97,37 %
01.07.2017 06:22 14,0 C 22,2 C 84 % 1009,4 hPa 0,0 l/m 13,7 km/h (3 Bft) SW 220 0 min 0,000 mm 0,0 UV-I 33 W/m 11,3 C 10,4 C 19,3 km/h (3 Bft) 96,00 %
01.07.2017 06:24 14,1 C 22,2 C 84 % 1009,4 hPa 0,0 l/m 12,5 km/h (3 Bft) W-SW 244 0 min 0,000 mm 0,0 UV-I 33 W/m 11,4 C 11,0 C 17,7 km/h (3 Bft) 96,23 %
01.07.2017 06:26 14,0 C 22,8 C 84 % 1009,5 hPa 0,0 l/m 14,3 km/h (3 Bft) SW 231 0 min 0,000 mm 0,0 UV-I 33 W/m 11,3 C 10,2 C 20,9 km/h (4 Bft) 95,12 %
01.07.2017 06:28 14,0 C 22,2 C 85 % 1009,5 hPa 0,0 l/m 14,0 km/h (3 Bft) S-SW 207 0 min 0,000 mm 0,0 UV-I 31 W/m 11,5 C 10,3 C 17,7 km/h (3 Bft) 96,00 %
01.07.2017 06:30 14,0 C 22,2 C 85 % 1009,5 hPa 0,0 l/m 10,8 km/h (2 Bft) W 263 0 min 0,000 mm 0,0 UV-I 29 W/m 11,5 C 11,6 C 19,3 km/h (3 Bft) 95,12 %
01.07.2017 06:32 13,9 C 22,2 C 85 % 1009,6 hPa 0,0 l/m 14,2 km/h (3 Bft) W-NW 283 0 min 0,000 mm 0,0 UV-I 26 W/m 11,4 C 10,1 C 20,9 km/h (4 Bft) 96,23 %
01.07.2017 06:34 13,9 C 22,2 C 85 % 1009,7 hPa 0,0 l/m 14,9 km/h (3 Bft) W-SW 253 0 min 0,000 mm 0,0 UV-I 25 W/m 11,4 C 9,9 C 20,9 km/h (4 Bft) 95,74 %
01.07.2017 06:36 13,9 C 22,2 C 85 % 1009,7 hPa 0,0 l/m 13,9 km/h (3 Bft) W-SW 248 0 min 0,000 mm 0,0 UV-I 23 W/m 11,4 C 10,3 C 22,5 km/h (4 Bft) 98,00 %
01.07.2017 06:38 13,9 C 22,2 C 85 % 1009,7 hPa 0,0 l/m 9,9 km/h (2 Bft) W-SW 238 0 min 0,000 mm 0,0 UV-I 21 W/m 11,4 C 12,0 C 14,5 km/h (3 Bft) 95,24 %
01.07.2017 06:40 13,8 C 22,2 C 86 % 1009,8 hPa 0,0 l/m 11,6 km/h (2 Bft) W-SW 246 0 min 0,000 mm 0,0 UV-I 21 W/m 11,5 C 11,1 C 17,7 km/h (3 Bft) 97,56 %
01.07.2017 06:42 13,8 C 22,2 C 86 % 1009,8 hPa 0,0 l/m 12,9 km/h (3 Bft) W-NW 284 0 min 0,000 mm 0,0 UV-I 21 W/m 11,5 C 10,5 C 22,5 km/h (4 Bft) 98,00 %
01.07.2017 06:44 13,8 C 22,2 C 87 % 1009,8 hPa 0,0 l/m 11,3 km/h (2 Bft) W-SW 240 0 min 0,000 mm 0,0 UV-I 21 W/m 11,7 C 11,2 C 17,7 km/h (3 Bft) 100,00 %
01.07.2017 06:46 13,8 C 22,2 C 87 % 1009,8 hPa 0,0 l/m 11,6 km/h (2 Bft) SW 217 0 min 0,000 mm 0,0 UV-I 21 W/m 11,7 C 11,1 C 17,7 km/h (3 Bft) 98,00 %
01.07.2017 06:48 13,7 C 22,2 C 87 % 1009,8 hPa 0,0 l/m 8,4 km/h (2 Bft) S-SW 209 0 min 0,000 mm 0,0 UV-I 21 W/m 11,6 C 12,5 C 11,3 km/h (2 Bft) 98,11 %
01.07.2017 06:50 13,7 C 22,2 C 87 % 1009,8 hPa 0,2 l/m 9,8 km/h (2 Bft) SW 236 0 min 0,000 mm 0,0 UV-I 22 W/m 11,6 C 11,8 C 12,9 km/h (3 Bft) 100,00 %
01.07.2017 06:52 13,7 C 22,2 C 87 % 1009,8 hPa 0,0 l/m 9,3 km/h (2 Bft) W-SW 243 0 min 0,000 mm 0,0 UV-I 24 W/m 11,6 C 12,0 C 17,7 km/h (3 Bft) 97,14 %
01.07.2017 06:54 13,7 C 22,2 C 88 % 1009,8 hPa 0,0 l/m 10,7 km/h (2 Bft) SW 229 0 min 0,000 mm 0,0 UV-I 26 W/m 11,7 C 11,3 C 16,1 km/h (3 Bft) 96,23 %
01.07.2017 06:56 13,7 C 22,2 C 88 % 1009,8 hPa 0,0 l/m 9,0 km/h (2 Bft) S-SW 211 0 min 0,000 mm 0,0 UV-I 28 W/m 11,7 C 12,2 C 16,1 km/h (3 Bft) 100,00 %
01.07.2017 06:58 13,6 C 22,2 C 88 % 1009,8 hPa 0,0 l/m 7,7 km/h (2 Bft) SW 225 0 min 0,000 mm 0,0 UV-I 31 W/m 11,6 C 12,8 C 12,9 km/h (3 Bft) 97,06 %
01.07.2017 07:00 13,6 C 22,2 C 89 % 1009,9 hPa 0,0 l/m 8,9 km/h (2 Bft) W-SW 244 0 min 0,025 mm 0,0 UV-I 37 W/m 11,8 C 12,1 C 12,9 km/h (3 Bft) 97,56 %
01.07.2017 07:02 13,6 C 22,2 C 89 % 1009,8 hPa 0,0 l/m 8,8 km/h (2 Bft) SW 229 0 min 0,000 mm 0,0 UV-I 42 W/m 11,8 C 12,2 C 16,1 km/h (3 Bft) 98,00 %
01.07.2017 07:04 13,6 C 22,2 C 89 % 1009,9 hPa 0,0 l/m 8,4 km/h (2 Bft) SW 214 0 min 0,000 mm 0,0 UV-I 48 W/m 11,8 C 12,4 C 14,5 km/h (3 Bft) 97,87 %
01.07.2017 07:06 13,6 C 22,2 C 89 % 1009,9 hPa 0,0 l/m 9,8 km/h (2 Bft) S-SW 201 0 min 0,000 mm 0,0 UV-I 53 W/m 11,8 C 11,7 C 14,5 km/h (3 Bft) 98,11 %
01.07.2017 07:08 13,6 C 22,2 C 89 % 1009,9 hPa 0,0 l/m 9,7 km/h (2 Bft) S-SW 211 0 min 0,000 mm 0,0 UV-I 56 W/m 11,8 C 11,7 C 16,1 km/h (3 Bft) 100,00 %
01.07.2017 07:10 13,6 C 22,2 C 89 % 1010,0 hPa 0,0 l/m 10,6 km/h (2 Bft) SW 236 0 min 0,000 mm 0,0 UV-I 58 W/m 11,8 C 11,3 C 14,5 km/h (3 Bft) 98,00 %
01.07.2017 07:12 13,7 C 22,2 C 89 % 1010,0 hPa 0,0 l/m 9,8 km/h (2 Bft) S-SW 206 0 min 0,000 mm 0,0 UV-I 60 W/m 11,9 C 11,8 C 14,5 km/h (3 Bft) 94,87 %
01.07.2017 07:14 13,7 C 22,2 C 89 % 1010,1 hPa 0,0 l/m 8,5 km/h (2 Bft) SW 221 0 min 0,000 mm 0,0 UV-I 62 W/m 11,9 C 12,5 C 14,5 km/h (3 Bft) 96,36 %
01.07.2017 07:16 13,7 C 22,2 C 89 % 1010,1 hPa 0,0 l/m 10,4 km/h (2 Bft) S-SW 192 0 min 0,000 mm 0,0 UV-I 63 W/m 11,9 C 11,5 C 16,1 km/h (3 Bft) 100,00 %
01.07.2017 07:18 13,8 C 22,2 C 88 % 1010,1 hPa 0,0 l/m 8,9 km/h (2 Bft) S-SW 213 0 min 0,000 mm 0,0 UV-I 64 W/m 11,8 C 12,3 C 12,9 km/h (3 Bft) 100,00 %
01.07.2017 07:20 13,8 C 22,2 C 88 % 1010,1 hPa 0,0 l/m 9,2 km/h (2 Bft) S-SW 209 0 min 0,000 mm 0,0 UV-I 63 W/m 11,8 C 12,2 C 14,5 km/h (3 Bft) 94,00 %
01.07.2017 07:22 13,8 C 22,2 C 88 % 1010,1 hPa 0,0 l/m 11,8 km/h (2 Bft) S-SW 210 0 min 0,000 mm 0,0 UV-I 67 W/m 11,8 C 11,0 C 17,7 km/h (3 Bft) 98,11 %
01.07.2017 07:24 13,9 C 22,2 C 88 % 1010,1 hPa 0,0 l/m 9,4 km/h (2 Bft) S-SW 209 0 min 0,000 mm 0,0 UV-I 72 W/m 11,9 C 12,2 C 14,5 km/h (3 Bft) 97,73 %
01.07.2017 07:26 13,9 C 22,2 C 87 % 1010,2 hPa 0,0 l/m 8,7 km/h (2 Bft) S-SW 196 0 min 0,000 mm 0,0 UV-I 81 W/m 11,8 C 12,6 C 12,9 km/h (3 Bft) 97,73 %
01.07.2017 07:28 13,9 C 22,2 C 87 % 1010,2 hPa 0,0 l/m 12,8 km/h (3 Bft) S-SW 213 0 min 0,000 mm 0,0 UV-I 88 W/m 11,8 C 10,7 C 20,9 km/h (4 Bft) 98,00 %
01.07.2017 07:30 14,0 C 22,2 C 87 % 1010,1 hPa 0,0 l/m 11,2 km/h (2 Bft) SW 224 0 min 0,000 mm 0,0 UV-I 93 W/m 11,9 C 11,5 C 16,1 km/h (3 Bft) 97,87 %
01.07.2017 07:32 14,1 C 22,2 C 87 % 1010,2 hPa 0,0 l/m 9,8 km/h (2 Bft) SW 220 0 min 0,000 mm 0,0 UV-I 95 W/m 12,0 C 12,2 C 17,7 km/h (3 Bft) 95,12 %
01.07.2017 07:34 14,2 C 22,2 C 86 % 1010,2 hPa 0,0 l/m 11,7 km/h (2 Bft) S-SW 197 0 min 0,000 mm 0,0 UV-I 95 W/m 11,9 C 11,5 C 19,3 km/h (3 Bft) 94,34 %
01.07.2017 07:36 14,2 C 22,2 C 86 % 1010,2 hPa 0,0 l/m 9,7 km/h (2 Bft) S-SW 211 0 min 0,000 mm 0,0 UV-I 97 W/m 11,9 C 12,4 C 20,9 km/h (4 Bft) 97,73 %
01.07.2017 07:38 14,3 C 22,2 C 85 % 1010,3 hPa 0,0 l/m 11,7 km/h (2 Bft) SW 217 0 min 0,000 mm 0,0 UV-I 98 W/m 11,8 C 11,6 C 14,5 km/h (3 Bft) 97,56 %
01.07.2017 07:40 14,3 C 22,2 C 85 % 1010,2 hPa 0,0 l/m 12,2 km/h (2 Bft) SW 223 0 min 0,000 mm 0,0 UV-I 102 W/m 11,8 C 11,4 C 17,7 km/h (3 Bft) 96,23 %
01.07.2017 07:43 14,4 C 22,2 C 84 % 1010,3 hPa 0,0 l/m 11,0 km/h (2 Bft) S 188 0 min 0,000 mm 0,0 UV-I 114 W/m 11,7 C 12,0 C 16,1 km/h (3 Bft) 94,81 %
01.07.2017 07:44 14,4 C 22,2 C 84 % 1010,3 hPa 0,0 l/m 10,8 km/h (2 Bft) S 169 0 min 0,000 mm 0,0 UV-I 126 W/m 11,7 C 12,1 C 16,1 km/h (3 Bft) 94,12 %
01.07.2017 07:46 14,5 C 22,2 C 84 % 1010,4 hPa 0,0 l/m 12,3 km/h (3 Bft) SW 215 0 min 0,000 mm 0,3 UV-I 129 W/m 11,8 C 11,6 C 17,7 km/h (3 Bft) 93,62 %
01.07.2017 07:48 14,6 C 22,2 C 84 % 1010,4 hPa 0,0 l/m 11,4 km/h (2 Bft) S-SW 212 0 min 0,000 mm 0,5 UV-I 126 W/m 11,9 C 12,1 C 17,7 km/h (3 Bft) 95,12 %
01.07.2017 07:50 14,6 C 22,2 C 84 % 1010,4 hPa 0,0 l/m 9,3 km/h (2 Bft) S-SW 195 0 min 0,000 mm 0,5 UV-I 120 W/m 11,9 C 13,0 C 14,5 km/h (3 Bft) 97,87 %
01.07.2017 07:52 14,7 C 22,2 C 84 % 1010,4 hPa 0,0 l/m 9,7 km/h (2 Bft) SW 231 0 min 0,000 mm 0,0 UV-I 118 W/m 12,0 C 12,9 C 17,7 km/h (3 Bft) 96,00 %
01.07.2017 07:54 14,7 C 22,2 C 84 % 1010,4 hPa 0,0 l/m 8,6 km/h (2 Bft) S-SW 205 0 min 0,000 mm 0,0 UV-I 116 W/m 12,0 C 13,5 C 17,7 km/h (3 Bft) 96,23 %
01.07.2017 07:56 14,7 C 22,2 C 84 % 1010,5 hPa 0,0 l/m 10,7 km/h (2 Bft) SW 233 0 min 0,000 mm 0,4 UV-I 114 W/m 12,0 C 12,5 C 16,1 km/h (3 Bft) 100,00 %
01.07.2017 07:58 14,7 C 22,2 C 83 % 1010,5 hPa 0,0 l/m 9,3 km/h (2 Bft) SW 217 0 min 0,000 mm 0,5 UV-I 121 W/m 11,8 C 13,1 C 14,5 km/h (3 Bft) 97,62 %
01.07.2017 08:00 14,8 C 22,2 C 83 % 1010,6 hPa 0,0 l/m 9,7 km/h (2 Bft) SW 234 0 min 0,051 mm 0,5 UV-I 140 W/m 11,9 C 13,0 C 16,1 km/h (3 Bft) 96,00 %
01.07.2017 08:02 14,9 C 22,2 C 83 % 1010,6 hPa 0,0 l/m 11,2 km/h (2 Bft) SW 235 0 min 0,000 mm 0,5 UV-I 159 W/m 12,0 C 12,5 C 20,9 km/h (4 Bft) 97,14 %
01.07.2017 08:04 14,9 C 22,2 C 83 % 1010,6 hPa 0,0 l/m 9,4 km/h (2 Bft) S 188 0 min 0,000 mm 0,6 UV-I 170 W/m 12,0 C 13,3 C 14,5 km/h (3 Bft) 87,27 %
01.07.2017 08:06 15,1 C 22,2 C 83 % 1010,6 hPa 0,0 l/m 10,8 km/h (2 Bft) S-SW 202 0 min 0,000 mm 0,6 UV-I 176 W/m 12,2 C 12,9 C 17,7 km/h (3 Bft) 100,00 %
01.07.2017 08:08 15,2 C 22,2 C 82 % 1010,6 hPa 0,0 l/m 10,4 km/h (2 Bft) S-SW 207 0 min 0,000 mm 0,6 UV-I 182 W/m 12,1 C 13,2 C 14,5 km/h (3 Bft) 97,56 %
01.07.2017 08:10 15,2 C 22,2 C 82 % 1010,7 hPa 0,0 l/m 11,8 km/h (2 Bft) S-SW 202 0 min 0,000 mm 0,6 UV-I 193 W/m 12,1 C 12,6 C 20,9 km/h (4 Bft) 94,34 %
01.07.2017 08:12 15,3 C 22,2 C 82 % 1010,7 hPa 0,0 l/m 14,0 km/h (3 Bft) W-SW 242 0 min 0,000 mm 0,6 UV-I 196 W/m 12,2 C 11,9 C 17,7 km/h (3 Bft) 95,45 %
01.07.2017 08:14 15,4 C 22,2 C 82 % 1010,7 hPa 0,0 l/m 10,3 km/h (2 Bft) SW 227 0 min 0,000 mm 0,6 UV-I 188 W/m 12,3 C 13,4 C 17,7 km/h (3 Bft) 97,73 %
01.07.2017 08:16 15,4 C 22,2 C 82 % 1010,7 hPa 0,0 l/m 12,4 km/h (3 Bft) SW 234 0 min 0,000 mm 0,6 UV-I 178 W/m 12,3 C 12,6 C 17,7 km/h (3 Bft) 94,00 %
01.07.2017 08:18 15,5 C 22,2 C 82 % 1010,8 hPa 0,0 l/m 8,6 km/h (2 Bft) W-SW 246 0 min 0,000 mm 0,5 UV-I 165 W/m 12,4 C 14,3 C 16,1 km/h (3 Bft) 97,73 %
01.07.2017 08:20 15,5 C 22,2 C 81 % 1010,8 hPa 0,0 l/m 11,8 km/h (2 Bft) W-SW 257 0 min 0,000 mm 0,5 UV-I 155 W/m 12,3 C 12,9 C 17,7 km/h (3 Bft) 97,56 %
01.07.2017 08:22 15,6 C 22,2 C 81 % 1010,8 hPa 0,0 l/m 8,5 km/h (2 Bft) SW 231 0 min 0,000 mm 0,2 UV-I 138 W/m 12,3 C 14,5 C 14,5 km/h (3 Bft) 95,12 %
01.07.2017 08:24 15,6 C 22,2 C 81 % 1010,8 hPa 0,0 l/m 10,5 km/h (2 Bft) W-SW 250 0 min 0,000 mm 0,0 UV-I 121 W/m 12,3 C 13,6 C 16,1 km/h (3 Bft) 96,92 %
01.07.2017 08:26 15,6 C 22,2 C 80 % 1010,8 hPa 0,0 l/m 9,6 km/h (2 Bft) SW 227 0 min 0,000 mm 0,0 UV-I 118 W/m 12,2 C 14,0 C 14,5 km/h (3 Bft) 95,45 %
01.07.2017 08:28 15,6 C 22,2 C 81 % 1010,8 hPa 0,0 l/m 12,3 km/h (3 Bft) W-SW 237 0 min 0,000 mm 0,0 UV-I 127 W/m 12,3 C 12,8 C 19,3 km/h (3 Bft) 96,00 %
01.07.2017 08:30 15,6 C 22,2 C 80 % 1010,8 hPa 0,0 l/m 11,8 km/h (2 Bft) SW 225 0 min 0,000 mm 0,2 UV-I 137 W/m 12,2 C 13,0 C 17,7 km/h (3 Bft) 95,12 %
01.07.2017 08:32 15,6 C 22,2 C 81 % 1010,8 hPa 0,0 l/m 9,4 km/h (2 Bft) SW 229 0 min 0,000 mm 0,4 UV-I 153 W/m 12,3 C 14,1 C 16,1 km/h (3 Bft) 96,23 %
01.07.2017 08:34 15,7 C 22,2 C 80 % 1010,9 hPa 0,0 l/m 9,4 km/h (2 Bft) SW 226 0 min 0,000 mm 0,5 UV-I 155 W/m 12,3 C 14,2 C 12,9 km/h (3 Bft) 95,65 %
01.07.2017 08:36 15,7 C 22,2 C 81 % 1010,9 hPa 0,0 l/m 7,9 km/h (2 Bft) W-SW 241 0 min 0,000 mm 0,5 UV-I 153 W/m 12,4 C 14,9 C 14,5 km/h (3 Bft) 97,44 %
01.07.2017 08:38 15,7 C 22,2 C 80 % 1010,9 hPa 0,0 l/m 11,0 km/h (2 Bft) SW 234 0 min 0,000 mm 0,6 UV-I 154 W/m 12,3 C 13,5 C 17,7 km/h (3 Bft) 96,23 %
01.07.2017 08:40 15,8 C 22,2 C 80 % 1010,9 hPa 0,0 l/m 9,4 km/h (2 Bft) W-SW 242 0 min 0,000 mm 0,6 UV-I 156 W/m 12,4 C 14,3 C 16,1 km/h (3 Bft) 97,73 %
01.07.2017 08:42 15,8 C 22,2 C 81 % 1010,9 hPa 0,0 l/m 7,1 km/h (2 Bft) SW 222 0 min 0,000 mm 0,6 UV-I 159 W/m 12,5 C 15,4 C 9,7 km/h (2 Bft) 95,74 %
01.07.2017 08:44 15,8 C 22,2 C 81 % 1010,9 hPa 0,0 l/m 7,9 km/h (2 Bft) W 262 0 min 0,000 mm 0,6 UV-I 164 W/m 12,5 C 15,0 C 14,5 km/h (3 Bft) 97,62 %
01.07.2017 08:46 15,9 C 22,2 C 80 % 1010,9 hPa 0,0 l/m 10,3 km/h (2 Bft) W-SW 244 0 min 0,000 mm 0,7 UV-I 175 W/m 12,5 C 14,0 C 16,1 km/h (3 Bft) 96,00 %
01.07.2017 08:48 15,9 C 22,2 C 80 % 1010,9 hPa 0,0 l/m 9,2 km/h (2 Bft) SW 225 0 min 0,000 mm 0,8 UV-I 191 W/m 12,5 C 14,5 C 14,5 km/h (3 Bft) 95,74 %
01.07.2017 08:50 15,9 C 22,2 C 80 % 1010,9 hPa 0,0 l/m 6,2 km/h (2 Bft) SW 227 0 min 0,000 mm 0,8 UV-I 204 W/m 12,5 C 15,9 C 9,7 km/h (2 Bft) 98,11 %
01.07.2017 08:52 16,1 C 22,2 C 80 % 1010,9 hPa 0,0 l/m 7,1 km/h (2 Bft) SW 230 0 min 0,000 mm 0,9 UV-I 214 W/m 12,6 C 15,7 C 11,3 km/h (2 Bft) 88,57 %
01.07.2017 08:54 16,1 C 22,2 C 80 % 1010,9 hPa 0,0 l/m 7,8 km/h (2 Bft) W-SW 250 0 min 0,000 mm 1,0 UV-I 222 W/m 12,6 C 15,4 C 12,9 km/h (3 Bft) 98,21 %
01.07.2017 08:56 16,1 C 22,2 C 80 % 1010,9 hPa 0,0 l/m 9,4 km/h (2 Bft) SW 234 0 min 0,000 mm 1,1 UV-I 245 W/m 12,6 C 14,6 C 14,5 km/h (3 Bft) 95,12 %
01.07.2017 08:58 16,1 C 22,2 C 79 % 1010,9 hPa 0,0 l/m 8,9 km/h (2 Bft) S-SW 202 0 min 0,000 mm 1,1 UV-I 270 W/m 12,5 C 14,8 C 14,5 km/h (3 Bft) 95,74 %
01.07.2017 09:00 16,2 C 22,2 C 80 % 1011,0 hPa 0,0 l/m 8,3 km/h (2 Bft) SW 215 0 min 0,127 mm 1,2 UV-I 288 W/m 12,7 C 15,2 C 14,5 km/h (3 Bft) 96,23 %
01.07.2017 09:02 16,3 C 22,2 C 80 % 1011,0 hPa 0,0 l/m 7,8 km/h (2 Bft) SW 216 0 min 0,000 mm 1,3 UV-I 309 W/m 12,8 C 15,6 C 12,9 km/h (3 Bft) 97,87 %
01.07.2017 09:04 16,4 C 22,2 C 80 % 1010,9 hPa 0,0 l/m 5,9 km/h (2 Bft) W-SW 240 2 min 0,000 mm 1,3 UV-I 324 W/m 12,9 C 16,4 C 9,7 km/h (2 Bft) 97,87 %
01.07.2017 09:06 16,5 C 22,2 C 80 % 1011,0 hPa 0,0 l/m 7,9 km/h (2 Bft) SW 236 0 min 0,000 mm 1,3 UV-I 310 W/m 13,0 C 15,7 C 11,3 km/h (2 Bft) 97,56 %
01.07.2017 09:08 16,6 C 22,2 C 79 % 1010,9 hPa 0,0 l/m 6,8 km/h (2 Bft) W-SW 254 0 min 0,000 mm 1,2 UV-I 284 W/m 12,9 C 16,4 C 14,5 km/h (3 Bft) 98,11 %
01.07.2017 09:10 16,6 C 22,2 C 77 % 1010,9 hPa 0,0 l/m 7,4 km/h (2 Bft) S-SW 205 0 min 0,000 mm 1,2 UV-I 263 W/m 12,5 C 16,1 C 9,7 km/h (2 Bft) 95,12 %
01.07.2017 09:12 16,6 C 22,2 C 78 % 1011,0 hPa 0,0 l/m 7,0 km/h (2 Bft) W 266 0 min 0,000 mm 1,2 UV-I 249 W/m 12,7 C 16,3 C 14,5 km/h (3 Bft) 98,00 %
01.07.2017 09:14 16,6 C 22,2 C 78 % 1010,9 hPa 0,0 l/m 10,1 km/h (2 Bft) W 273 0 min 0,000 mm 1,3 UV-I 241 W/m 12,7 C 14,8 C 14,5 km/h (3 Bft) 95,83 %
01.07.2017 09:16 16,6 C 22,2 C 78 % 1010,9 hPa 0,0 l/m 11,3 km/h (2 Bft) S-SW 213 0 min 0,000 mm 1,3 UV-I 258 W/m 12,7 C 14,4 C 17,7 km/h (3 Bft) 92,68 %
01.07.2017 09:18 16,7 C 22,2 C 79 % 1010,9 hPa 0,0 l/m 7,2 km/h (2 Bft) W-SW 240 0 min 0,000 mm 1,4 UV-I 283 W/m 13,0 C 16,3 C 12,9 km/h (3 Bft) 98,00 %
01.07.2017 09:20 16,8 C 22,2 C 80 % 1011,0 hPa 0,0 l/m 6,8 km/h (2 Bft) W-SW 240 0 min 0,000 mm 1,5 UV-I 321 W/m 13,3 C 16,6 C 11,3 km/h (2 Bft) 94,00 %
01.07.2017 09:23 17,1 C 22,2 C 77 % 1010,9 hPa 0,0 l/m 5,5 km/h (1 Bft) SW 236 3 min 0,000 mm 1,6 UV-I 346 W/m 13,0 C 17,1 C 9,7 km/h (2 Bft) 96,43 %
01.07.2017 09:24 17,2 C 22,2 C 77 % 1010,9 hPa 0,0 l/m 6,8 km/h (2 Bft) SW 219 1 min 0,000 mm 1,7 UV-I 380 W/m 13,1 C 17,0 C 11,3 km/h (2 Bft) 100,00 %
01.07.2017 09:26 17,3 C 22,2 C 77 % 1010,9 hPa 0,0 l/m 6,5 km/h (2 Bft) SW 215 2 min 0,000 mm 1,7 UV-I 409 W/m 13,2 C 17,3 C 9,7 km/h (2 Bft) 91,07 %
01.07.2017 09:28 17,4 C 22,2 C 76 % 1010,8 hPa 0,0 l/m 8,1 km/h (2 Bft) SW 232 2 min 0,000 mm 1,7 UV-I 416 W/m 13,1 C 16,6 C 11,3 km/h (2 Bft) 98,00 %
01.07.2017 09:30 17,6 C 22,2 C 76 % 1010,8 hPa 0,0 l/m 9,3 km/h (2 Bft) SW 233 2 min 0,000 mm 1,6 UV-I 384 W/m 13,3 C 16,3 C 16,1 km/h (3 Bft) 96,00 %
01.07.2017 09:32 17,6 C 22,2 C 75 % 1010,8 hPa 0,0 l/m 11,9 km/h (2 Bft) W 273 0 min 0,000 mm 1,5 UV-I 337 W/m 13,1 C 15,3 C 19,3 km/h (3 Bft) 97,56 %
01.07.2017 09:34 17,6 C 22,2 C 74 % 1010,8 hPa 0,0 l/m 9,1 km/h (2 Bft) W-SW 246 0 min 0,000 mm 1,5 UV-I 339 W/m 12,9 C 16,4 C 16,1 km/h (3 Bft) 96,23 %
01.07.2017 09:36 17,7 C 22,2 C 74 % 1010,8 hPa 0,0 l/m 11,5 km/h (2 Bft) W-SW 248 2 min 0,000 mm 1,6 UV-I 391 W/m 13,0 C 15,6 C 19,3 km/h (3 Bft) 97,73 %
01.07.2017 09:38 17,7 C 22,2 C 72 % 1010,8 hPa 0,0 l/m 14,1 km/h (3 Bft) W-SW 258 0 min 0,000 mm 1,5 UV-I 345 W/m 12,6 C 14,7 C 22,5 km/h (4 Bft) 95,45 %
01.07.2017 09:40 17,7 C 22,2 C 70 % 1010,9 hPa 0,0 l/m 18,9 km/h (3 Bft) W 266 0 min 0,000 mm 1,3 UV-I 292 W/m 12,2 C 13,5 C 29,0 km/h (5 Bft) 94,74 %
01.07.2017 09:42 17,6 C 22,2 C 71 % 1010,9 hPa 0,0 l/m 16,5 km/h (3 Bft) W-SW 255 0 min 0,000 mm 1,2 UV-I 270 W/m 12,3 C 13,9 C 22,5 km/h (4 Bft) 98,00 %
01.07.2017 09:44 17,6 C 22,2 C 71 % 1010,9 hPa 0,0 l/m 9,8 km/h (2 Bft) W-SW 254 0 min 0,000 mm 1,2 UV-I 265 W/m 12,3 C 16,1 C 20,9 km/h (4 Bft) 94,34 %
01.07.2017 09:46 17,5 C 22,2 C 70 % 1010,9 hPa 0,0 l/m 16,4 km/h (3 Bft) W-SW 246 0 min 0,000 mm 1,3 UV-I 273 W/m 12,0 C 13,8 C 22,5 km/h (4 Bft) 95,74 %
01.07.2017 09:48 17,5 C 22,2 C 70 % 1010,9 hPa 0,0 l/m 14,8 km/h (3 Bft) W-SW 242 0 min 0,000 mm 1,4 UV-I 289 W/m 12,0 C 14,3 C 22,5 km/h (4 Bft) 97,56 %
01.07.2017 09:50 17,5 C 22,2 C 70 % 1010,9 hPa 0,0 l/m 15,3 km/h (3 Bft) SW 229 0 min 0,000 mm 1,5 UV-I 319 W/m 12,0 C 14,1 C 19,3 km/h (3 Bft) 95,56 %
01.07.2017 09:52 17,5 C 22,2 C 70 % 1010,9 hPa 0,0 l/m 15,4 km/h (3 Bft) S-SW 211 0 min 0,000 mm 1,5 UV-I 313 W/m 12,0 C 14,1 C 22,5 km/h (4 Bft) 96,55 %
01.07.2017 09:54 17,5 C 22,2 C 70 % 1011,0 hPa 0,0 l/m 15,6 km/h (3 Bft) W-SW 251 0 min 0,000 mm 1,3 UV-I 259 W/m 12,0 C 14,1 C 22,5 km/h (4 Bft) 94,44 %
01.07.2017 09:56 17,5 C 22,2 C 70 % 1010,9 hPa 0,0 l/m 15,6 km/h (3 Bft) W 272 0 min 0,000 mm 1,3 UV-I 259 W/m 12,0 C 14,1 C 20,9 km/h (4 Bft) 96,00 %
01.07.2017 09:58 17,4 C 22,2 C 70 % 1010,9 hPa 0,0 l/m 15,2 km/h (3 Bft) W-SW 254 0 min 0,000 mm 1,4 UV-I 277 W/m 11,9 C 14,0 C 19,3 km/h (3 Bft) 97,56 %
01.07.2017 10:00 17,4 C 22,2 C 70 % 1011,0 hPa 0,0 l/m 15,0 km/h (3 Bft) W-SW 250 0 min 0,000 mm 1,5 UV-I 282 W/m 11,9 C 14,1 C 22,5 km/h (4 Bft) 98,31 %
01.07.2017 10:02 17,4 C 22,2 C 71 % 1011,0 hPa 0,0 l/m 11,2 km/h (2 Bft) W-NW 285 0 min 0,203 mm 1,6 UV-I 283 W/m 12,1 C 15,3 C 19,3 km/h (3 Bft) 89,47 %
01.07.2017 10:04 17,6 C 22,2 C 71 % 1011,0 hPa 0,0 l/m 10,9 km/h (2 Bft) W 265 0 min 0,000 mm 1,9 UV-I 337 W/m 12,3 C 15,7 C 19,3 km/h (3 Bft) 98,11 %
01.07.2017 10:06 17,7 C 22,2 C 70 % 1011,0 hPa 0,0 l/m 14,4 km/h (3 Bft) W 265 2 min 0,000 mm 2,3 UV-I 408 W/m 12,2 C 14,6 C 20,9 km/h (4 Bft) 96,00 %
01.07.2017 10:08 17,8 C 22,2 C 70 % 1011,1 hPa 0,0 l/m 10,9 km/h (2 Bft) SW 225 2 min 0,000 mm 2,7 UV-I 418 W/m 12,3 C 15,9 C 20,9 km/h (4 Bft) 97,73 %
01.07.2017 10:10 18,1 C 22,2 C 70 % 1011,2 hPa 0,0 l/m 11,8 km/h (2 Bft) S-SW 195 2 min 0,000 mm 2,9 UV-I 479 W/m 12,5 C 15,9 C 20,9 km/h (4 Bft) 92,00 %
01.07.2017 10:12 18,2 C 22,2 C 68 % 1011,0 hPa 0,0 l/m 13,6 km/h (3 Bft) W-SW 254 2 min 0,000 mm 2,3 UV-I 434 W/m 12,2 C 15,5 C 20,9 km/h (4 Bft) 97,14 %
01.07.2017 10:14 18,2 C 22,2 C 67 % 1011,0 hPa 0,0 l/m 13,2 km/h (3 Bft) W-SW 240 0 min 0,000 mm 2,3 UV-I 389 W/m 12,0 C 15,6 C 22,5 km/h (4 Bft) 94,00 %
01.07.2017 10:16 18,3 C 22,2 C 67 % 1011,0 hPa 0,0 l/m 16,8 km/h (3 Bft) SW 236 2 min 0,000 mm 2,4 UV-I 410 W/m 12,1 C 14,7 C 27,4 km/h (4 Bft) 95,74 %
01.07.2017 10:18 18,3 C 22,2 C 68 % 1011,0 hPa 0,0 l/m 15,4 km/h (3 Bft) SW 224 2 min 0,000 mm 2,7 UV-I 503 W/m 12,3 C 15,1 C 25,7 km/h (4 Bft) 95,45 %
01.07.2017 10:20 18,3 C 22,2 C 66 % 1010,9 hPa 0,0 l/m 17,5 km/h (3 Bft) W-SW 250 2 min 0,000 mm 2,8 UV-I 506 W/m 11,8 C 14,6 C 24,1 km/h (4 Bft) 98,11 %
01.07.2017 10:22 18,4 C 22,2 C 67 % 1010,9 hPa 0,0 l/m 10,2 km/h (2 Bft) W 268 2 min 0,000 mm 2,5 UV-I 434 W/m 12,2 C 16,8 C 19,3 km/h (3 Bft) 97,56 %
01.07.2017 10:24 18,4 C 22,2 C 65 % 1011,0 hPa 0,0 l/m 19,5 km/h (3 Bft) W 263 0 min 0,000 mm 2,3 UV-I 387 W/m 11,7 C 14,2 C 33,8 km/h (5 Bft) 98,00 %
01.07.2017 10:26 18,4 C 22,2 C 65 % 1010,9 hPa 0,0 l/m 13,3 km/h (3 Bft) W-NW 286 0 min 0,000 mm 2,3 UV-I 390 W/m 11,7 C 15,8 C 20,9 km/h (4 Bft) 96,23 %
01.07.2017 10:28 18,4 C 22,2 C 65 % 1011,0 hPa 0,0 l/m 10,9 km/h (2 Bft) W-SW 244 2 min 0,000 mm 2,5 UV-I 421 W/m 11,7 C 16,6 C 20,9 km/h (4 Bft) 95,74 %
01.07.2017 10:30 18,4 C 22,2 C 65 % 1010,9 hPa 0,0 l/m 11,8 km/h (2 Bft) W 263 0 min 0,000 mm 2,3 UV-I 369 W/m 11,7 C 16,3 C 17,7 km/h (3 Bft) 93,18 %
01.07.2017 10:32 18,4 C 22,2 C 67 % 1010,9 hPa 0,0 l/m 9,4 km/h (2 Bft) W-SW 257 0 min 0,000 mm 2,3 UV-I 304 W/m 12,2 C 17,1 C 19,3 km/h (3 Bft) 100,00 %
01.07.2017 10:34 18,5 C 22,2 C 66 % 1011,0 hPa 0,0 l/m 13,8 km/h (3 Bft) W-SW 244 0 min 0,000 mm 2,4 UV-I 301 W/m 12,0 C 15,8 C 22,5 km/h (4 Bft) 95,16 %
01.07.2017 10:36 18,7 C 22,8 C 66 % 1011,0 hPa 0,0 l/m 15,0 km/h (3 Bft) S-SW 209 2 min 0,000 mm 3,7 UV-I 495 W/m 12,2 C 15,7 C 27,4 km/h (4 Bft) 96,23 %
01.07.2017 10:38 18,8 C 22,8 C 65 % 1011,0 hPa 0,0 l/m 19,8 km/h (3 Bft) W 279 2 min 0,000 mm 4,1 UV-I 718 W/m 12,1 C 14,7 C 30,6 km/h (5 Bft) 97,56 %
01.07.2017 10:40 19,2 C 22,8 C 64 % 1011,0 hPa 0,0 l/m 15,4 km/h (3 Bft) W-SW 242 2 min 0,000 mm 4,6 UV-I 961 W/m 12,2 C 16,2 C 25,7 km/h (4 Bft) 96,00 %
01.07.2017 10:42 19,5 C 22,8 C 63 % 1010,9 hPa 0,0 l/m 17,5 km/h (3 Bft) W-SW 256 2 min 0,000 mm 4,7 UV-I 948 W/m 12,3 C 16,1 C 27,4 km/h (4 Bft) 95,74 %
01.07.2017 10:44 19,7 C 22,8 C 61 % 1010,9 hPa 0,0 l/m 15,2 km/h (3 Bft) W-SW 247 2 min 0,000 mm 4,8 UV-I 997 W/m 12,0 C 16,8 C 19,3 km/h (3 Bft) 100,00 %
01.07.2017 10:46 19,9 C 22,8 C 59 % 1010,9 hPa 0,0 l/m 12,4 km/h (3 Bft) W-SW 240 2 min 0,000 mm 4,9 UV-I 1052 W/m 11,6 C 17,8 C 20,9 km/h (4 Bft) 100,00 %
01.07.2017 10:48 20,0 C 22,8 C 59 % 1010,8 hPa 0,0 l/m 14,7 km/h (3 Bft) W-SW 254 2 min 0,000 mm 4,9 UV-I 1057 W/m 11,7 C 17,3 C 24,1 km/h (4 Bft) 96,00 %
01.07.2017 10:50 20,0 C 22,8 C 59 % 1010,7 hPa 0,0 l/m 11,1 km/h (2 Bft) W-NW 291 2 min 0,000 mm 3,8 UV-I 1069 W/m 11,7 C 18,3 C 20,9 km/h (4 Bft) 100,00 %
01.07.2017 10:52 20,2 C 22,2 C 59 % 1010,8 hPa 0,0 l/m 15,4 km/h (3 Bft) SW 219 2 min 0,000 mm 3,8 UV-I 823 W/m 11,9 C 17,4 C 25,7 km/h (4 Bft) 97,56 %
01.07.2017 10:54 20,2 C 22,8 C 58 % 1010,8 hPa 0,0 l/m 16,4 km/h (3 Bft) S-SW 194 2 min 0,000 mm 3,4 UV-I 826 W/m 11,7 C 17,2 C 24,1 km/h (4 Bft) 98,11 %
01.07.2017 10:56 20,2 C 22,2 C 58 % 1010,8 hPa 0,0 l/m 15,9 km/h (3 Bft) W-SW 238 2 min 0,000 mm 4,7 UV-I 1104 W/m 11,7 C 17,3 C 25,7 km/h (4 Bft) 100,00 %
01.07.2017 10:58 20,3 C 22,8 C 59 % 1010,7 hPa 0,0 l/m 17,5 km/h (3 Bft) W-SW 256 2 min 0,000 mm 5,0 UV-I 1104 W/m 12,0 C 17,1 C 22,5 km/h (4 Bft) 98,31 %
01.07.2017 11:00 20,3 C 22,8 C 57 % 1010,7 hPa 0,0 l/m 16,1 km/h (3 Bft) W-SW 245 2 min 0,407 mm 4,9 UV-I 835 W/m 11,5 C 17,4 C 27,4 km/h (4 Bft) 97,37 %
01.07.2017 11:02 20,4 C 22,8 C 58 % 1010,8 hPa 0,0 l/m 16,4 km/h (3 Bft) W 279 2 min 0,000 mm 3,6 UV-I 838 W/m 11,9 C 17,4 C 24,1 km/h (4 Bft) 97,62 %
01.07.2017 11:04 20,4 C 22,8 C 57 % 1010,8 hPa 0,0 l/m 19,7 km/h (3 Bft) SW 214 2 min 0,000 mm 4,1 UV-I 841 W/m 11,6 C 16,8 C 30,6 km/h (5 Bft) 100,00 %
01.07.2017 11:06 20,4 C 22,8 C 56 % 1010,8 hPa 0,0 l/m 20,0 km/h (4 Bft) S-SW 198 2 min 0,000 mm 4,3 UV-I 877 W/m 11,3 C 16,7 C 29,0 km/h (5 Bft) 98,11 %
01.07.2017 11:08 20,4 C 22,8 C 56 % 1010,7 hPa 0,0 l/m 22,1 km/h (4 Bft) SW 236 2 min 0,000 mm 4,2 UV-I 1015 W/m 11,3 C 16,4 C 30,6 km/h (5 Bft) 97,44 %
01.07.2017 11:10 20,6 C 22,8 C 55 % 1010,7 hPa 0,0 l/m 15,2 km/h (3 Bft) SW 234 2 min 0,000 mm 5,3 UV-I 849 W/m 11,2 C 17,9 C 27,4 km/h (4 Bft) 98,18 %
01.07.2017 11:12 20,7 C 22,8 C 56 % 1010,7 hPa 0,0 l/m 16,2 km/h (3 Bft) W-SW 238 2 min 0,000 mm 4,5 UV-I 917 W/m 11,6 C 17,8 C 29,0 km/h (5 Bft) 97,62 %
01.07.2017 11:14 20,6 C 22,8 C 55 % 1010,7 hPa 0,0 l/m 20,3 km/h (4 Bft) SW 215 0 min 0,000 mm 2,8 UV-I 410 W/m 11,2 C 16,9 C 30,6 km/h (5 Bft) 100,00 %
01.07.2017 11:16 20,3 C 22,8 C 55 % 1010,7 hPa 0,0 l/m 17,6 km/h (3 Bft) W-SW 251 0 min 0,000 mm 2,5 UV-I 386 W/m 11,0 C 17,1 C 30,6 km/h (5 Bft) 96,00 %
01.07.2017 11:18 20,1 C 22,8 C 55 % 1010,8 hPa 0,0 l/m 19,5 km/h (3 Bft) W-SW 239 0 min 0,000 mm 2,3 UV-I 361 W/m 10,8 C 16,4 C 29,0 km/h (5 Bft) 100,00 %
01.07.2017 11:20 19,9 C 22,8 C 57 % 1010,8 hPa 0,0 l/m 15,8 km/h (3 Bft) S-SW 201 0 min 0,000 mm 2,3 UV-I 359 W/m 11,1 C 16,9 C 24,1 km/h (4 Bft) 98,11 %
01.07.2017 11:22 19,8 C 22,8 C 57 % 1010,8 hPa 0,0 l/m 23,3 km/h (4 Bft) SW 225 0 min 0,000 mm 2,5 UV-I 376 W/m 11,0 C 15,4 C 30,6 km/h (5 Bft) 97,56 %
01.07.2017 11:24 19,7 C 22,8 C 58 % 1010,8 hPa 0,0 l/m 19,5 km/h (3 Bft) S-SW 208 0 min 0,000 mm 2,8 UV-I 444 W/m 11,2 C 15,9 C 27,4 km/h (4 Bft) 100,00 %
01.07.2017 11:25 19,6 C 22,8 C 59 % 1010,8 hPa 0,0 l/m 19,3 km/h (3 Bft) SW 225 0 min 0,000 mm 2,7 UV-I 424 W/m 11,4 C 15,8 C 30,6 km/h (5 Bft) 92,98 %
01.07.2017 11:26 19,7 C 22,8 C 59 % 1010,8 hPa 0,0 l/m 16,5 km/h (3 Bft) W 259 1 min 0,000 mm 2,9 UV-I 462 W/m 11,5 C 16,5 C 24,1 km/h (4 Bft) 97,87 %
01.07.2017 11:28 19,7 C 22,8 C 59 % 1010,8 hPa 0,0 l/m 15,8 km/h (3 Bft) SW 229 0 min 0,000 mm 2,5 UV-I 381 W/m 11,5 C 16,7 C 25,7 km/h (4 Bft) 95,74 %
01.07.2017 11:30 19,7 C 22,8 C 59 % 1010,8 hPa 0,0 l/m 16,8 km/h (3 Bft) W-NW 294 0 min 0,000 mm 3,4 UV-I 388 W/m 11,5 C 16,5 C 27,4 km/h (4 Bft) 98,04 %
01.07.2017 11:32 19,7 C 22,8 C 60 % 1010,8 hPa 0,0 l/m 13,2 km/h (3 Bft) S-SW 206 0 min 0,000 mm 3,5 UV-I 400 W/m 11,7 C 17,3 C 20,9 km/h (4 Bft) 95,24 %
01.07.2017 11:34 19,8 C 22,8 C 59 % 1010,9 hPa 0,0 l/m 16,8 km/h (3 Bft) W-SW 238 0 min 0,000 mm 3,7 UV-I 454 W/m 11,6 C 16,6 C 30,6 km/h (5 Bft) 100,00 %
01.07.2017 11:36 19,8 C 22,8 C 59 % 1010,9 hPa 0,0 l/m 16,3 km/h (3 Bft) W-SW 257 2 min 0,000 mm 4,8 UV-I 509 W/m 11,6 C 16,7 C 30,6 km/h (5 Bft) 98,21 %
01.07.2017 11:38 19,9 C 22,8 C 58 % 1010,8 hPa 0,0 l/m 15,9 km/h (3 Bft) W-SW 253 2 min 0,000 mm 4,2 UV-I 487 W/m 11,4 C 16,9 C 20,9 km/h (4 Bft) 100,00 %
01.07.2017 11:40 20,1 C 22,8 C 57 % 1010,8 hPa 0,0 l/m 20,3 km/h (4 Bft) S 190 2 min 0,000 mm 5,8 UV-I 757 W/m 11,3 C 16,3 C 29,0 km/h (5 Bft) 98,15 %
01.07.2017 11:42 20,2 C 22,8 C 57 % 1010,8 hPa 0,0 l/m 15,6 km/h (3 Bft) SW 223 2 min 0,000 mm 5,8 UV-I 928 W/m 11,4 C 17,4 C 24,1 km/h (4 Bft) 94,00 %
01.07.2017 11:44 20,3 C 22,8 C 56 % 1010,7 hPa 0,0 l/m 15,9 km/h (3 Bft) W-NW 284 2 min 0,000 mm 5,8 UV-I 940 W/m 11,2 C 17,4 C 24,1 km/h (4 Bft) 94,74 %
01.07.2017 11:46 20,5 C 22,8 C 57 % 1010,8 hPa 0,0 l/m 12,9 km/h (3 Bft) W-SW 249 2 min 0,000 mm 6,0 UV-I 990 W/m 11,7 C 18,4 C 19,3 km/h (3 Bft) 100,00 %
01.07.2017 11:48 20,6 C 22,8 C 55 % 1010,7 hPa 0,0 l/m 14,4 km/h (3 Bft) SW 228 2 min 0,000 mm 6,0 UV-I 1047 W/m 11,2 C 18,1 C 25,7 km/h (4 Bft) 100,00 %
01.07.2017 11:50 20,8 C 22,8 C 54 % 1010,7 hPa 0,0 l/m 12,3 km/h (3 Bft) W 266 2 min 0,000 mm 4,8 UV-I 987 W/m 11,1 C 18,9 C 20,9 km/h (4 Bft) 94,92 %
01.07.2017 11:52 20,7 C 22,8 C 51 % 1010,7 hPa 0,0 l/m 10,5 km/h (2 Bft) W 265 2 min 0,000 mm 2,6 UV-I 777 W/m 10,2 C 19,3 C 17,7 km/h (3 Bft) 95,45 %
01.07.2017 11:54 20,5 C 22,8 C 54 % 1010,6 hPa 0,0 l/m 12,0 km/h (2 Bft) W-SW 238 0 min 0,000 mm 1,4 UV-I 205 W/m 10,9 C 18,6 C 20,9 km/h (4 Bft) 90,24 %
01.07.2017 11:56 20,3 C 22,8 C 55 % 1010,7 hPa 0,0 l/m 16,9 km/h (3 Bft) S-SW 192 0 min 0,000 mm 1,0 UV-I 150 W/m 11,0 C 17,2 C 27,4 km/h (4 Bft) 96,23 %
01.07.2017 11:58 20,0 C 22,8 C 55 % 1010,8 hPa 0,0 l/m 14,9 km/h (3 Bft) S-SW 196 0 min 0,000 mm 0,6 UV-I 106 W/m 10,7 C 17,3 C 25,7 km/h (4 Bft) 97,87 %
01.07.2017 12:00 19,7 C 22,8 C 56 % 1010,8 hPa 0,0 l/m 15,2 km/h (3 Bft) SW 221 0 min 0,431 mm 0,3 UV-I 83 W/m 10,7 C 16,8 C 20,9 km/h (4 Bft) 86,84 %
01.07.2017 12:02 19,6 C 22,8 C 56 % 1010,8 hPa 0,0 l/m 9,5 km/h (2 Bft) S-SW 205 0 min 0,000 mm 0,2 UV-I 77 W/m 10,6 C 18,4 C 16,1 km/h (3 Bft) 96,23 %
01.07.2017 12:04 19,4 C 22,8 C 57 % 1010,8 hPa 0,0 l/m 10,7 km/h (2 Bft) SW 224 0 min 0,000 mm 0,7 UV-I 106 W/m 10,7 C 17,7 C 16,1 km/h (3 Bft) 95,24 %
01.07.2017 12:06 19,3 C 22,8 C 57 % 1010,9 hPa 0,0 l/m 13,7 km/h (3 Bft) S-SW 207 0 min 0,000 mm 1,4 UV-I 169 W/m 10,6 C 16,7 C 19,3 km/h (3 Bft) 96,15 %
01.07.2017 12:08 19,3 C 22,8 C 57 % 1010,9 hPa 0,0 l/m 15,5 km/h (3 Bft) W-SW 247 0 min 0,000 mm 2,8 UV-I 255 W/m 10,6 C 16,3 C 19,3 km/h (3 Bft) 97,44 %
01.07.2017 12:10 19,6 C 22,8 C 58 % 1010,9 hPa 0,0 l/m 11,8 km/h (2 Bft) W-SW 238 0 min 0,000 mm 4,8 UV-I 255 W/m 11,1 C 17,6 C 20,9 km/h (4 Bft) 98,11 %
01.07.2017 12:12 20,2 C 22,8 C 59 % 1010,9 hPa 0,0 l/m 8,9 km/h (2 Bft) W-SW 246 2 min 0,000 mm 5,5 UV-I 915 W/m 11,9 C 19,2 C 14,5 km/h (3 Bft) 94,74 %
01.07.2017 12:14 20,8 C 22,8 C 56 % 1010,8 hPa 0,0 l/m 11,2 km/h (2 Bft) SW 218 2 min 0,000 mm 4,2 UV-I 1093 W/m 11,7 C 19,2 C 19,3 km/h (3 Bft) 96,23 %
01.07.2017 12:16 20,9 C 22,8 C 53 % 1010,8 hPa 0,0 l/m 14,4 km/h (3 Bft) W-SW 237 2 min 0,000 mm 5,7 UV-I 1093 W/m 11,0 C 18,5 C 29,0 km/h (5 Bft) 98,21 %
01.07.2017 12:18 20,8 C 22,8 C 51 % 1010,8 hPa 0,0 l/m 15,6 km/h (3 Bft) SW 226 0 min 0,000 mm 2,5 UV-I 339 W/m 10,3 C 18,1 C 22,5 km/h (4 Bft) 97,73 %
01.07.2017 12:20 20,6 C 22,8 C 53 % 1010,8 hPa 0,0 l/m 10,3 km/h (2 Bft) W-NW 292 0 min 0,000 mm 1,8 UV-I 204 W/m 10,7 C 19,2 C 17,7 km/h (3 Bft) 94,74 %
01.07.2017 12:22 20,3 C 22,8 C 53 % 1010,9 hPa 0,0 l/m 10,4 km/h (2 Bft) W-NW 300 0 min 0,000 mm 1,2 UV-I 153 W/m 10,4 C 18,8 C 20,9 km/h (4 Bft) 98,21 %
01.07.2017 12:24 20,1 C 22,8 C 53 % 1011,0 hPa 0,0 l/m 20,4 km/h (4 Bft) W 267 0 min 0,000 mm 1,0 UV-I 129 W/m 10,2 C 16,3 C 27,4 km/h (4 Bft) 97,56 %
01.07.2017 12:26 19,9 C 22,8 C 53 % 1010,9 hPa 0,0 l/m 14,2 km/h (3 Bft) S-SW 207 0 min 0,000 mm 0,9 UV-I 135 W/m 10,0 C 17,3 C 25,7 km/h (4 Bft) 94,00 %
01.07.2017 12:28 19,8 C 22,8 C 54 % 1010,9 hPa 0,0 l/m 15,0 km/h (3 Bft) W 260 0 min 0,000 mm 0,9 UV-I 131 W/m 10,2 C 17,0 C 20,9 km/h (4 Bft) 100,00 %
01.07.2017 12:30 19,7 C 22,8 C 54 % 1010,9 hPa 0,0 l/m 14,5 km/h (3 Bft) W-SW 244 0 min 0,000 mm 1,0 UV-I 140 W/m 10,1 C 17,0 C 19,3 km/h (3 Bft) 98,00 %
01.07.2017 12:32 19,7 C 22,8 C 55 % 1010,9 hPa 0,0 l/m 12,3 km/h (3 Bft) W 261 0 min 0,000 mm 1,4 UV-I 184 W/m 10,4 C 17,6 C 19,3 km/h (3 Bft) 100,00 %
01.07.2017 12:34 19,7 C 22,8 C 55 % 1010,9 hPa 0,0 l/m 16,5 km/h (3 Bft) W-SW 254 0 min 0,000 mm 2,0 UV-I 241 W/m 10,4 C 16,5 C 25,7 km/h (4 Bft) 94,34 %
01.07.2017 12:36 19,7 C 22,8 C 55 % 1011,0 hPa 0,0 l/m 17,3 km/h (3 Bft) SW 230 0 min 0,000 mm 2,3 UV-I 281 W/m 10,4 C 16,4 C 24,1 km/h (4 Bft) 100,00 %
01.07.2017 12:38 19,7 C 22,8 C 55 % 1011,0 hPa 0,0 l/m 15,0 km/h (3 Bft) S-SW 208 0 min 0,000 mm 2,2 UV-I 275 W/m 10,4 C 16,9 C 25,7 km/h (4 Bft) 98,11 %
01.07.2017 12:40 19,8 C 22,8 C 55 % 1011,0 hPa 0,0 l/m 12,9 km/h (3 Bft) W-SW 239 0 min 0,000 mm 2,0 UV-I 246 W/m 10,5 C 17,5 C 22,5 km/h (4 Bft) 96,00 %
01.07.2017 12:42 19,8 C 22,8 C 54 % 1011,0 hPa 0,0 l/m 16,8 km/h (3 Bft) W-SW 248 0 min 0,000 mm 1,5 UV-I 196 W/m 10,2 C 16,6 C 25,7 km/h (4 Bft) 100,00 %
01.07.2017 12:44 19,8 C 22,8 C 55 % 1011,0 hPa 0,0 l/m 9,3 km/h (2 Bft) W-SW 248 0 min 0,000 mm 1,0 UV-I 143 W/m 10,5 C 18,7 C 14,5 km/h (3 Bft) 98,00 %
01.07.2017 12:46 19,7 C 22,8 C 55 % 1011,0 hPa 0,0 l/m 9,3 km/h (2 Bft) W-SW 257 0 min 0,000 mm 0,8 UV-I 112 W/m 10,4 C 18,6 C 16,1 km/h (3 Bft) 100,00 %
01.07.2017 12:48 19,7 C 22,8 C 54 % 1011,0 hPa 0,0 l/m 15,4 km/h (3 Bft) W 270 0 min 0,000 mm 0,7 UV-I 106 W/m 10,1 C 16,8 C 20,9 km/h (4 Bft) 94,87 %
01.07.2017 12:50 19,6 C 22,8 C 55 % 1011,0 hPa 0,0 l/m 9,9 km/h (2 Bft) W 279 0 min 0,000 mm 0,9 UV-I 120 W/m 10,3 C 18,2 C 16,1 km/h (3 Bft) 100,00 %
01.07.2017 12:52 19,6 C 22,8 C 55 % 1011,0 hPa 0,0 l/m 10,8 km/h (2 Bft) W-SW 253 0 min 0,000 mm 1,2 UV-I 150 W/m 10,3 C 17,9 C 17,7 km/h (3 Bft) 96,23 %
01.07.2017 12:54 19,6 C 22,8 C 55 % 1011,0 hPa 0,0 l/m 14,8 km/h (3 Bft) W 266 0 min 0,000 mm 1,6 UV-I 193 W/m 10,3 C 16,8 C 20,9 km/h (4 Bft) 97,87 %
01.07.2017 12:56 19,6 C 22,8 C 56 % 1011,0 hPa 0,0 l/m 10,3 km/h (2 Bft) W-SW 240 0 min 0,000 mm 2,0 UV-I 237 W/m 10,6 C 18,1 C 14,5 km/h (3 Bft) 95,74 %
01.07.2017 12:58 19,7 C 22,8 C 55 % 1011,0 hPa 0,0 l/m 8,9 km/h (2 Bft) W-SW 238 0 min 0,000 mm 2,4 UV-I 294 W/m 10,4 C 18,7 C 17,7 km/h (3 Bft) 96,23 %
01.07.2017 13:00 19,8 C 22,8 C 56 % 1011,0 hPa 0,0 l/m 9,7 km/h (2 Bft) SW 221 0 min 0,254 mm 2,7 UV-I 342 W/m 10,8 C 18,5 C 14,5 km/h (3 Bft) 95,12 %
01.07.2017 13:02 19,9 C 22,8 C 55 % 1011,0 hPa 0,0 l/m 12,8 km/h (3 Bft) SW 230 0 min 0,000 mm 2,8 UV-I 352 W/m 10,6 C 17,7 C 19,3 km/h (3 Bft) 100,00 %
01.07.2017 13:04 20,1 C 22,8 C 55 % 1011,0 hPa 0,0 l/m 12,8 km/h (3 Bft) W 267 0 min 0,000 mm 2,9 UV-I 363 W/m 10,8 C 17,9 C 22,5 km/h (4 Bft) 95,59 %
01.07.2017 13:06 20,2 C 22,8 C 55 % 1011,1 hPa 0,0 l/m 15,3 km/h (3 Bft) W-SW 256 0 min 0,000 mm 3,4 UV-I 403 W/m 10,9 C 17,4 C 22,5 km/h (4 Bft) 97,73 %
01.07.2017 13:08 20,3 C 22,8 C 55 % 1011,0 hPa 0,0 l/m 14,9 km/h (3 Bft) W-SW 244 0 min 0,000 mm 6,3 UV-I 452 W/m 11,0 C 17,6 C 24,1 km/h (4 Bft) 92,45 %
01.07.2017 13:10 20,5 C 22,8 C 55 % 1011,0 hPa 0,0 l/m 17,4 km/h (3 Bft) S-SW 202 2 min 0,000 mm 5,7 UV-I 672 W/m 11,1 C 17,3 C 24,1 km/h (4 Bft) 93,62 %
01.07.2017 13:12 20,9 C 22,8 C 55 % 1010,9 hPa 0,0 l/m 16,4 km/h (3 Bft) SW 219 2 min 0,000 mm 6,6 UV-I 1093 W/m 11,5 C 18,0 C 29,0 km/h (5 Bft) 97,73 %
01.07.2017 13:14 21,3 C 22,8 C 53 % 1010,9 hPa 0,0 l/m 16,0 km/h (3 Bft) S-SO 156 2 min 0,000 mm 6,9 UV-I 1156 W/m 11,3 C 18,6 C 24,1 km/h (4 Bft) 95,12 %
01.07.2017 13:16 21,7 C 22,8 C 52 % 1010,9 hPa 0,0 l/m 15,7 km/h (3 Bft) S-SO 158 2 min 0,000 mm 7,0 UV-I 1164 W/m 11,4 C 19,2 C 24,1 km/h (4 Bft) 97,73 %
01.07.2017 13:18 21,7 C 22,8 C 51 % 1010,8 hPa 0,0 l/m 15,7 km/h (3 Bft) SW 221 2 min 0,000 mm 5,6 UV-I 797 W/m 11,1 C 19,2 C 32,2 km/h (5 Bft) 94,64 %
01.07.2017 13:20 21,4 C 22,8 C 51 % 1010,9 hPa 0,0 l/m 15,2 km/h (3 Bft) W-SW 239 0 min 0,000 mm 3,6 UV-I 480 W/m 10,8 C 18,9 C 24,1 km/h (4 Bft) 96,30 %
01.07.2017 13:22 21,3 C 22,8 C 51 % 1010,9 hPa 0,0 l/m 17,2 km/h (3 Bft) SW 232 0 min 0,000 mm 3,4 UV-I 468 W/m 10,7 C 18,4 C 30,6 km/h (5 Bft) 97,01 %
01.07.2017 13:24 21,1 C 22,8 C 51 % 1010,9 hPa 0,0 l/m 17,9 km/h (3 Bft) S-SW 205 0 min 0,000 mm 3,2 UV-I 443 W/m 10,6 C 18,0 C 29,0 km/h (5 Bft) 92,59 %
01.07.2017 13:26 21,0 C 22,8 C 51 % 1010,9 hPa 0,0 l/m 18,4 km/h (3 Bft) S-SW 208 2 min 0,000 mm 3,5 UV-I 493 W/m 10,5 C 17,8 C 25,7 km/h (4 Bft) 96,92 %
01.07.2017 13:28 21,0 C 22,8 C 51 % 1010,9 hPa 0,0 l/m 16,1 km/h (3 Bft) W-SW 248 0 min 0,000 mm 3,4 UV-I 474 W/m 10,5 C 18,2 C 29,0 km/h (5 Bft) 93,62 %
01.07.2017 13:30 21,0 C 22,8 C 51 % 1010,9 hPa 0,0 l/m 19,4 km/h (3 Bft) W-SW 257 0 min 0,000 mm 3,4 UV-I 431 W/m 10,5 C 17,6 C 27,4 km/h (4 Bft) 95,45 %
01.07.2017 13:32 21,0 C 22,8 C 49 % 1010,9 hPa 0,0 l/m 23,3 km/h (4 Bft) W-SW 247 0 min 0,000 mm 4,0 UV-I 418 W/m 9,9 C 17,0 C 35,4 km/h (5 Bft) 94,34 %
01.07.2017 13:34 21,0 C 22,8 C 49 % 1010,8 hPa 0,0 l/m 22,8 km/h (4 Bft) W 259 0 min 0,000 mm 5,0 UV-I 418 W/m 9,9 C 17,1 C 32,2 km/h (5 Bft) 95,45 %
01.07.2017 13:36 21,1 C 22,8 C 49 % 1010,9 hPa 0,0 l/m 20,1 km/h (4 Bft) SW 235 0 min 0,000 mm 3,8 UV-I 426 W/m 10,0 C 17,6 C 29,0 km/h (5 Bft) 100,00 %
01.07.2017 13:38 21,1 C 22,8 C 49 % 1010,9 hPa 0,0 l/m 18,8 km/h (3 Bft) SW 220 0 min 0,000 mm 3,2 UV-I 391 W/m 10,0 C 17,8 C 29,0 km/h (5 Bft) 94,74 %
01.07.2017 13:40 21,0 C 22,8 C 50 % 1010,9 hPa 0,0 l/m 20,2 km/h (4 Bft) S 180 0 min 0,000 mm 2,9 UV-I 368 W/m 10,2 C 17,5 C 35,4 km/h (5 Bft) 94,00 %
01.07.2017 13:42 20,9 C 22,8 C 49 % 1010,9 hPa 0,0 l/m 22,0 km/h (4 Bft) S 183 0 min 0,000 mm 2,6 UV-I 357 W/m 9,8 C 17,0 C 30,6 km/h (5 Bft) 100,00 %
01.07.2017 13:44 20,8 C 22,8 C 49 % 1010,9 hPa 0,0 l/m 19,6 km/h (3 Bft) SW 235 0 min 0,000 mm 2,5 UV-I 347 W/m 9,7 C 17,3 C 27,4 km/h (4 Bft) 96,00 %
01.07.2017 13:46 20,7 C 22,8 C 49 % 1010,8 hPa 0,0 l/m 21,2 km/h (4 Bft) SW 220 0 min 0,000 mm 2,0 UV-I 279 W/m 9,6 C 16,9 C 32,2 km/h (5 Bft) 98,00 %
01.07.2017 13:48 20,6 C 22,8 C 50 % 1010,9 hPa 0,0 l/m 19,6 km/h (3 Bft) S-SW 207 0 min 0,000 mm 1,6 UV-I 220 W/m 9,8 C 17,1 C 25,7 km/h (4 Bft) 93,18 %
01.07.2017 13:50 20,6 C 22,8 C 49 % 1011,0 hPa 0,0 l/m 16,5 km/h (3 Bft) W 277 0 min 0,000 mm 1,3 UV-I 196 W/m 9,5 C 17,7 C 27,4 km/h (4 Bft) 92,68 %
01.07.2017 13:52 20,5 C 22,8 C 51 % 1011,0 hPa 0,0 l/m 12,0 km/h (2 Bft) W 266 0 min 0,000 mm 1,3 UV-I 193 W/m 10,0 C 18,6 C 22,5 km/h (4 Bft) 94,34 %
01.07.2017 13:54 20,4 C 22,8 C 50 % 1011,0 hPa 0,0 l/m 12,9 km/h (3 Bft) W 259 0 min 0,000 mm 1,3 UV-I 193 W/m 9,6 C 18,2 C 19,3 km/h (3 Bft) 95,74 %
01.07.2017 13:56 20,3 C 22,8 C 51 % 1011,0 hPa 0,0 l/m 18,8 km/h (3 Bft) W 268 0 min 0,000 mm 1,3 UV-I 197 W/m 9,8 C 16,8 C 25,7 km/h (4 Bft) 91,67 %
01.07.2017 13:58 20,2 C 22,8 C 52 % 1011,0 hPa 0,0 l/m 10,0 km/h (2 Bft) SW 232 0 min 0,000 mm 1,4 UV-I 213 W/m 10,0 C 18,9 C 16,1 km/h (3 Bft) 93,10 %
01.07.2017 14:00 20,2 C 22,8 C 52 % 1010,9 hPa 0,0 l/m 12,1 km/h (2 Bft) W-SW 258 0 min 0,407 mm 1,6 UV-I 236 W/m 10,0 C 18,2 C 16,1 km/h (3 Bft) 93,18 %
01.07.2017 14:02 20,2 C 22,8 C 52 % 1011,0 hPa 0,0 l/m 13,4 km/h (3 Bft) W 273 0 min 0,000 mm 1,9 UV-I 263 W/m 10,0 C 17,9 C 19,3 km/h (3 Bft) 98,00 %
01.07.2017 14:04 20,2 C 22,8 C 53 % 1010,9 hPa 0,0 l/m 13,5 km/h (3 Bft) W-SW 246 0 min 0,000 mm 1,9 UV-I 269 W/m 10,3 C 17,9 C 20,9 km/h (4 Bft) 95,24 %
01.07.2017 14:06 20,2 C 22,8 C 52 % 1010,9 hPa 0,0 l/m 14,6 km/h (3 Bft) W-SW 258 0 min 0,000 mm 1,9 UV-I 266 W/m 10,0 C 17,6 C 20,9 km/h (4 Bft) 96,23 %
01.07.2017 14:08 20,2 C 22,8 C 52 % 1011,0 hPa 0,0 l/m 10,2 km/h (2 Bft) W-SW 255 0 min 0,000 mm 2,1 UV-I 296 W/m 10,0 C 18,8 C 22,5 km/h (4 Bft) 98,00 %
01.07.2017 14:10 20,2 C 22,8 C 52 % 1011,0 hPa 0,0 l/m 11,2 km/h (2 Bft) W-SW 243 0 min 0,000 mm 2,2 UV-I 293 W/m 10,0 C 18,5 C 20,9 km/h (4 Bft) 92,50 %
01.07.2017 14:12 20,2 C 22,8 C 52 % 1011,0 hPa 0,0 l/m 10,3 km/h (2 Bft) W-SW 242 0 min 0,000 mm 1,9 UV-I 264 W/m 10,0 C 18,8 C 14,5 km/h (3 Bft) 94,44 %
01.07.2017 14:14 20,2 C 22,8 C 53 % 1011,0 hPa 0,0 l/m 13,5 km/h (3 Bft) W-SW 252 0 min 0,000 mm 1,7 UV-I 239 W/m 10,3 C 17,9 C 19,3 km/h (3 Bft) 95,12 %
01.07.2017 14:16 20,2 C 22,8 C 53 % 1011,0 hPa 0,0 l/m 13,4 km/h (3 Bft) W 276 0 min 0,000 mm 1,5 UV-I 210 W/m 10,3 C 17,9 C 17,7 km/h (3 Bft) 97,73 %
01.07.2017 14:18 20,1 C 22,8 C 54 % 1011,0 hPa 0,0 l/m 10,1 km/h (2 Bft) W-SW 255 0 min 0,000 mm 1,2 UV-I 184 W/m 10,5 C 18,7 C 14,5 km/h (3 Bft) 95,12 %
01.07.2017 14:20 19,9 C 22,8 C 53 % 1011,0 hPa 0,0 l/m 9,4 km/h (2 Bft) SW 235 0 min 0,000 mm 1,1 UV-I 166 W/m 10,0 C 18,7 C 17,7 km/h (3 Bft) 98,39 %
01.07.2017 14:22 19,9 C 22,8 C 54 % 1011,0 hPa 0,0 l/m 11,8 km/h (2 Bft) SW 235 0 min 0,000 mm 1,0 UV-I 159 W/m 10,3 C 18,0 C 17,7 km/h (3 Bft) 100,00 %
01.07.2017 14:24 19,8 C 22,8 C 53 % 1010,9 hPa 0,0 l/m 10,0 km/h (2 Bft) W-SW 253 0 min 0,000 mm 1,1 UV-I 170 W/m 9,9 C 18,4 C 17,7 km/h (3 Bft) 96,43 %
01.07.2017 14:26 19,8 C 22,8 C 54 % 1010,9 hPa 0,0 l/m 10,9 km/h (2 Bft) W 261 0 min 0,000 mm 1,3 UV-I 208 W/m 10,2 C 18,1 C 16,1 km/h (3 Bft) 97,56 %
01.07.2017 14:28 19,9 C 22,8 C 54 % 1010,9 hPa 0,0 l/m 6,7 km/h (2 Bft) W 265 0 min 0,000 mm 1,8 UV-I 277 W/m 10,3 C 19,8 C 12,9 km/h (3 Bft) 97,67 %
01.07.2017 14:30 19,9 C 22,8 C 54 % 1010,9 hPa 0,0 l/m 9,2 km/h (2 Bft) W 275 0 min 0,000 mm 2,3 UV-I 360 W/m 10,3 C 18,8 C 16,1 km/h (3 Bft) 100,00 %
01.07.2017 14:32 20,1 C 22,8 C 54 % 1010,9 hPa 0,0 l/m 10,9 km/h (2 Bft) W-SW 240 0 min 0,000 mm 2,8 UV-I 436 W/m 10,5 C 18,5 C 22,5 km/h (4 Bft) 100,00 %
01.07.2017 14:34 20,2 C 22,8 C 52 % 1010,9 hPa 0,0 l/m 9,9 km/h (2 Bft) W-SW 254 0 min 0,000 mm 3,1 UV-I 463 W/m 10,0 C 18,9 C 16,1 km/h (3 Bft) 100,00 %
01.07.2017 14:36 20,4 C 22,8 C 53 % 1010,8 hPa 0,0 l/m 8,3 km/h (2 Bft) W 260 0 min 0,000 mm 3,2 UV-I 438 W/m 10,5 C 19,7 C 16,1 km/h (3 Bft) 97,87 %
01.07.2017 14:38 20,5 C 22,8 C 51 % 1010,8 hPa 0,0 l/m 11,7 km/h (2 Bft) W-SW 241 0 min 0,000 mm 3,2 UV-I 396 W/m 10,0 C 18,7 C 17,7 km/h (3 Bft) 100,00 %
01.07.2017 14:40 20,5 C 22,8 C 51 % 1010,8 hPa 0,0 l/m 11,7 km/h (2 Bft) W-SW 257 0 min 0,000 mm 4,3 UV-I 364 W/m 10,0 C 18,7 C 22,5 km/h (4 Bft) 97,92 %
01.07.2017 14:42 20,8 C 22,8 C 51 % 1010,8 hPa 0,0 l/m 8,2 km/h (2 Bft) W-NW 299 2 min 0,000 mm 5,9 UV-I 852 W/m 10,3 C 20,1 C 17,7 km/h (3 Bft) 97,96 %
01.07.2017 14:44 21,2 C 22,8 C 51 % 1010,7 hPa 0,0 l/m 11,8 km/h (2 Bft) W 279 2 min 0,000 mm 6,0 UV-I 1126 W/m 10,7 C 19,5 C 19,3 km/h (3 Bft) 100,00 %
01.07.2017 14:46 21,7 C 22,8 C 49 % 1010,7 hPa 0,0 l/m 9,3 km/h (2 Bft) SW 236 2 min 0,000 mm 5,9 UV-I 1142 W/m 10,5 C 20,7 C 17,7 km/h (3 Bft) 97,37 %
01.07.2017 14:48 21,8 C 22,8 C 48 % 1010,7 hPa 0,0 l/m 13,7 km/h (3 Bft) SW 226 2 min 0,000 mm 4,4 UV-I 1144 W/m 10,3 C 19,7 C 19,3 km/h (3 Bft) 100,00 %
01.07.2017 14:50 21,8 C 22,8 C 49 % 1010,7 hPa 0,0 l/m 9,5 km/h (2 Bft) S-SW 196 2 min 0,000 mm 4,1 UV-I 1144 W/m 10,6 C 20,8 C 14,5 km/h (3 Bft) 95,45 %
01.07.2017 14:52 21,8 C 22,8 C 49 % 1010,6 hPa 0,0 l/m 11,6 km/h (2 Bft) W-SW 252 2 min 0,000 mm 4,6 UV-I 1131 W/m 10,6 C 20,2 C 19,3 km/h (3 Bft) 98,00 %
01.07.2017 14:54 21,9 C 22,8 C 49 % 1010,7 hPa 0,0 l/m 14,3 km/h (3 Bft) S-SW 202 2 min 0,000 mm 5,4 UV-I 969 W/m 10,7 C 19,7 C 20,9 km/h (4 Bft) 100,00 %
01.07.2017 14:56 22,1 C 22,8 C 48 % 1010,6 hPa 0,0 l/m 15,8 km/h (3 Bft) W-SW 249 2 min 0,000 mm 5,0 UV-I 920 W/m 10,6 C 19,6 C 22,5 km/h (4 Bft) 97,50 %
01.07.2017 14:58 22,2 C 22,8 C 50 % 1010,6 hPa 0,0 l/m 6,2 km/h (2 Bft) W-SW 240 2 min 0,000 mm 5,3 UV-I 925 W/m 11,3 C 22,2 C 14,5 km/h (3 Bft) 97,37 %
01.07.2017 15:00 22,5 C 22,8 C 47 % 1010,6 hPa 0,0 l/m 10,6 km/h (2 Bft) W-SW 254 2 min 0,381 mm 5,3 UV-I 915 W/m 10,6 C 21,2 C 17,7 km/h (3 Bft) 98,46 %
01.07.2017 15:02 22,5 C 22,8 C 47 % 1010,4 hPa 0,0 l/m 15,5 km/h (3 Bft) W-NW 293 2 min 0,000 mm 5,1 UV-I 880 W/m 10,6 C 20,2 C 24,1 km/h (4 Bft) 100,00 %
01.07.2017 15:04 22,6 C 22,8 C 48 % 1010,5 hPa 0,0 l/m 9,4 km/h (2 Bft) W-SW 245 2 min 0,000 mm 4,9 UV-I 872 W/m 11,0 C 21,7 C 19,3 km/h (3 Bft) 98,21 %
01.07.2017 15:06 22,7 C 22,8 C 48 % 1010,4 hPa 0,0 l/m 10,2 km/h (2 Bft) W-SW 252 2 min 0,000 mm 4,9 UV-I 873 W/m 11,1 C 21,6 C 19,3 km/h (3 Bft) 91,89 %
01.07.2017 15:08 22,9 C 22,8 C 46 % 1010,4 hPa 0,0 l/m 12,1 km/h (2 Bft) SW 233 2 min 0,000 mm 5,0 UV-I 861 W/m 10,7 C 21,3 C 22,5 km/h (4 Bft) 100,00 %
01.07.2017 15:10 23,1 C 22,8 C 47 % 1010,4 hPa 0,0 l/m 11,4 km/h (2 Bft) S-SW 205 2 min 0,000 mm 4,9 UV-I 853 W/m 11,2 C 21,7 C 17,7 km/h (3 Bft) 98,11 %
01.07.2017 15:12 23,3 C 22,8 C 44 % 1010,4 hPa 0,0 l/m 15,9 km/h (3 Bft) S-SW 207 2 min 0,000 mm 4,9 UV-I 876 W/m 10,4 C 21,1 C 30,6 km/h (5 Bft) 97,37 %
01.07.2017 15:14 23,3 C 22,8 C 44 % 1010,4 hPa 0,0 l/m 15,6 km/h (3 Bft) S 172 2 min 0,000 mm 4,9 UV-I 911 W/m 10,4 C 21,1 C 25,7 km/h (4 Bft) 98,11 %
01.07.2017 15:16 23,2 C 22,8 C 43 % 1010,4 hPa 0,0 l/m 8,0 km/h (2 Bft) SW 219 2 min 0,000 mm 4,4 UV-I 969 W/m 9,9 C 22,7 C 22,5 km/h (4 Bft) 97,62 %
01.07.2017 15:18 23,1 C 22,8 C 44 % 1010,4 hPa 0,0 l/m 5,5 km/h (1 Bft) S-SW 208 2 min 0,000 mm 4,9 UV-I 1026 W/m 10,2 C 23,1 C 12,9 km/h (3 Bft) 100,00 %
01.07.2017 15:20 23,4 C 22,8 C 46 % 1010,3 hPa 0,0 l/m 14,8 km/h (3 Bft) S-SW 213 2 min 0,000 mm 4,7 UV-I 1083 W/m 11,1 C 21,4 C 20,9 km/h (4 Bft) 100,00 %
01.07.2017 15:22 23,6 C 22,8 C 45 % 1010,3 hPa 0,0 l/m 13,4 km/h (3 Bft) S-SO 151 2 min 0,000 mm 4,3 UV-I 1014 W/m 11,0 C 21,9 C 22,5 km/h (4 Bft) 100,00 %
01.07.2017 15:24 23,8 C 22,8 C 44 % 1010,3 hPa 0,0 l/m 17,1 km/h (3 Bft) SW 231 2 min 0,000 mm 3,6 UV-I 1027 W/m 10,8 C 21,5 C 24,1 km/h (4 Bft) 100,00 %
01.07.2017 15:26 23,7 C 22,8 C 43 % 1010,4 hPa 0,0 l/m 14,8 km/h (3 Bft) SW 226 2 min 0,000 mm 3,4 UV-I 1058 W/m 10,4 C 21,8 C 22,5 km/h (4 Bft) 97,87 %
01.07.2017 15:28 23,5 C 22,8 C 45 % 1010,4 hPa 0,0 l/m 7,0 km/h (2 Bft) W 271 2 min 0,000 mm 2,7 UV-I 1058 W/m 10,9 C 23,3 C 16,1 km/h (3 Bft) 98,31 %
01.07.2017 15:30 23,2 C 22,8 C 44 % 1010,4 hPa 0,0 l/m 7,2 km/h (2 Bft) W-SW 248 2 min 0,000 mm 1,8 UV-I 533 W/m 10,3 C 23,0 C 16,1 km/h (3 Bft) 100,00 %
01.07.2017 15:32 22,7 C 22,8 C 45 % 1010,3 hPa 0,0 l/m 6,3 km/h (2 Bft) NW 317 0 min 0,000 mm 1,5 UV-I 214 W/m 10,1 C 22,7 C 12,9 km/h (3 Bft) 96,00 %
01.07.2017 15:34 22,3 C 22,8 C 46 % 1010,3 hPa 0,0 l/m 6,4 km/h (2 Bft) W 277 0 min 0,000 mm 1,6 UV-I 239 W/m 10,1 C 22,3 C 14,5 km/h (3 Bft) 100,00 %
01.07.2017 15:36 22,1 C 22,8 C 48 % 1010,4 hPa 0,0 l/m 6,3 km/h (2 Bft) NW 305 0 min 0,000 mm 2,6 UV-I 308 W/m 10,6 C 22,1 C 14,5 km/h (3 Bft) 98,11 %
01.07.2017 15:38 22,2 C 22,8 C 49 % 1010,3 hPa 0,0 l/m 4,4 km/h (1 Bft) W 267 0 min 0,000 mm 4,4 UV-I 352 W/m 11,0 C 22,2 C 12,9 km/h (3 Bft) 100,00 %
01.07.2017 15:40 22,6 C 22,8 C 47 % 1010,3 hPa 0,0 l/m 2,8 km/h (1 Bft) W 269 2 min 0,000 mm 4,4 UV-I 882 W/m 10,7 C 22,6 C 9,7 km/h (2 Bft) 94,74 %
01.07.2017 15:42 22,7 C 22,8 C 45 % 1010,3 hPa 0,0 l/m 9,6 km/h (2 Bft) W-SW 250 2 min 0,000 mm 4,2 UV-I 824 W/m 10,1 C 21,7 C 17,7 km/h (3 Bft) 96,23 %
01.07.2017 15:44 22,8 C 22,8 C 47 % 1010,3 hPa 0,0 l/m 5,5 km/h (1 Bft) W-NW 291 2 min 0,000 mm 4,1 UV-I 811 W/m 10,9 C 22,8 C 11,3 km/h (2 Bft) 97,56 %
01.07.2017 15:46 23,1 C 22,8 C 45 % 1010,3 hPa 0,0 l/m 5,8 km/h (2 Bft) W-SW 246 2 min 0,000 mm 4,1 UV-I 794 W/m 10,5 C 23,1 C 11,3 km/h (2 Bft) 94,00 %
01.07.2017 15:48 23,1 C 22,8 C 44 % 1010,3 hPa 0,0 l/m 7,0 km/h (2 Bft) SW 217 2 min 0,000 mm 4,0 UV-I 794 W/m 10,2 C 22,9 C 16,1 km/h (3 Bft) 98,00 %
01.07.2017 15:50 23,2 C 22,8 C 46 % 1010,3 hPa 0,0 l/m 9,1 km/h (2 Bft) W-NW 286 2 min 0,000 mm 4,0 UV-I 786 W/m 10,9 C 22,4 C 17,7 km/h (3 Bft) 95,74 %
01.07.2017 15:52 23,2 C 22,8 C 45 % 1010,3 hPa 0,0 l/m 8,6 km/h (2 Bft) W-SW 245 2 min 0,000 mm 3,9 UV-I 777 W/m 10,6 C 22,5 C 14,5 km/h (3 Bft) 94,00 %
01.07.2017 15:54 23,3 C 23,3 C 46 % 1010,2 hPa 0,0 l/m 4,5 km/h (1 Bft) SW 225 2 min 0,000 mm 3,9 UV-I 780 W/m 11,0 C 23,3 C 9,7 km/h (2 Bft) 97,37 %
01.07.2017 15:56 23,7 C 23,3 C 45 % 1010,2 hPa 0,0 l/m 4,3 km/h (1 Bft) W-SW 251 2 min 0,000 mm 3,9 UV-I 799 W/m 11,1 C 23,7 C 11,3 km/h (2 Bft) 96,00 %
01.07.2017 15:58 23,7 C 23,3 C 45 % 1010,2 hPa 0,0 l/m 14,3 km/h (3 Bft) SW 236 2 min 0,000 mm 3,8 UV-I 804 W/m 11,1 C 21,9 C 20,9 km/h (4 Bft) 97,44 %
01.07.2017 16:00 23,7 C 23,3 C 44 % 1010,2 hPa 0,0 l/m 10,3 km/h (2 Bft) W 264 2 min 0,000 mm 3,9 UV-I 799 W/m 10,7 C 22,7 C 19,3 km/h (3 Bft) 94,55 %
01.07.2017 16:02 23,7 C 23,3 C 44 % 1010,2 hPa 0,0 l/m 10,5 km/h (2 Bft) W 277 2 min 0,533 mm 3,7 UV-I 781 W/m 10,7 C 22,6 C 19,3 km/h (3 Bft) 97,78 %
01.07.2017 16:04 23,6 C 23,3 C 43 % 1010,1 hPa 0,0 l/m 9,8 km/h (2 Bft) W-NW 284 2 min 0,000 mm 3,7 UV-I 769 W/m 10,3 C 22,7 C 16,1 km/h (3 Bft) 97,87 %
01.07.2017 16:06 23,7 C 23,3 C 42 % 1010,1 hPa 0,0 l/m 8,5 km/h (2 Bft) W-SW 252 2 min 0,000 mm 3,6 UV-I 760 W/m 10,0 C 23,1 C 14,5 km/h (3 Bft) 97,87 %
01.07.2017 16:08 23,9 C 23,3 C 43 % 1010,1 hPa 0,0 l/m 8,9 km/h (2 Bft) SW 219 2 min 0,000 mm 3,6 UV-I 759 W/m 10,5 C 23,2 C 16,1 km/h (3 Bft) 97,87 %
01.07.2017 16:10 24,2 C 23,3 C 42 % 1010,1 hPa 0,0 l/m 13,4 km/h (3 Bft) S-SW 213 2 min 0,000 mm 3,6 UV-I 782 W/m 10,5 C 22,6 C 20,9 km/h (4 Bft) 98,11 %
01.07.2017 16:12 24,1 C 23,3 C 41 % 1010,1 hPa 0,0 l/m 18,0 km/h (3 Bft) W-SW 242 2 min 0,000 mm 3,1 UV-I 785 W/m 10,0 C 21,8 C 24,1 km/h (4 Bft) 94,74 %
01.07.2017 16:14 23,8 C 23,3 C 41 % 1010,1 hPa 0,0 l/m 15,7 km/h (3 Bft) SW 229 2 min 0,000 mm 2,0 UV-I 502 W/m 9,7 C 21,7 C 24,1 km/h (4 Bft) 100,00 %
01.07.2017 16:16 23,5 C 23,3 C 41 % 1010,1 hPa 0,0 l/m 17,4 km/h (3 Bft) SW 215 0 min 0,000 mm 2,1 UV-I 232 W/m 9,5 C 21,1 C 24,1 km/h (4 Bft) 97,73 %
01.07.2017 16:18 23,2 C 23,3 C 42 % 1010,1 hPa 0,0 l/m 13,8 km/h (3 Bft) W-SW 254 0 min 0,000 mm 2,0 UV-I 253 W/m 9,6 C 21,3 C 20,9 km/h (4 Bft) 98,11 %
01.07.2017 16:20 23,0 C 23,3 C 44 % 1010,2 hPa 0,0 l/m 14,5 km/h (3 Bft) W-SW 255 0 min 0,000 mm 2,7 UV-I 264 W/m 10,1 C 21,0 C 22,5 km/h (4 Bft) 100,00 %
01.07.2017 16:22 23,1 C 23,3 C 43 % 1010,1 hPa 0,0 l/m 16,8 km/h (3 Bft) W-SW 257 2 min 0,000 mm 3,2 UV-I 524 W/m 9,8 C 20,7 C 24,1 km/h (4 Bft) 97,56 %
01.07.2017 16:24 23,2 C 23,3 C 43 % 1010,1 hPa 0,0 l/m 11,7 km/h (2 Bft) W-SW 255 2 min 0,000 mm 3,3 UV-I 735 W/m 9,9 C 21,8 C 19,3 km/h (3 Bft) 100,00 %
01.07.2017 16:26 23,2 C 23,3 C 43 % 1010,1 hPa 0,0 l/m 12,9 km/h (3 Bft) W-NW 288 2 min 0,000 mm 3,1 UV-I 716 W/m 9,9 C 21,5 C 22,5 km/h (4 Bft) 96,23 %
01.07.2017 16:28 23,3 C 23,3 C 42 % 1010,1 hPa 0,0 l/m 15,8 km/h (3 Bft) S 190 2 min 0,000 mm 3,1 UV-I 695 W/m 9,7 C 21,1 C 22,5 km/h (4 Bft) 98,21 %
01.07.2017 16:30 23,4 C 23,3 C 42 % 1010,1 hPa 0,0 l/m 16,3 km/h (3 Bft) S-SW 213 2 min 0,000 mm 3,0 UV-I 703 W/m 9,7 C 21,1 C 29,0 km/h (5 Bft) 100,00 %
01.07.2017 16:32 23,2 C 23,3 C 43 % 1010,1 hPa 0,0 l/m 9,1 km/h (2 Bft) SW 215 0 min 0,000 mm 1,8 UV-I 360 W/m 9,9 C 22,4 C 16,1 km/h (3 Bft) 97,56 %
01.07.2017 16:34 23,1 C 23,3 C 43 % 1010,1 hPa 0,0 l/m 14,9 km/h (3 Bft) W 259 0 min 0,000 mm 2,2 UV-I 205 W/m 9,8 C 21,0 C 24,1 km/h (4 Bft) 100,00 %
01.07.2017 16:36 23,1 C 23,3 C 43 % 1010,1 hPa 0,0 l/m 14,0 km/h (3 Bft) W-SW 245 2 min 0,000 mm 3,0 UV-I 671 W/m 9,8 C 21,2 C 20,9 km/h (4 Bft) 96,23 %
01.07.2017 16:38 23,3 C 23,3 C 44 % 1010,0 hPa 0,0 l/m 11,9 km/h (2 Bft) W-SW 248 2 min 0,000 mm 3,0 UV-I 725 W/m 10,4 C 21,9 C 22,5 km/h (4 Bft) 100,00 %
01.07.2017 16:40 23,6 C 23,3 C 43 % 1010,0 hPa 0,0 l/m 10,6 km/h (2 Bft) W-SW 250 2 min 0,000 mm 2,8 UV-I 680 W/m 10,3 C 22,5 C 20,9 km/h (4 Bft) 97,62 %
01.07.2017 16:42 23,6 C 23,3 C 43 % 1010,0 hPa 0,0 l/m 13,6 km/h (3 Bft) W 274 2 min 0,000 mm 2,8 UV-I 660 W/m 10,3 C 21,9 C 22,5 km/h (4 Bft) 98,11 %
01.07.2017 16:44 23,8 C 23,3 C 41 % 1010,1 hPa 0,0 l/m 16,6 km/h (3 Bft) W-SW 258 2 min 0,000 mm 2,7 UV-I 655 W/m 9,7 C 21,6 C 27,4 km/h (4 Bft) 100,00 %
01.07.2017 16:46 23,7 C 23,3 C 41 % 1010,0 hPa 0,0 l/m 13,9 km/h (3 Bft) W-SW 256 2 min 0,000 mm 2,7 UV-I 657 W/m 9,7 C 21,9 C 22,5 km/h (4 Bft) 96,23 %
01.07.2017 16:48 23,7 C 23,3 C 41 % 1010,0 hPa 0,0 l/m 20,3 km/h (4 Bft) W 260 2 min 0,000 mm 2,6 UV-I 670 W/m 9,7 C 20,9 C 33,8 km/h (5 Bft) 100,00 %
01.07.2017 16:50 23,6 C 23,3 C 41 % 1010,0 hPa 0,0 l/m 17,9 km/h (3 Bft) W-SW 250 2 min 0,000 mm 1,7 UV-I 400 W/m 9,6 C 21,2 C 29,0 km/h (5 Bft) 100,00 %
01.07.2017 16:52 23,4 C 23,3 C 41 % 1010,0 hPa 0,0 l/m 16,7 km/h (3 Bft) W-SW 257 0 min 0,000 mm 1,8 UV-I 173 W/m 9,4 C 21,1 C 24,1 km/h (4 Bft) 97,87 %
01.07.2017 16:54 23,4 C 23,3 C 43 % 1010,0 hPa 0,0 l/m 13,9 km/h (3 Bft) W-SW 254 2 min 0,000 mm 2,6 UV-I 619 W/m 10,1 C 21,6 C 20,9 km/h (4 Bft) 100,00 %
01.07.2017 16:56 23,5 C 23,3 C 42 % 1010,0 hPa 0,0 l/m 11,5 km/h (2 Bft) SW 227 2 min 0,000 mm 2,5 UV-I 644 W/m 9,8 C 22,2 C 20,9 km/h (4 Bft) 98,21 %
01.07.2017 16:58 23,6 C 23,3 C 42 % 1010,0 hPa 0,0 l/m 15,7 km/h (3 Bft) W-SW 254 2 min 0,000 mm 2,4 UV-I 641 W/m 9,9 C 21,5 C 22,5 km/h (4 Bft) 97,37 %
01.07.2017 17:00 23,6 C 23,3 C 41 % 1010,0 hPa 0,0 l/m 15,3 km/h (3 Bft) W-NW 289 2 min 0,483 mm 2,0 UV-I 640 W/m 9,6 C 21,6 C 22,5 km/h (4 Bft) 96,00 %
01.07.2017 17:03 23,4 C 23,3 C 42 % 1010,0 hPa 0,0 l/m 9,0 km/h (2 Bft) W-NW 290 3 min 0,000 mm 1,8 UV-I 387 W/m 9,7 C 22,6 C 17,7 km/h (3 Bft) 94,37 %
01.07.2017 17:04 23,4 C 23,3 C 42 % 1010,0 hPa 0,0 l/m 5,0 km/h (1 Bft) W 273 1 min 0,000 mm 2,3 UV-I 725 W/m 9,7 C 23,4 C 8,0 km/h (2 Bft) 100,00 %
01.07.2017 17:06 23,6 C 23,3 C 42 % 1010,0 hPa 0,0 l/m 7,1 km/h (2 Bft) W 260 2 min 0,000 mm 2,3 UV-I 722 W/m 9,9 C 23,4 C 14,5 km/h (3 Bft) 92,00 %
01.07.2017 17:08 23,8 C 23,3 C 43 % 1010,0 hPa 0,0 l/m 8,6 km/h (2 Bft) SW 215 2 min 0,000 mm 2,0 UV-I 700 W/m 10,5 C 23,2 C 14,5 km/h (3 Bft) 94,74 %
01.07.2017 17:10 23,9 C 23,3 C 41 % 1009,9 hPa 0,0 l/m 8,3 km/h (2 Bft) S-SW 198 2 min 0,000 mm 2,0 UV-I 701 W/m 9,8 C 23,4 C 19,3 km/h (3 Bft) 98,00 %
01.07.2017 17:12 24,0 C 23,3 C 41 % 1009,9 hPa 0,0 l/m 9,5 km/h (2 Bft) W-SW 240 2 min 0,000 mm 1,9 UV-I 657 W/m 9,9 C 23,2 C 12,9 km/h (3 Bft) 95,74 %
01.07.2017 17:14 24,1 C 23,3 C 41 % 1010,0 hPa 0,0 l/m 7,9 km/h (2 Bft) W 267 2 min 0,000 mm 1,8 UV-I 701 W/m 10,0 C 23,7 C 14,5 km/h (3 Bft) 97,73 %
01.07.2017 17:16 24,2 C 23,3 C 40 % 1010,0 hPa 0,0 l/m 8,6 km/h (2 Bft) N-NW 331 2 min 0,000 mm 2,1 UV-I 708 W/m 9,7 C 23,6 C 17,7 km/h (3 Bft) 93,75 %
01.07.2017 17:18 24,2 C 23,3 C 38 % 1010,0 hPa 0,0 l/m 8,0 km/h (2 Bft) SW 236 2 min 0,000 mm 1,8 UV-I 707 W/m 9,0 C 23,8 C 12,9 km/h (3 Bft) 95,92 %
01.07.2017 17:20 23,9 C 23,3 C 39 % 1010,0 hPa 0,0 l/m 7,0 km/h (2 Bft) S 186 2 min 0,000 mm 1,6 UV-I 368 W/m 9,1 C 23,7 C 12,9 km/h (3 Bft) 96,00 %
01.07.2017 17:22 23,9 C 23,3 C 39 % 1010,0 hPa 0,0 l/m 11,9 km/h (2 Bft) W 268 2 min 0,000 mm 2,0 UV-I 608 W/m 9,1 C 22,5 C 20,9 km/h (4 Bft) 97,78 %
01.07.2017 17:24 24,0 C 23,3 C 39 % 1009,9 hPa 0,0 l/m 14,3 km/h (3 Bft) W-SW 246 2 min 0,000 mm 1,9 UV-I 601 W/m 9,2 C 22,2 C 20,9 km/h (4 Bft) 98,00 %
01.07.2017 17:26 23,9 C 23,3 C 39 % 1010,0 hPa 0,0 l/m 10,6 km/h (2 Bft) W-NW 290 2 min 0,000 mm 1,9 UV-I 575 W/m 9,1 C 22,8 C 19,3 km/h (3 Bft) 94,74 %
01.07.2017 17:28 23,9 C 23,3 C 39 % 1010,0 hPa 0,0 l/m 8,2 km/h (2 Bft) W-NW 288 2 min 0,000 mm 1,8 UV-I 597 W/m 9,1 C 23,4 C 19,3 km/h (3 Bft) 96,43 %
01.07.2017 17:30 24,0 C 23,3 C 38 % 1010,0 hPa 0,0 l/m 13,3 km/h (3 Bft) W 264 2 min 0,000 mm 1,8 UV-I 597 W/m 8,8 C 22,4 C 24,1 km/h (4 Bft) 97,37 %
01.07.2017 17:32 24,1 C 23,3 C 39 % 1010,0 hPa 0,0 l/m 13,8 km/h (3 Bft) W-SW 240 2 min 0,000 mm 1,7 UV-I 571 W/m 9,3 C 22,4 C 19,3 km/h (3 Bft) 96,23 %
01.07.2017 17:34 24,2 C 23,3 C 39 % 1010,0 hPa 0,0 l/m 12,3 km/h (3 Bft) W 259 2 min 0,000 mm 1,6 UV-I 547 W/m 9,4 C 22,8 C 22,5 km/h (4 Bft) 94,74 %
01.07.2017 17:36 24,2 C 23,3 C 38 % 1010,0 hPa 0,0 l/m 13,8 km/h (3 Bft) W-NW 292 2 min 0,000 mm 1,6 UV-I 532 W/m 9,0 C 22,5 C 24,1 km/h (4 Bft) 92,86 %
01.07.2017 17:38 24,1 C 23,3 C 38 % 1010,0 hPa 0,0 l/m 10,3 km/h (2 Bft) W-SW 248 2 min 0,000 mm 1,6 UV-I 520 W/m 8,9 C 23,1 C 16,1 km/h (3 Bft) 92,68 %
01.07.2017 17:40 23,9 C 23,3 C 38 % 1009,9 hPa 0,0 l/m 7,0 km/h (2 Bft) NW 310 2 min 0,000 mm 1,4 UV-I 530 W/m 8,7 C 23,7 C 14,5 km/h (3 Bft) 94,34 %
01.07.2017 17:42 23,9 C 23,3 C 39 % 1010,0 hPa 0,0 l/m 4,5 km/h (1 Bft) NW 309 2 min 0,000 mm 1,6 UV-I 522 W/m 9,1 C 23,9 C 12,9 km/h (3 Bft) 93,62 %
01.07.2017 17:44 23,9 C 23,3 C 40 % 1009,9 hPa 0,0 l/m 9,3 km/h (2 Bft) W-SW 246 2 min 0,000 mm 1,5 UV-I 506 W/m 9,5 C 23,1 C 14,5 km/h (3 Bft) 92,68 %
01.07.2017 17:46 24,0 C 23,3 C 39 % 1009,9 hPa 0,0 l/m 9,4 km/h (2 Bft) W-SW 238 2 min 0,000 mm 1,5 UV-I 510 W/m 9,2 C 23,2 C 16,1 km/h (3 Bft) 96,00 %
01.07.2017 17:48 24,1 C 23,3 C 40 % 1009,9 hPa 0,0 l/m 10,3 km/h (2 Bft) SW 235 2 min 0,000 mm 1,5 UV-I 511 W/m 9,6 C 23,1 C 22,5 km/h (4 Bft) 92,68 %
01.07.2017 17:50 24,1 C 23,3 C 39 % 1010,0 hPa 0,0 l/m 10,1 km/h (2 Bft) W-NW 288 2 min 0,000 mm 1,5 UV-I 516 W/m 9,3 C 23,1 C 22,5 km/h (4 Bft) 96,00 %
01.07.2017 17:52 24,2 C 23,3 C 39 % 1010,0 hPa 0,0 l/m 11,6 km/h (2 Bft) W-SW 238 2 min 0,000 mm 1,4 UV-I 495 W/m 9,4 C 22,9 C 16,1 km/h (3 Bft) 94,00 %
01.07.2017 17:54 24,3 C 23,3 C 40 % 1010,0 hPa 0,0 l/m 12,9 km/h (3 Bft) W-SW 253 2 min 0,000 mm 1,4 UV-I 469 W/m 9,8 C 22,8 C 17,7 km/h (3 Bft) 92,86 %
01.07.2017 17:56 24,4 C 23,3 C 38 % 1010,1 hPa 0,0 l/m 11,2 km/h (2 Bft) W-NW 288 2 min 0,000 mm 1,3 UV-I 450 W/m 9,2 C 23,3 C 17,7 km/h (3 Bft) 92,73 %
01.07.2017 17:58 24,2 C 23,3 C 38 % 1010,1 hPa 0,0 l/m 18,5 km/h (3 Bft) W 278 2 min 0,000 mm 1,3 UV-I 443 W/m 9,0 C 21,8 C 25,7 km/h (4 Bft) 94,87 %
01.07.2017 18:00 24,0 C 23,3 C 38 % 1010,1 hPa 0,0 l/m 15,3 km/h (3 Bft) W-SW 242 2 min 0,432 mm 1,3 UV-I 444 W/m 8,8 C 22,0 C 27,4 km/h (4 Bft) 90,57 %
01.07.2017 18:02 24,0 C 23,3 C 38 % 1010,1 hPa 0,0 l/m 11,4 km/h (2 Bft) W 266 2 min 0,000 mm 1,3 UV-I 448 W/m 8,8 C 22,8 C 20,9 km/h (4 Bft) 92,00 %
01.07.2017 18:04 23,9 C 23,3 C 37 % 1010,1 hPa 0,0 l/m 12,8 km/h (3 Bft) SW 227 2 min 0,000 mm 1,2 UV-I 440 W/m 8,3 C 22,4 C 19,3 km/h (3 Bft) 93,62 %
01.07.2017 18:06 23,8 C 23,3 C 37 % 1010,1 hPa 0,0 l/m 15,4 km/h (3 Bft) W-SW 250 2 min 0,000 mm 1,2 UV-I 429 W/m 8,2 C 21,8 C 27,4 km/h (4 Bft) 92,68 %
01.07.2017 18:08 23,8 C 23,3 C 38 % 1010,1 hPa 0,0 l/m 9,6 km/h (2 Bft) W 279 2 min 0,000 mm 1,2 UV-I 417 W/m 8,6 C 22,9 C 20,9 km/h (4 Bft) 93,18 %
01.07.2017 18:10 23,8 C 23,3 C 39 % 1010,1 hPa 0,0 l/m 8,1 km/h (2 Bft) SW 220 2 min 0,000 mm 1,1 UV-I 408 W/m 9,0 C 23,3 C 16,1 km/h (3 Bft) 98,11 %
01.07.2017 18:12 23,7 C 23,3 C 38 % 1010,2 hPa 0,0 l/m 13,0 km/h (3 Bft) W-SW 248 2 min 0,000 mm 0,9 UV-I 406 W/m 8,5 C 22,1 C 20,9 km/h (4 Bft) 96,00 %
01.07.2017 18:14 23,7 C 23,3 C 38 % 1010,2 hPa 0,0 l/m 10,2 km/h (2 Bft) W-SW 258 2 min 0,000 mm 1,1 UV-I 401 W/m 8,5 C 22,7 C 17,7 km/h (3 Bft) 100,00 %
01.07.2017 18:16 23,6 C 23,3 C 38 % 1010,2 hPa 0,0 l/m 9,4 km/h (2 Bft) W-SW 252 2 min 0,000 mm 1,0 UV-I 399 W/m 8,4 C 22,8 C 14,5 km/h (3 Bft) 95,74 %
01.07.2017 18:18 23,6 C 23,3 C 37 % 1010,2 hPa 0,0 l/m 15,3 km/h (3 Bft) W-SW 248 2 min 0,000 mm 1,0 UV-I 398 W/m 8,0 C 21,6 C 24,1 km/h (4 Bft) 100,00 %
01.07.2017 18:20 23,6 C 23,3 C 38 % 1010,2 hPa 0,0 l/m 15,0 km/h (3 Bft) W-SW 242 2 min 0,000 mm 1,0 UV-I 403 W/m 8,4 C 21,6 C 25,7 km/h (4 Bft) 97,37 %
01.07.2017 18:22 23,7 C 23,3 C 38 % 1010,2 hPa 0,0 l/m 17,4 km/h (3 Bft) W-SW 246 2 min 0,000 mm 1,0 UV-I 401 W/m 8,5 C 21,4 C 25,7 km/h (4 Bft) 98,00 %
01.07.2017 18:24 23,7 C 23,3 C 38 % 1010,2 hPa 0,0 l/m 13,4 km/h (3 Bft) W 259 2 min 0,000 mm 0,9 UV-I 395 W/m 8,5 C 22,0 C 22,5 km/h (4 Bft) 100,00 %
01.07.2017 18:26 23,8 C 23,3 C 38 % 1010,2 hPa 0,0 l/m 10,4 km/h (2 Bft) W-SW 248 2 min 0,000 mm 0,9 UV-I 376 W/m 8,6 C 22,7 C 16,1 km/h (3 Bft) 100,00 %
01.07.2017 18:28 23,9 C 23,3 C 38 % 1010,2 hPa 0,0 l/m 18,2 km/h (3 Bft) W-NW 288 2 min 0,000 mm 0,9 UV-I 373 W/m 8,7 C 21,5 C 27,4 km/h (4 Bft) 97,73 %
01.07.2017 18:30 23,9 C 23,3 C 37 % 1010,3 hPa 0,0 l/m 11,4 km/h (2 Bft) W 275 2 min 0,000 mm 0,9 UV-I 372 W/m 8,3 C 22,6 C 19,3 km/h (3 Bft) 98,00 %
01.07.2017 18:32 24,0 C 23,3 C 38 % 1010,2 hPa 0,0 l/m 12,0 km/h (2 Bft) W 260 2 min 0,000 mm 0,8 UV-I 379 W/m 8,8 C 22,6 C 17,7 km/h (3 Bft) 96,23 %
01.07.2017 18:34 23,9 C 23,3 C 38 % 1010,3 hPa 0,0 l/m 13,2 km/h (3 Bft) W-SW 240 2 min 0,000 mm 0,8 UV-I 377 W/m 8,7 C 22,3 C 25,7 km/h (4 Bft) 97,44 %
01.07.2017 18:36 23,9 C 23,3 C 37 % 1010,3 hPa 0,0 l/m 17,2 km/h (3 Bft) W 281 2 min 0,000 mm 0,8 UV-I 365 W/m 8,3 C 21,6 C 27,4 km/h (4 Bft) 100,00 %
01.07.2017 18:38 23,8 C 23,3 C 37 % 1010,2 hPa 0,0 l/m 18,9 km/h (3 Bft) SW 228 2 min 0,000 mm 0,7 UV-I 371 W/m 8,2 C 21,3 C 27,4 km/h (4 Bft) 97,62 %
01.07.2017 18:40 23,8 C 23,3 C 37 % 1010,3 hPa 0,0 l/m 17,5 km/h (3 Bft) SW 231 2 min 0,000 mm 0,7 UV-I 374 W/m 8,2 C 21,5 C 29,0 km/h (5 Bft) 100,00 %
01.07.2017 18:42 23,8 C 23,3 C 37 % 1010,3 hPa 0,0 l/m 18,5 km/h (3 Bft) W 262 2 min 0,000 mm 0,7 UV-I 350 W/m 8,2 C 21,3 C 32,2 km/h (5 Bft) 96,43 %
01.07.2017 18:44 23,7 C 23,3 C 38 % 1010,3 hPa 0,0 l/m 11,7 km/h (2 Bft) SW 224 2 min 0,000 mm 0,7 UV-I 325 W/m 8,5 C 22,4 C 17,7 km/h (3 Bft) 98,00 %
01.07.2017 18:46 23,7 C 23,3 C 39 % 1010,4 hPa 0,0 l/m 11,3 km/h (2 Bft) W-SW 253 2 min 0,000 mm 0,7 UV-I 303 W/m 8,9 C 22,4 C 20,9 km/h (4 Bft) 97,56 %
01.07.2017 18:48 23,7 C 23,3 C 39 % 1010,4 hPa 0,0 l/m 11,4 km/h (2 Bft) SW 217 2 min 0,000 mm 0,6 UV-I 318 W/m 8,9 C 22,4 C 14,5 km/h (3 Bft) 97,73 %
01.07.2017 18:50 23,7 C 23,3 C 38 % 1010,4 hPa 0,0 l/m 16,6 km/h (3 Bft) W 260 2 min 0,000 mm 0,6 UV-I 315 W/m 8,5 C 21,5 C 24,1 km/h (4 Bft) 100,00 %
01.07.2017 18:52 23,6 C 23,3 C 38 % 1010,4 hPa 0,0 l/m 9,7 km/h (2 Bft) W-SW 252 2 min 0,000 mm 0,6 UV-I 229 W/m 8,4 C 22,7 C 14,5 km/h (3 Bft) 97,56 %
01.07.2017 18:54 23,5 C 23,3 C 38 % 1010,4 hPa 0,0 l/m 8,2 km/h (2 Bft) W-SW 249 0 min 0,000 mm 0,5 UV-I 172 W/m 8,4 C 23,0 C 12,9 km/h (3 Bft) 98,00 %
01.07.2017 18:56 23,4 C 23,3 C 38 % 1010,4 hPa 0,0 l/m 12,0 km/h (2 Bft) W-SW 257 2 min 0,000 mm 0,4 UV-I 242 W/m 8,3 C 21,9 C 17,7 km/h (3 Bft) 100,00 %
01.07.2017 18:58 23,3 C 23,3 C 39 % 1010,4 hPa 0,0 l/m 9,8 km/h (2 Bft) W-SW 250 2 min 0,000 mm 0,4 UV-I 256 W/m 8,6 C 22,3 C 16,1 km/h (3 Bft) 96,23 %
01.07.2017 19:00 23,3 C 23,3 C 38 % 1010,4 hPa 0,0 l/m 16,0 km/h (3 Bft) W 278 2 min 0,000 mm 0,5 UV-I 254 W/m 8,2 C 21,1 C 24,1 km/h (4 Bft) 100,00 %
01.07.2017 19:02 23,2 C 23,3 C 39 % 1010,4 hPa 0,0 l/m 17,1 km/h (3 Bft) W-SW 250 0 min 0,330 mm 0,1 UV-I 158 W/m 8,5 C 20,8 C 27,4 km/h (4 Bft) 100,00 %
01.07.2017 19:04 23,1 C 23,3 C 38 % 1010,5 hPa 0,0 l/m 17,0 km/h (3 Bft) SW 216 2 min 0,000 mm 0,0 UV-I 187 W/m 8,0 C 20,7 C 24,1 km/h (4 Bft) 100,00 %
01.07.2017 19:06 23,0 C 23,3 C 38 % 1010,5 hPa 0,0 l/m 12,0 km/h (2 Bft) W-NW 290 2 min 0,000 mm 0,0 UV-I 213 W/m 7,9 C 21,5 C 17,7 km/h (3 Bft) 100,00 %
01.07.2017 19:08 22,9 C 23,3 C 39 % 1010,5 hPa 0,0 l/m 12,5 km/h (3 Bft) W-NW 286 0 min 0,000 mm 0,0 UV-I 119 W/m 8,2 C 21,3 C 17,7 km/h (3 Bft) 100,00 %
01.07.2017 19:10 22,8 C 23,3 C 39 % 1010,5 hPa 0,0 l/m 12,6 km/h (3 Bft) W-SW 252 2 min 0,000 mm 0,0 UV-I 186 W/m 8,1 C 21,1 C 19,3 km/h (3 Bft) 97,44 %
01.07.2017 19:12 22,8 C 23,3 C 39 % 1010,5 hPa 0,0 l/m 11,2 km/h (2 Bft) W-SW 254 0 min 0,000 mm 0,0 UV-I 126 W/m 8,1 C 21,4 C 20,9 km/h (4 Bft) 100,00 %
01.07.2017 19:14 22,7 C 23,3 C 39 % 1010,5 hPa 0,0 l/m 8,5 km/h (2 Bft) W 267 0 min 0,000 mm 0,0 UV-I 107 W/m 8,0 C 22,0 C 14,5 km/h (3 Bft) 97,44 %
01.07.2017 19:16 22,6 C 23,3 C 39 % 1010,5 hPa 0,0 l/m 8,4 km/h (2 Bft) W 269 0 min 0,000 mm 0,0 UV-I 143 W/m 7,9 C 22,0 C 14,5 km/h (3 Bft) 100,00 %
01.07.2017 19:18 22,5 C 23,3 C 40 % 1010,5 hPa 0,0 l/m 12,5 km/h (3 Bft) SW 227 0 min 0,000 mm 0,0 UV-I 116 W/m 8,2 C 20,8 C 19,3 km/h (3 Bft) 95,74 %
01.07.2017 19:20 22,4 C 23,3 C 40 % 1010,5 hPa 0,0 l/m 11,0 km/h (2 Bft) W-SW 252 0 min 0,000 mm 0,0 UV-I 117 W/m 8,1 C 21,0 C 19,3 km/h (3 Bft) 98,11 %
01.07.2017 19:22 22,4 C 23,3 C 41 % 1010,5 hPa 0,0 l/m 14,2 km/h (3 Bft) W-SW 240 0 min 0,000 mm 0,0 UV-I 107 W/m 8,5 C 20,3 C 20,9 km/h (4 Bft) 97,56 %
01.07.2017 19:24 22,3 C 23,3 C 41 % 1010,6 hPa 0,0 l/m 12,4 km/h (3 Bft) W-SW 240 0 min 0,000 mm 0,0 UV-I 96 W/m 8,4 C 20,6 C 17,7 km/h (3 Bft) 98,11 %
01.07.2017 19:26 22,3 C 23,3 C 41 % 1010,6 hPa 0,0 l/m 7,7 km/h (2 Bft) W-SW 242 0 min 0,000 mm 0,0 UV-I 88 W/m 8,4 C 21,9 C 12,9 km/h (3 Bft) 100,00 %
01.07.2017 19:28 22,3 C 23,3 C 42 % 1010,6 hPa 0,0 l/m 8,3 km/h (2 Bft) W 261 0 min 0,000 mm 0,0 UV-I 88 W/m 8,8 C 21,7 C 14,5 km/h (3 Bft) 95,74 %
01.07.2017 19:30 22,2 C 23,3 C 42 % 1010,7 hPa 0,0 l/m 9,2 km/h (2 Bft) W 260 0 min 0,000 mm 0,0 UV-I 96 W/m 8,7 C 21,3 C 14,5 km/h (3 Bft) 97,56 %
01.07.2017 19:32 22,2 C 23,3 C 42 % 1010,7 hPa 0,0 l/m 10,6 km/h (2 Bft) W-SW 248 0 min 0,000 mm 0,0 UV-I 93 W/m 8,7 C 20,9 C 19,3 km/h (3 Bft) 95,12 %
01.07.2017 19:34 22,2 C 23,3 C 42 % 1010,7 hPa 0,0 l/m 11,3 km/h (2 Bft) W-SW 246 0 min 0,000 mm 0,0 UV-I 93 W/m 8,7 C 20,7 C 17,7 km/h (3 Bft) 96,00 %
01.07.2017 19:36 22,2 C 23,3 C 42 % 1010,8 hPa 0,0 l/m 11,2 km/h (2 Bft) W-NW 284 0 min 0,000 mm 0,0 UV-I 94 W/m 8,7 C 20,8 C 17,7 km/h (3 Bft) 98,11 %
01.07.2017 19:38 22,2 C 23,3 C 42 % 1010,8 hPa 0,0 l/m 12,0 km/h (2 Bft) W-SW 257 2 min 0,000 mm 0,0 UV-I 139 W/m 8,7 C 20,6 C 19,3 km/h (3 Bft) 88,46 %
01.07.2017 19:40 22,2 C 23,3 C 42 % 1010,8 hPa 0,0 l/m 12,1 km/h (2 Bft) W-SW 245 2 min 0,000 mm 0,0 UV-I 121 W/m 8,7 C 20,5 C 17,7 km/h (3 Bft) 98,53 %
01.07.2017 19:42 22,2 C 23,3 C 41 % 1010,8 hPa 0,0 l/m 10,7 km/h (2 Bft) W-SW 242 0 min 0,000 mm 0,0 UV-I 100 W/m 8,3 C 20,9 C 20,9 km/h (4 Bft) 95,12 %
01.07.2017 19:44 22,2 C 23,3 C 41 % 1010,8 hPa 0,0 l/m 15,6 km/h (3 Bft) W-SW 255 2 min 0,000 mm 0,0 UV-I 122 W/m 8,3 C 19,8 C 24,1 km/h (4 Bft) 95,45 %
01.07.2017 19:46 22,2 C 23,3 C 42 % 1010,8 hPa 0,0 l/m 10,0 km/h (2 Bft) W-SW 244 2 min 0,000 mm 0,0 UV-I 105 W/m 8,7 C 21,1 C 20,9 km/h (4 Bft) 96,23 %
01.07.2017 19:48 22,3 C 23,3 C 41 % 1010,8 hPa 0,0 l/m 10,0 km/h (2 Bft) W 265 2 min 0,000 mm 0,0 UV-I 125 W/m 8,4 C 21,2 C 16,1 km/h (3 Bft) 97,73 %
01.07.2017 19:50 22,3 C 23,3 C 41 % 1010,8 hPa 0,0 l/m 10,2 km/h (2 Bft) W-SW 251 2 min 0,000 mm 0,0 UV-I 126 W/m 8,4 C 21,1 C 16,1 km/h (3 Bft) 95,45 %
01.07.2017 19:52 22,3 C 23,3 C 41 % 1010,8 hPa 0,0 l/m 14,5 km/h (3 Bft) SW 217 2 min 0,000 mm 0,0 UV-I 111 W/m 8,4 C 20,1 C 24,1 km/h (4 Bft) 98,11 %
01.07.2017 19:54 22,3 C 23,3 C 40 % 1010,8 hPa 0,0 l/m 15,4 km/h (3 Bft) W-SW 242 2 min 0,000 mm 0,0 UV-I 106 W/m 8,0 C 20,0 C 24,1 km/h (4 Bft) 95,24 %
01.07.2017 19:56 22,3 C 23,3 C 41 % 1010,8 hPa 0,0 l/m 13,2 km/h (3 Bft) W-SW 250 2 min 0,000 mm 0,0 UV-I 111 W/m 8,4 C 20,4 C 19,3 km/h (3 Bft) 96,23 %
01.07.2017 19:58 22,3 C 23,3 C 41 % 1010,8 hPa 0,0 l/m 11,1 km/h (2 Bft) W 272 2 min 0,000 mm 0,0 UV-I 108 W/m 8,4 C 20,9 C 17,7 km/h (3 Bft) 95,45 %
01.07.2017 20:00 22,3 C 23,3 C 41 % 1010,8 hPa 0,0 l/m 10,9 km/h (2 Bft) W-SW 252 2 min 0,000 mm 0,0 UV-I 95 W/m 8,4 C 20,9 C 17,7 km/h (3 Bft) 95,74 %
01.07.2017 20:02 22,2 C 23,3 C 41 % 1010,8 hPa 0,0 l/m 13,2 km/h (3 Bft) W 269 2 min 0,178 mm 0,0 UV-I 84 W/m 8,3 C 20,3 C 20,9 km/h (4 Bft) 97,37 %
01.07.2017 20:04 22,2 C 23,3 C 41 % 1010,8 hPa 0,0 l/m 11,9 km/h (2 Bft) W-SW 254 2 min 0,000 mm 0,0 UV-I 79 W/m 8,3 C 20,6 C 16,1 km/h (3 Bft) 95,45 %
01.07.2017 20:06 22,2 C 23,3 C 41 % 1010,8 hPa 0,0 l/m 12,5 km/h (3 Bft) W-SW 254 2 min 0,000 mm 0,0 UV-I 79 W/m 8,3 C 20,4 C 17,7 km/h (3 Bft) 90,91 %
01.07.2017 20:08 22,1 C 23,3 C 41 % 1010,8 hPa 0,0 l/m 11,1 km/h (2 Bft) W-SW 254 2 min 0,000 mm 0,0 UV-I 80 W/m 8,2 C 20,7 C 16,1 km/h (3 Bft) 96,61 %
01.07.2017 20:10 22,1 C 23,3 C 42 % 1010,8 hPa 0,0 l/m 10,0 km/h (2 Bft) SW 226 2 min 0,000 mm 0,0 UV-I 80 W/m 8,6 C 21,0 C 16,1 km/h (3 Bft) 96,00 %
01.07.2017 20:12 22,0 C 23,3 C 42 % 1010,8 hPa 0,0 l/m 12,1 km/h (2 Bft) SW 225 0 min 0,000 mm 0,0 UV-I 54 W/m 8,5 C 20,3 C 17,7 km/h (3 Bft) 100,00 %
01.07.2017 20:14 21,9 C 23,3 C 42 % 1010,8 hPa 0,0 l/m 9,7 km/h (2 Bft) W-SW 246 0 min 0,000 mm 0,0 UV-I 46 W/m 8,4 C 20,8 C 16,1 km/h (3 Bft) 95,74 %
01.07.2017 20:16 21,8 C 23,3 C 42 % 1010,8 hPa 0,0 l/m 13,2 km/h (3 Bft) W 259 0 min 0,000 mm 0,0 UV-I 55 W/m 8,3 C 19,8 C 17,7 km/h (3 Bft) 92,00 %
01.07.2017 20:18 21,8 C 23,3 C 42 % 1010,8 hPa 0,0 l/m 14,0 km/h (3 Bft) SW 221 2 min 0,000 mm 0,0 UV-I 74 W/m 8,3 C 19,6 C 19,3 km/h (3 Bft) 100,00 %
01.07.2017 20:20 21,8 C 23,3 C 42 % 1010,8 hPa 0,0 l/m 15,6 km/h (3 Bft) W-SW 244 2 min 0,000 mm 0,0 UV-I 77 W/m 8,3 C 19,3 C 25,7 km/h (4 Bft) 97,73 %
01.07.2017 20:22 21,8 C 23,3 C 42 % 1010,8 hPa 0,0 l/m 13,6 km/h (3 Bft) W-SW 249 2 min 0,000 mm 0,0 UV-I 68 W/m 8,3 C 19,7 C 20,9 km/h (4 Bft) 100,00 %
01.07.2017 20:24 21,7 C 23,3 C 42 % 1010,8 hPa 0,0 l/m 11,1 km/h (2 Bft) SO 132 2 min 0,000 mm 0,0 UV-I 55 W/m 8,2 C 20,2 C 16,1 km/h (3 Bft) 97,37 %
01.07.2017 20:26 21,7 C 23,3 C 42 % 1010,8 hPa 0,0 l/m 12,3 km/h (3 Bft) SW 231 2 min 0,000 mm 0,0 UV-I 54 W/m 8,2 C 19,9 C 19,3 km/h (3 Bft) 97,87 %
01.07.2017 20:28 21,6 C 23,3 C 42 % 1010,9 hPa 0,0 l/m 12,5 km/h (3 Bft) SW 225 2 min 0,000 mm 0,0 UV-I 54 W/m 8,1 C 19,7 C 19,3 km/h (3 Bft) 95,74 %
01.07.2017 20:30 21,5 C 23,3 C 42 % 1010,9 hPa 0,0 l/m 15,7 km/h (3 Bft) SW 218 2 min 0,000 mm 0,0 UV-I 45 W/m 8,0 C 18,9 C 25,7 km/h (4 Bft) 92,86 %
01.07.2017 20:32 21,4 C 23,3 C 42 % 1010,9 hPa 0,0 l/m 15,1 km/h (3 Bft) W-SW 241 2 min 0,000 mm 0,0 UV-I 39 W/m 8,0 C 18,9 C 22,5 km/h (4 Bft) 96,36 %
01.07.2017 20:34 21,4 C 23,3 C 43 % 1010,9 hPa 0,0 l/m 13,7 km/h (3 Bft) SW 234 0 min 0,000 mm 0,0 UV-I 32 W/m 8,3 C 19,2 C 19,3 km/h (3 Bft) 97,62 %
01.07.2017 20:36 21,3 C 23,3 C 43 % 1011,0 hPa 0,0 l/m 11,9 km/h (2 Bft) SW 221 0 min 0,000 mm 0,0 UV-I 26 W/m 8,2 C 19,6 C 16,1 km/h (3 Bft) 98,00 %
01.07.2017 20:38 21,3 C 23,3 C 43 % 1011,0 hPa 0,0 l/m 11,2 km/h (2 Bft) SW 218 0 min 0,000 mm 0,0 UV-I 26 W/m 8,2 C 19,7 C 16,1 km/h (3 Bft) 100,00 %
01.07.2017 20:40 21,2 C 23,3 C 43 % 1010,9 hPa 0,0 l/m 9,3 km/h (2 Bft) S-SW 212 0 min 0,000 mm 0,0 UV-I 27 W/m 8,1 C 20,2 C 14,5 km/h (3 Bft) 100,00 %
01.07.2017 20:42 21,2 C 23,3 C 44 % 1011,0 hPa 0,0 l/m 10,8 km/h (2 Bft) SW 230 2 min 0,000 mm 0,0 UV-I 26 W/m 8,5 C 19,7 C 17,7 km/h (3 Bft) 98,00 %
01.07.2017 20:44 21,1 C 23,3 C 44 % 1011,0 hPa 0,0 l/m 11,8 km/h (2 Bft) SW 224 2 min 0,000 mm 0,0 UV-I 26 W/m 8,4 C 19,3 C 17,7 km/h (3 Bft) 98,11 %
01.07.2017 20:46 21,0 C 23,3 C 44 % 1011,1 hPa 0,0 l/m 10,4 km/h (2 Bft) SW 219 2 min 0,000 mm 0,0 UV-I 24 W/m 8,3 C 19,6 C 16,1 km/h (3 Bft) 100,00 %
01.07.2017 20:48 20,9 C 23,3 C 45 % 1011,1 hPa 0,0 l/m 9,4 km/h (2 Bft) SW 223 2 min 0,000 mm 0,0 UV-I 23 W/m 8,5 C 19,8 C 14,5 km/h (3 Bft) 98,11 %
01.07.2017 20:50 20,8 C 23,3 C 45 % 1011,1 hPa 0,0 l/m 7,9 km/h (2 Bft) S-SW 205 2 min 0,000 mm 0,0 UV-I 20 W/m 8,4 C 20,2 C 12,9 km/h (3 Bft) 100,00 %
01.07.2017 20:52 20,8 C 23,3 C 46 % 1011,1 hPa 0,0 l/m 8,8 km/h (2 Bft) SW 234 2 min 0,000 mm 0,0 UV-I 16 W/m 8,8 C 19,9 C 12,9 km/h (3 Bft) 100,00 %
01.07.2017 20:54 20,7 C 23,3 C 46 % 1011,1 hPa 0,0 l/m 7,4 km/h (2 Bft) W-SW 246 2 min 0,000 mm 0,0 UV-I 12 W/m 8,7 C 20,3 C 11,3 km/h (2 Bft) 100,00 %
01.07.2017 20:56 20,6 C 23,3 C 47 % 1011,1 hPa 0,0 l/m 7,2 km/h (2 Bft) W-SW 239 0 min 0,000 mm 0,0 UV-I 11 W/m 8,9 C 20,3 C 12,9 km/h (3 Bft) 96,23 %
01.07.2017 20:58 20,6 C 23,3 C 47 % 1011,1 hPa 0,0 l/m 9,2 km/h (2 Bft) S-SW 204 0 min 0,000 mm 0,0 UV-I 9 W/m 8,9 C 19,6 C 12,9 km/h (3 Bft) 100,00 %
01.07.2017 21:00 20,4 C 23,3 C 47 % 1011,2 hPa 0,0 l/m 10,2 km/h (2 Bft) SW 221 0 min 0,000 mm 0,0 UV-I 9 W/m 8,7 C 19,0 C 14,5 km/h (3 Bft) 95,12 %
01.07.2017 21:02 20,4 C 23,3 C 48 % 1011,2 hPa 0,0 l/m 11,0 km/h (2 Bft) SW 226 0 min 0,127 mm 0,0 UV-I 8 W/m 9,0 C 18,8 C 17,7 km/h (3 Bft) 100,00 %
01.07.2017 21:04 20,3 C 23,3 C 48 % 1011,2 hPa 0,0 l/m 10,2 km/h (2 Bft) W-SW 242 0 min 0,000 mm 0,0 UV-I 7 W/m 8,9 C 18,9 C 16,1 km/h (3 Bft) 95,12 %
01.07.2017 21:06 20,3 C 23,3 C 48 % 1011,2 hPa 0,0 l/m 9,6 km/h (2 Bft) SW 224 0 min 0,000 mm 0,0 UV-I 6 W/m 8,9 C 19,1 C 12,9 km/h (3 Bft) 100,00 %
01.07.2017 21:08 20,3 C 23,3 C 48 % 1011,2 hPa 0,0 l/m 10,9 km/h (2 Bft) S 187 0 min 0,000 mm 0,0 UV-I 5 W/m 8,9 C 18,7 C 16,1 km/h (3 Bft) 98,11 %
01.07.2017 21:10 20,2 C 23,3 C 48 % 1011,3 hPa 0,0 l/m 9,4 km/h (2 Bft) SW 216 0 min 0,000 mm 0,0 UV-I 5 W/m 8,8 C 19,1 C 12,9 km/h (3 Bft) 98,00 %
01.07.2017 21:12 20,2 C 23,3 C 48 % 1011,3 hPa 0,0 l/m 8,6 km/h (2 Bft) W-SW 240 0 min 0,000 mm 0,0 UV-I 5 W/m 8,8 C 19,3 C 11,3 km/h (2 Bft) 96,00 %
01.07.2017 21:14 20,1 C 23,3 C 48 % 1011,3 hPa 0,0 l/m 8,6 km/h (2 Bft) SW 215 0 min 0,000 mm 0,0 UV-I 5 W/m 8,7 C 19,2 C 16,1 km/h (3 Bft) 95,74 %
01.07.2017 21:16 20,1 C 23,3 C 48 % 1011,3 hPa 0,0 l/m 9,0 km/h (2 Bft) SW 229 0 min 0,000 mm 0,0 UV-I 5 W/m 8,7 C 19,1 C 12,9 km/h (3 Bft) 97,87 %
01.07.2017 21:18 20,1 C 23,3 C 49 % 1011,3 hPa 0,0 l/m 7,6 km/h (2 Bft) W-SW 237 0 min 0,000 mm 0,0 UV-I 5 W/m 9,0 C 19,6 C 11,3 km/h (2 Bft) 96,00 %
01.07.2017 21:20 20,0 C 22,8 C 49 % 1011,3 hPa 0,0 l/m 9,8 km/h (2 Bft) SW 225 0 min 0,000 mm 0,0 UV-I 5 W/m 9,0 C 18,7 C 14,5 km/h (3 Bft) 92,68 %
01.07.2017 21:22 20,0 C 23,3 C 49 % 1011,3 hPa 0,0 l/m 9,3 km/h (2 Bft) W-SW 245 0 min 0,000 mm 0,0 UV-I 3 W/m 9,0 C 18,9 C 14,5 km/h (3 Bft) 98,00 %
01.07.2017 21:24 19,9 C 23,3 C 50 % 1011,4 hPa 0,0 l/m 8,9 km/h (2 Bft) SW 232 0 min 0,000 mm 0,0 UV-I 0 W/m 9,2 C 18,9 C 12,9 km/h (3 Bft) 92,11 %
01.07.2017 21:26 19,8 C 22,8 C 50 % 1011,4 hPa 0,0 l/m 8,2 km/h (2 Bft) W-SW 251 0 min 0,000 mm 0,0 UV-I 0 W/m 9,1 C 19,1 C 11,3 km/h (2 Bft) 96,23 %
01.07.2017 21:28 19,8 C 22,8 C 50 % 1011,4 hPa 0,0 l/m 7,1 km/h (2 Bft) SW 220 0 min 0,000 mm 0,0 UV-I 0 W/m 9,1 C 19,5 C 11,3 km/h (2 Bft) 92,45 %
01.07.2017 21:30 19,7 C 22,8 C 50 % 1011,5 hPa 0,0 l/m 5,8 km/h (2 Bft) W 261 0 min 0,000 mm 0,0 UV-I 0 W/m 9,0 C 19,7 C 9,7 km/h (2 Bft) 94,59 %
01.07.2017 21:32 19,7 C 22,8 C 51 % 1011,5 hPa 0,0 l/m 7,5 km/h (2 Bft) W 277 0 min 0,000 mm 0,0 UV-I 0 W/m 9,3 C 19,2 C 11,3 km/h (2 Bft) 93,18 %
01.07.2017 21:34 19,6 C 23,3 C 51 % 1011,6 hPa 0,0 l/m 6,8 km/h (2 Bft) W-SW 248 0 min 0,000 mm 0,0 UV-I 0 W/m 9,2 C 19,4 C 11,3 km/h (2 Bft) 92,00 %
01.07.2017 21:36 19,4 C 22,8 C 51 % 1011,6 hPa 0,0 l/m 5,6 km/h (1 Bft) W 268 0 min 0,000 mm 0,0 UV-I 0 W/m 9,0 C 19,4 C 11,3 km/h (2 Bft) 96,23 %
01.07.2017 21:38 19,3 C 22,8 C 52 % 1011,6 hPa 0,0 l/m 6,0 km/h (2 Bft) W-SW 254 0 min 0,000 mm 0,0 UV-I 0 W/m 9,2 C 19,3 C 12,9 km/h (3 Bft) 93,62 %
01.07.2017 21:40 19,3 C 22,8 C 52 % 1011,7 hPa 0,0 l/m 7,9 km/h (2 Bft) W-SW 247 0 min 0,000 mm 0,0 UV-I 0 W/m 9,2 C 18,7 C 11,3 km/h (2 Bft) 95,00 %
01.07.2017 21:42 19,3 C 22,8 C 52 % 1011,7 hPa 0,0 l/m 6,3 km/h (2 Bft) W-SW 252 0 min 0,000 mm 0,0 UV-I 0 W/m 9,2 C 19,3 C 9,7 km/h (2 Bft) 96,00 %
01.07.2017 21:44 19,3 C 22,8 C 52 % 1011,8 hPa 0,0 l/m 5,7 km/h (1 Bft) W-SW 248 0 min 0,000 mm 0,0 UV-I 0 W/m 9,2 C 19,3 C 9,7 km/h (2 Bft) 92,00 %
01.07.2017 21:46 19,3 C 22,8 C 53 % 1011,8 hPa 0,0 l/m 6,7 km/h (2 Bft) W-SW 244 0 min 0,000 mm 0,0 UV-I 0 W/m 9,5 C 19,2 C 11,3 km/h (2 Bft) 94,00 %
01.07.2017 21:48 19,3 C 22,8 C 52 % 1011,8 hPa 0,0 l/m 9,4 km/h (2 Bft) W 265 0 min 0,000 mm 0,0 UV-I 0 W/m 9,2 C 18,1 C 14,5 km/h (3 Bft) 94,87 %
01.07.2017 21:50 19,3 C 22,8 C 53 % 1011,8 hPa 0,0 l/m 9,5 km/h (2 Bft) W-SW 244 0 min 0,000 mm 0,0 UV-I 0 W/m 9,5 C 18,0 C 16,1 km/h (3 Bft) 94,44 %
01.07.2017 21:52 19,3 C 22,8 C 53 % 1011,9 hPa 0,0 l/m 8,9 km/h (2 Bft) W-SW 252 0 min 0,000 mm 0,0 UV-I 0 W/m 9,5 C 18,3 C 12,9 km/h (3 Bft) 94,87 %
01.07.2017 21:54 19,3 C 22,8 C 53 % 1011,9 hPa 0,0 l/m 11,2 km/h (2 Bft) W-SW 257 0 min 0,000 mm 0,0 UV-I 0 W/m 9,5 C 17,5 C 16,1 km/h (3 Bft) 94,00 %
01.07.2017 21:56 19,3 C 22,8 C 54 % 1011,9 hPa 0,0 l/m 9,7 km/h (2 Bft) SW 236 0 min 0,000 mm 0,0 UV-I 0 W/m 9,8 C 18,0 C 16,1 km/h (3 Bft) 95,45 %
01.07.2017 21:58 19,3 C 22,8 C 54 % 1011,9 hPa 0,0 l/m 10,5 km/h (2 Bft) SW 217 0 min 0,000 mm 0,0 UV-I 0 W/m 9,8 C 17,7 C 17,7 km/h (3 Bft) 96,23 %
01.07.2017 22:00 19,3 C 22,8 C 54 % 1011,9 hPa 0,0 l/m 11,3 km/h (2 Bft) SW 236 0 min 0,000 mm 0,0 UV-I 0 W/m 9,8 C 17,4 C 19,3 km/h (3 Bft) 95,74 %
01.07.2017 22:03 19,3 C 22,8 C 55 % 1011,9 hPa 0,0 l/m 11,0 km/h (2 Bft) SW 228 0 min 0,076 mm 0,0 UV-I 0 W/m 10,0 C 17,5 C 17,7 km/h (3 Bft) 97,37 %
01.07.2017 22:04 19,3 C 22,8 C 55 % 1011,9 hPa 0,0 l/m 14,3 km/h (3 Bft) SW 231 0 min 0,000 mm 0,0 UV-I 0 W/m 10,0 C 16,6 C 19,3 km/h (3 Bft) 100,00 %
01.07.2017 22:06 19,3 C 22,8 C 55 % 1012,0 hPa 0,0 l/m 10,9 km/h (2 Bft) SW 232 0 min 0,000 mm 0,0 UV-I 0 W/m 10,0 C 17,6 C 20,9 km/h (4 Bft) 95,74 %
01.07.2017 22:08 19,3 C 22,8 C 56 % 1012,0 hPa 0,0 l/m 13,2 km/h (3 Bft) W-SW 250 0 min 0,000 mm 0,0 UV-I 0 W/m 10,3 C 16,9 C 19,3 km/h (3 Bft) 95,45 %
01.07.2017 22:10 19,3 C 22,8 C 56 % 1012,0 hPa 0,0 l/m 12,7 km/h (3 Bft) SW 223 0 min 0,000 mm 0,0 UV-I 0 W/m 10,3 C 17,0 C 19,3 km/h (3 Bft) 96,00 %
01.07.2017 22:12 19,3 C 22,8 C 56 % 1012,0 hPa 0,0 l/m 8,0 km/h (2 Bft) SW 227 0 min 0,000 mm 0,0 UV-I 0 W/m 10,3 C 18,6 C 14,5 km/h (3 Bft) 95,12 %
01.07.2017 22:14 19,3 C 22,8 C 56 % 1012,1 hPa 0,0 l/m 9,2 km/h (2 Bft) SW 218 0 min 0,000 mm 0,0 UV-I 0 W/m 10,3 C 18,2 C 14,5 km/h (3 Bft) 94,92 %
01.07.2017 22:16 19,2 C 22,8 C 56 % 1012,1 hPa 0,0 l/m 13,2 km/h (3 Bft) W-SW 238 0 min 0,000 mm 0,0 UV-I 0 W/m 10,2 C 16,8 C 17,7 km/h (3 Bft) 92,68 %
01.07.2017 22:18 19,2 C 22,8 C 57 % 1012,1 hPa 0,0 l/m 12,9 km/h (3 Bft) SW 219 0 min 0,000 mm 0,0 UV-I 0 W/m 10,5 C 16,8 C 19,3 km/h (3 Bft) 100,00 %
01.07.2017 22:20 19,2 C 22,8 C 57 % 1012,1 hPa 0,0 l/m 14,0 km/h (3 Bft) W 265 0 min 0,000 mm 0,0 UV-I 0 W/m 10,5 C 16,5 C 19,3 km/h (3 Bft) 95,71 %
01.07.2017 22:22 19,2 C 22,8 C 57 % 1012,2 hPa 0,0 l/m 15,4 km/h (3 Bft) W-SW 250 0 min 0,000 mm 0,0 UV-I 0 W/m 10,5 C 16,2 C 22,5 km/h (4 Bft) 97,87 %
01.07.2017 22:24 19,2 C 22,8 C 57 % 1012,2 hPa 0,0 l/m 11,5 km/h (2 Bft) W-SW 252 0 min 0,000 mm 0,0 UV-I 0 W/m 10,5 C 17,3 C 19,3 km/h (3 Bft) 100,00 %
01.07.2017 22:26 19,2 C 22,8 C 57 % 1012,2 hPa 0,0 l/m 12,7 km/h (3 Bft) W-SW 257 0 min 0,000 mm 0,0 UV-I 0 W/m 10,5 C 16,9 C 17,7 km/h (3 Bft) 97,87 %
01.07.2017 22:28 19,1 C 22,8 C 57 % 1012,2 hPa 0,0 l/m 12,8 km/h (3 Bft) W-SW 244 0 min 0,000 mm 0,0 UV-I 0 W/m 10,4 C 16,8 C 17,7 km/h (3 Bft) 95,12 %
01.07.2017 22:30 19,1 C 22,8 C 58 % 1012,2 hPa 0,0 l/m 11,5 km/h (2 Bft) W-SW 238 0 min 0,000 mm 0,0 UV-I 0 W/m 10,6 C 17,1 C 16,1 km/h (3 Bft) 98,00 %
01.07.2017 22:33 19,1 C 22,8 C 58 % 1012,3 hPa 0,0 l/m 13,8 km/h (3 Bft) W 279 0 min 0,000 mm 0,0 UV-I 0 W/m 10,6 C 16,5 C 19,3 km/h (3 Bft) 98,46 %
01.07.2017 22:34 19,1 C 22,8 C 58 % 1012,3 hPa 0,0 l/m 11,8 km/h (2 Bft) S-SW 207 0 min 0,000 mm 0,0 UV-I 0 W/m 10,6 C 17,1 C 16,1 km/h (3 Bft) 100,00 %
01.07.2017 22:36 19,0 C 22,8 C 58 % 1012,3 hPa 0,0 l/m 10,1 km/h (2 Bft) W 263 0 min 0,000 mm 0,0 UV-I 0 W/m 10,5 C 17,5 C 17,7 km/h (3 Bft) 100,00 %
01.07.2017 22:38 19,0 C 22,8 C 58 % 1012,3 hPa 0,0 l/m 12,1 km/h (2 Bft) W-SW 254 0 min 0,000 mm 0,0 UV-I 0 W/m 10,5 C 16,8 C 20,9 km/h (4 Bft) 97,87 %
01.07.2017 22:40 19,0 C 22,8 C 58 % 1012,3 hPa 0,0 l/m 13,1 km/h (3 Bft) SW 236 0 min 0,000 mm 0,0 UV-I 0 W/m 10,5 C 16,6 C 17,7 km/h (3 Bft) 100,00 %
01.07.2017 22:45 18,9 C 22,8 C 59 % 1012,3 hPa 0,0 l/m 12,9 km/h (3 Bft) W-SW 247 0 min 0,000 mm 0,0 UV-I 0 W/m 10,7 C 16,5 C 20,9 km/h (4 Bft) 99,12 %
01.07.2017 22:52 18,8 C 22,8 C 59 % 1012,4 hPa 0,0 l/m 13,1 km/h (3 Bft) SW 219 0 min 0,000 mm 0,0 UV-I 0 W/m 10,6 C 16,3 C 19,3 km/h (3 Bft) 98,00 %
01.07.2017 22:54 18,8 C 22,8 C 60 % 1012,3 hPa 0,0 l/m 15,6 km/h (3 Bft) W 267 0 min 0,000 mm 0,0 UV-I 0 W/m 10,9 C 15,6 C 22,5 km/h (4 Bft) 97,56 %
01.07.2017 22:56 18,7 C 22,8 C 59 % 1012,4 hPa 0,0 l/m 15,9 km/h (3 Bft) SW 221 0 min 0,000 mm 0,0 UV-I 0 W/m 10,5 C 15,4 C 24,1 km/h (4 Bft) 100,00 %
01.07.2017 22:58 18,7 C 22,8 C 60 % 1012,3 hPa 0,0 l/m 16,2 km/h (3 Bft) SW 215 0 min 0,000 mm 0,0 UV-I 0 W/m 10,8 C 15,4 C 24,1 km/h (4 Bft) 97,56 %
01.07.2017 23:00 18,7 C 22,8 C 60 % 1012,3 hPa 0,0 l/m 14,6 km/h (3 Bft) S-SW 207 0 min 0,000 mm 0,0 UV-I 0 W/m 10,8 C 15,8 C 22,5 km/h (4 Bft) 98,11 %
01.07.2017 23:02 18,6 C 22,8 C 60 % 1012,4 hPa 0,0 l/m 11,4 km/h (2 Bft) W-SW 248 0 min 0,076 mm 0,0 UV-I 0 W/m 10,7 C 16,6 C 17,7 km/h (3 Bft) 100,00 %
01.07.2017 23:04 18,6 C 22,8 C 60 % 1012,4 hPa 0,0 l/m 12,8 km/h (3 Bft) S-SW 194 0 min 0,000 mm 0,0 UV-I 0 W/m 10,7 C 16,2 C 19,3 km/h (3 Bft) 97,37 %
01.07.2017 23:06 18,5 C 22,8 C 60 % 1012,4 hPa 0,0 l/m 11,4 km/h (2 Bft) W 270 0 min 0,000 mm 0,0 UV-I 0 W/m 10,6 C 16,5 C 16,1 km/h (3 Bft) 100,00 %
01.07.2017 23:08 18,4 C 22,8 C 61 % 1012,4 hPa 0,0 l/m 15,2 km/h (3 Bft) SW 228 0 min 0,000 mm 0,0 UV-I 0 W/m 10,7 C 15,3 C 20,9 km/h (4 Bft) 97,87 %
01.07.2017 23:10 18,4 C 22,8 C 61 % 1012,4 hPa 0,0 l/m 12,2 km/h (2 Bft) W 270 0 min 0,000 mm 0,0 UV-I 0 W/m 10,7 C 16,1 C 17,7 km/h (3 Bft) 97,56 %
01.07.2017 23:12 18,3 C 22,8 C 61 % 1012,4 hPa 0,0 l/m 13,6 km/h (3 Bft) SW 229 0 min 0,000 mm 0,0 UV-I 0 W/m 10,6 C 15,6 C 19,3 km/h (3 Bft) 100,00 %
01.07.2017 23:14 18,3 C 22,8 C 62 % 1012,5 hPa 0,0 l/m 13,3 km/h (3 Bft) W-SW 252 0 min 0,000 mm 0,0 UV-I 0 W/m 10,9 C 15,7 C 19,3 km/h (3 Bft) 98,21 %
01.07.2017 23:16 18,2 C 22,8 C 62 % 1012,5 hPa 0,0 l/m 14,3 km/h (3 Bft) W-SW 249 0 min 0,000 mm 0,0 UV-I 0 W/m 10,8 C 15,3 C 20,9 km/h (4 Bft) 100,00 %
01.07.2017 23:18 18,2 C 22,8 C 62 % 1012,5 hPa 0,0 l/m 13,8 km/h (3 Bft) SW 231 0 min 0,000 mm 0,0 UV-I 0 W/m 10,8 C 15,4 C 20,9 km/h (4 Bft) 95,56 %
01.07.2017 23:20 18,1 C 22,8 C 62 % 1012,6 hPa 0,0 l/m 13,4 km/h (3 Bft) SW 229 0 min 0,000 mm 0,0 UV-I 0 W/m 10,7 C 15,4 C 17,7 km/h (3 Bft) 96,15 %
01.07.2017 23:22 18,1 C 22,8 C 62 % 1012,6 hPa 0,0 l/m 13,1 km/h (3 Bft) W-SW 253 0 min 0,000 mm 0,0 UV-I 0 W/m 10,7 C 15,5 C 19,3 km/h (3 Bft) 97,62 %
01.07.2017 23:24 18,0 C 22,8 C 63 % 1012,5 hPa 0,0 l/m 16,1 km/h (3 Bft) SW 225 0 min 0,000 mm 0,0 UV-I 0 W/m 10,8 C 14,5 C 22,5 km/h (4 Bft) 97,87 %
01.07.2017 23:26 17,9 C 22,8 C 63 % 1012,6 hPa 0,0 l/m 11,8 km/h (2 Bft) W 261 0 min 0,000 mm 0,0 UV-I 0 W/m 10,8 C 15,7 C 17,7 km/h (3 Bft) 98,00 %
01.07.2017 23:28 17,9 C 22,8 C 63 % 1012,6 hPa 0,0 l/m 14,7 km/h (3 Bft) W 277 0 min 0,000 mm 0,0 UV-I 0 W/m 10,8 C 14,8 C 22,5 km/h (4 Bft) 97,37 %
01.07.2017 23:30 17,8 C 22,8 C 64 % 1012,7 hPa 0,0 l/m 12,7 km/h (3 Bft) SW 219 0 min 0,000 mm 0,0 UV-I 0 W/m 10,9 C 15,3 C 17,7 km/h (3 Bft) 95,45 %
01.07.2017 23:32 17,8 C 22,8 C 64 % 1012,7 hPa 0,0 l/m 10,4 km/h (2 Bft) SW 233 0 min 0,000 mm 0,0 UV-I 0 W/m 10,9 C 16,1 C 16,1 km/h (3 Bft) 95,16 %
01.07.2017 23:34 17,7 C 22,8 C 64 % 1012,7 hPa 0,0 l/m 12,4 km/h (3 Bft) SW 228 0 min 0,000 mm 0,0 UV-I 0 W/m 10,8 C 15,2 C 17,7 km/h (3 Bft) 97,37 %
01.07.2017 23:36 17,6 C 22,8 C 65 % 1012,7 hPa 0,0 l/m 11,2 km/h (2 Bft) SW 221 0 min 0,000 mm 0,0 UV-I 0 W/m 10,9 C 15,5 C 16,1 km/h (3 Bft) 95,74 %
01.07.2017 23:38 17,6 C 22,8 C 65 % 1012,7 hPa 0,0 l/m 13,2 km/h (3 Bft) S-SW 211 0 min 0,000 mm 0,0 UV-I 0 W/m 10,9 C 14,9 C 19,3 km/h (3 Bft) 94,29 %
01.07.2017 23:40 17,6 C 22,8 C 65 % 1012,7 hPa 0,0 l/m 13,3 km/h (3 Bft) SW 232 0 min 0,000 mm 0,0 UV-I 0 W/m 10,9 C 14,8 C 20,9 km/h (4 Bft) 92,86 %
01.07.2017 23:42 17,5 C 22,8 C 65 % 1012,7 hPa 0,0 l/m 11,8 km/h (2 Bft) W-SW 247 0 min 0,000 mm 0,0 UV-I 0 W/m 10,8 C 15,2 C 16,1 km/h (3 Bft) 96,43 %
01.07.2017 23:44 17,4 C 22,8 C 66 % 1012,7 hPa 0,0 l/m 11,8 km/h (2 Bft) SW 224 0 min 0,000 mm 0,0 UV-I 0 W/m 11,0 C 15,1 C 16,1 km/h (3 Bft) 95,12 %
01.07.2017 23:46 17,4 C 22,8 C 66 % 1012,7 hPa 0,0 l/m 12,3 km/h (3 Bft) S-SW 213 0 min 0,000 mm 0,0 UV-I 0 W/m 11,0 C 14,9 C 20,9 km/h (4 Bft) 94,00 %
01.07.2017 23:48 17,4 C 22,8 C 66 % 1012,7 hPa 0,0 l/m 12,2 km/h (2 Bft) S-SW 211 0 min 0,000 mm 0,0 UV-I 0 W/m 11,0 C 15,0 C 17,7 km/h (3 Bft) 97,87 %
01.07.2017 23:50 17,3 C 22,8 C 66 % 1012,8 hPa 0,0 l/m 12,3 km/h (3 Bft) SW 236 0 min 0,000 mm 0,0 UV-I 0 W/m 10,9 C 14,8 C 17,7 km/h (3 Bft) 94,00 %
01.07.2017 23:52 17,3 C 22,8 C 66 % 1012,8 hPa 0,0 l/m 14,6 km/h (3 Bft) W-SW 240 0 min 0,000 mm 0,0 UV-I 0 W/m 10,9 C 14,1 C 22,5 km/h (4 Bft) 95,45 %
01.07.2017 23:54 17,3 C 22,8 C 66 % 1012,8 hPa 0,0 l/m 12,4 km/h (3 Bft) W-SW 248 0 min 0,000 mm 0,0 UV-I 0 W/m 10,9 C 14,8 C 17,7 km/h (3 Bft) 97,56 %
01.07.2017 23:56 17,3 C 22,8 C 67 % 1012,8 hPa 0,0 l/m 11,9 km/h (2 Bft) SW 222 0 min 0,000 mm 0,0 UV-I 0 W/m 11,1 C 15,0 C 19,3 km/h (3 Bft) 94,34 %
01.07.2017 23:58 17,3 C 22,8 C 67 % 1012,8 hPa 0,0 l/m 14,0 km/h (3 Bft) W-SW 240 0 min 0,000 mm 0,0 UV-I 0 W/m 11,1 C 14,3 C 17,7 km/h (3 Bft) 97,62 %
_ Min-Zeit 01:38 06:22 18:04 00:00 - 00:06 - - - - - - 19:06 06:10 00:06 12:00
Minimum _ 12,2 C 22,2 C 37 % 1007,3 hPa - 0,0 km/h (0 Bft) - - - - - - 7,9 C 9,3 C 0,0 km/h (0 Bft) 86,84 %
_ Max-Zeit 17:56 00:00 00:40 23:50 06:50 11:22 - - 09:23 16:02 13:16 13:16 09:20 17:42 13:32 00:04
Maximum _ 24,4 C 23,3 C 90 % 1012,8 hPa 0,2 l/m 23,3 km/h
SW (4 Bft)
- - 3 min 0,533 mm 7,0 UV-I 1164 W/m 13,3 C 23,9 C 35,4 km/h
SW (5 Bft)
100,00 %
Durchschnitt _ 18,0 C 22,9 C 65 % 1010,1 hPa #0,2 l/m 10,4 km/h (2 Bft) SW - #6:57 h #4,572 mm 2,4 UV-I 339 W/m 10,6 C 16,4 C 16,5 km/h (3 Bft) 96,86 %